Darstellungsparameter: Aktuell verwendete Einstellungen:
Skalierung der Graphiken ... ?
xyx+y,   Skalierungsfaktor:      Skalierung: Modus: x, Faktor: 1
Darstellungszeitraum ... ?
Vom - - bis: - -   Zeitraum: 02.08.2021 - 01.09.2021
Min/Max/Avg-Anzeige ... ?
Zeige MMA aktuell
Zeige MMA Monat
Zeige MMA alles
Zeige --A aktuell
Zeige --A Monat
Zeige --A alles
Keine MMA-Anzeige
MMA:
Average (ber die Originaldaten)
MMA-Basis: 02.08.2021 - 01.09.2021
Quicknavigation für Darstellung... ?
Tage:      1T, 2T, 3T, 5T -1T -2T -3T -5T +1T +2T +3T +5T
Wochen: 1W, 2W, 3W -1W -2W -3W +1W +2W +3W
Monate: 1M, 3M, 6M -1M -3M -6M +1M +3M +6M
Jahre:    1J, 3J, 5J, 10J -1J -3J -5J -10J +1J +3J +5J +10J
Nutze für die Darstellung ... ?
Originaldaten oder Mittelwerte auf ...
Stundenbasis Tagesbasis Wochenbasis
Monatsbasis Jahresbasis      Datenbasis: Original-Daten
Darstellen als:
Statistik (Auto) Statistik J:M      Darstellung:
Zur Graphik,    zurück zur Übersicht aller Sensoren.
 
Tabellarische Datenbersicht: ?
 
Sensor: Nr:Datum:Temp:Abs-Feuchte:Windchill:Wind:
Aussen-T/F 1 02-08-2021 00:00:00 13.8 C 11.32 g/m*3 13.8 C 3.2 km/h
2 02-08-2021 00:05:00 13.8 C 11.32 g/m*3 13.8 C 0 km/h
3 02-08-2021 00:10:00 13.7 C 11.25 g/m*3 13.7 C 0 km/h
4 02-08-2021 00:15:00 13.7 C 11.25 g/m*3 13.7 C 1.6 km/h
5 02-08-2021 00:20:00 13.6 C 11.18 g/m*3 13.6 C 0 km/h
6 02-08-2021 00:25:00 13.6 C 11.18 g/m*3 13.6 C 1.6 km/h
7 02-08-2021 00:30:00 13.6 C 11.3 g/m*3 13.6 C 1.6 km/h
8 02-08-2021 00:35:00 13.6 C 11.3 g/m*3 13.6 C 1.6 km/h
9 02-08-2021 00:40:00 13.7 C 11.37 g/m*3 13.7 C 0 km/h
10 02-08-2021 00:45:00 13.7 C 11.37 g/m*3 13.7 C 0 km/h
11 02-08-2021 00:50:00 13.7 C 11.37 g/m*3 13.7 C 1.6 km/h
12 02-08-2021 00:55:00 13.7 C 11.37 g/m*3 13.7 C 3.2 km/h
13 02-08-2021 01:00:00 13.6 C 11.3 g/m*3 13.6 C 1.6 km/h
14 02-08-2021 01:05:00 13.6 C 11.18 g/m*3 13.6 C 0 km/h
15 02-08-2021 01:10:00 13.4 C 11.04 g/m*3 13.4 C 0 km/h
16 02-08-2021 01:15:00 13.4 C 11.16 g/m*3 13.4 C 0 km/h
17 02-08-2021 01:20:00 13.3 C 11.09 g/m*3 13.3 C 0 km/h
18 02-08-2021 01:25:00 13.3 C 11.09 g/m*3 13.3 C 1.6 km/h
19 02-08-2021 01:30:00 13.4 C 11.16 g/m*3 13.4 C 1.6 km/h
20 02-08-2021 01:35:00 13.4 C 11.16 g/m*3 13.4 C 1.6 km/h
21 02-08-2021 01:40:00 13.4 C 11.16 g/m*3 13.4 C 1.6 km/h
22 02-08-2021 01:45:00 13.4 C 11.16 g/m*3 13.4 C 0 km/h
23 02-08-2021 01:50:00 13.4 C 11.16 g/m*3 13.4 C 0 km/h
24 02-08-2021 01:55:00 13.4 C 11.16 g/m*3 13.4 C 0 km/h
25 02-08-2021 02:00:00 13.5 C 11.23 g/m*3 13.5 C 0 km/h
Sensor: Nr:Datum:Temp:Abs-Feuchte:Windchill:Wind:
Aussen-T/F 26 02-08-2021 02:05:00 13.5 C 11.23 g/m*3 13.5 C 0 km/h
27 02-08-2021 02:10:00 13.6 C 11.3 g/m*3 13.6 C 0 km/h
28 02-08-2021 02:15:00 13.6 C 11.3 g/m*3 13.6 C 0 km/h
29 02-08-2021 02:20:00 13.7 C 11.37 g/m*3 13.7 C 0 km/h
30 02-08-2021 02:25:00 13.6 C 11.3 g/m*3 13.6 C 0 km/h
31 02-08-2021 02:30:00 13.6 C 11.3 g/m*3 13.6 C 0 km/h
32 02-08-2021 02:35:00 13.6 C 11.3 g/m*3 13.6 C 0 km/h
33 02-08-2021 02:40:00 13.6 C 11.3 g/m*3 13.6 C 3.2 km/h
34 02-08-2021 02:45:00 13.6 C 11.3 g/m*3 13.6 C 3.2 km/h
35 02-08-2021 02:50:00 13.6 C 11.3 g/m*3 13.6 C 1.6 km/h
36 02-08-2021 02:55:00 13.6 C 11.3 g/m*3 13.6 C 3.2 km/h
37 02-08-2021 03:00:00 13.7 C 11.37 g/m*3 13.7 C 4.8 km/h
38 02-08-2021 03:05:00 13.7 C 11.37 g/m*3 13.7 C 4.8 km/h
39 02-08-2021 03:10:00 13.8 C 11.56 g/m*3 13.8 C 1.6 km/h
40 02-08-2021 03:15:00 13.9 C 11.63 g/m*3 13.9 C 3.2 km/h
41 02-08-2021 03:20:00 13.9 C 11.63 g/m*3 13.9 C 0 km/h
42 02-08-2021 03:25:00 13.9 C 11.51 g/m*3 13.9 C 0 km/h
43 02-08-2021 03:30:00 13.9 C 11.51 g/m*3 13.9 C 1.6 km/h
44 02-08-2021 03:35:00 14 C 11.58 g/m*3 14 C 1.6 km/h
45 02-08-2021 03:40:00 14.1 C 11.65 g/m*3 14.1 C 3.2 km/h
46 02-08-2021 03:45:00 14.1 C 11.65 g/m*3 14.1 C 1.6 km/h
47 02-08-2021 03:50:00 14.1 C 11.65 g/m*3 14.1 C 1.6 km/h
48 02-08-2021 03:55:00 14.1 C 11.77 g/m*3 14.1 C 3.2 km/h
49 02-08-2021 04:00:00 14.2 C 11.84 g/m*3 14.2 C 0 km/h
50 02-08-2021 04:05:00 14.2 C 11.84 g/m*3 14.2 C 3.2 km/h
Sensor: Nr:Datum:Temp:Abs-Feuchte:Windchill:Wind:
Aussen-T/F 51 02-08-2021 04:10:00 14.2 C 11.84 g/m*3 14.2 C 4.8 km/h
52 02-08-2021 04:15:00 14.2 C 11.72 g/m*3 14.2 C 3.2 km/h
53 02-08-2021 04:20:00 14.1 C 11.65 g/m*3 14.1 C 1.6 km/h
54 02-08-2021 04:25:00 14.1 C 11.65 g/m*3 14.1 C 0 km/h
55 02-08-2021 04:30:00 14 C 11.58 g/m*3 14 C 0 km/h
56 02-08-2021 04:35:00 14 C 11.58 g/m*3 14 C 1.6 km/h
57 02-08-2021 04:40:00 13.9 C 11.51 g/m*3 13.9 C 1.6 km/h
58 02-08-2021 04:45:00 13.9 C 11.51 g/m*3 13.9 C 0 km/h
59 02-08-2021 04:50:00 13.9 C 11.51 g/m*3 13.9 C 0 km/h
60 02-08-2021 04:55:00 13.9 C 11.51 g/m*3 13.9 C 0 km/h
61 02-08-2021 05:00:00 13.9 C 11.51 g/m*3 13.9 C 0 km/h
62 02-08-2021 05:05:00 13.9 C 11.51 g/m*3 13.9 C 1.6 km/h
63 02-08-2021 05:10:00 13.9 C 11.51 g/m*3 13.9 C 0 km/h
64 02-08-2021 05:15:00 13.9 C 11.51 g/m*3 13.9 C 4.8 km/h
65 02-08-2021 05:20:00 14 C 11.58 g/m*3 14 C 1.6 km/h
66 02-08-2021 05:25:00 14 C 11.58 g/m*3 14 C 4.8 km/h
67 02-08-2021 05:30:00 14 C 11.58 g/m*3 14 C 4.8 km/h
68 02-08-2021 05:35:00 14 C 11.58 g/m*3 14 C 3.2 km/h
69 02-08-2021 05:40:00 13.9 C 11.51 g/m*3 13.9 C 3.2 km/h
70 02-08-2021 05:45:00 13.9 C 11.51 g/m*3 13.9 C 1.6 km/h
71 02-08-2021 05:50:00 13.9 C 11.51 g/m*3 13.9 C 0 km/h
72 02-08-2021 05:55:00 13.9 C 11.51 g/m*3 13.9 C 6.4 km/h
73 02-08-2021 06:00:00 13.9 C 11.51 g/m*3 13.9 C 6.4 km/h
74 02-08-2021 06:05:00 13.9 C 11.51 g/m*3 13.9 C 3.2 km/h
75 02-08-2021 06:10:00 14 C 11.58 g/m*3 14 C 1.6 km/h
Sensor: Nr:Datum:Temp:Abs-Feuchte:Windchill:Wind:
Aussen-T/F 76 02-08-2021 06:15:00 14 C 11.58 g/m*3 14 C 0 km/h
77 02-08-2021 06:20:00 14 C 11.58 g/m*3 14 C 1.6 km/h
78 02-08-2021 06:25:00 14 C 11.58 g/m*3 14 C 0 km/h
79 02-08-2021 06:30:00 14 C 11.58 g/m*3 14 C 0 km/h
80 02-08-2021 06:35:00 14.1 C 11.65 g/m*3 14.1 C 0 km/h
81 02-08-2021 06:40:00 14 C 11.58 g/m*3 14 C 1.6 km/h
82 02-08-2021 06:45:00 14 C 11.58 g/m*3 14 C 1.6 km/h
83 02-08-2021 06:50:00 13.9 C 11.51 g/m*3 13.9 C 1.6 km/h
84 02-08-2021 06:55:00 13.9 C 11.51 g/m*3 13.9 C 1.6 km/h
85 02-08-2021 07:00:00 13.9 C 11.51 g/m*3 13.9 C 0 km/h
86 02-08-2021 07:05:00 13.9 C 11.51 g/m*3 13.9 C 0 km/h
87 02-08-2021 07:10:00 13.9 C 11.51 g/m*3 13.9 C 0 km/h
88 02-08-2021 07:15:00 13.9 C 11.51 g/m*3 13.9 C 1.6 km/h
89 02-08-2021 07:20:00 13.9 C 11.51 g/m*3 13.9 C 6.4 km/h
90 02-08-2021 07:25:00 14 C 11.58 g/m*3 14 C 9.7 km/h
91 02-08-2021 07:30:00 14.1 C 11.65 g/m*3 14.1 C 8.1 km/h
92 02-08-2021 07:35:00 14.2 C 11.72 g/m*3 14.2 C 9.7 km/h
93 02-08-2021 07:40:00 14.3 C 11.79 g/m*3 14.3 C 8.1 km/h
94 02-08-2021 07:45:00 14.3 C 11.79 g/m*3 14.3 C 6.4 km/h
95 02-08-2021 07:50:00 14.4 C 11.87 g/m*3 14.4 C 4.8 km/h
96 02-08-2021 07:55:00 14.5 C 11.82 g/m*3 14.5 C 4.8 km/h
97 02-08-2021 08:00:00 14.6 C 11.89 g/m*3 14.6 C 8.1 km/h
98 02-08-2021 08:05:00 14.7 C 11.96 g/m*3 14.7 C 6.4 km/h
99 02-08-2021 08:10:00 14.7 C 11.96 g/m*3 14.7 C 11.3 km/h
100 02-08-2021 08:15:00 14.8 C 11.91 g/m*3 14.8 C 11.3 km/h
Sensor: Nr:Datum:Temp:Abs-Feuchte:Windchill:Wind:
Aussen-T/F 101 02-08-2021 08:20:00 14.9 C 11.98 g/m*3 14.9 C 4.8 km/h
102 02-08-2021 08:25:00 15.1 C 12.13 g/m*3 15.1 C 8.1 km/h
103 02-08-2021 08:30:00 15.2 C 12.07 g/m*3 15.2 C 6.4 km/h
104 02-08-2021 08:35:00 15.2 C 12.07 g/m*3 15.2 C 4.8 km/h
105 02-08-2021 08:40:00 15.3 C 12.01 g/m*3 15.3 C 6.4 km/h
106 02-08-2021 08:45:00 15.4 C 12.22 g/m*3 15.4 C 3.2 km/h
107 02-08-2021 08:50:00 15.4 C 12.09 g/m*3 15.4 C 1.6 km/h
108 02-08-2021 08:55:00 15.5 C 12.16 g/m*3 15.5 C 3.2 km/h
109 02-08-2021 09:00:00 15.6 C 12.1 g/m*3 15.6 C 4.8 km/h
110 02-08-2021 09:05:00 15.7 C 12.18 g/m*3 15.7 C 3.2 km/h
111 02-08-2021 09:10:00 15.7 C 12.18 g/m*3 15.7 C 1.6 km/h
112 02-08-2021 09:15:00 15.8 C 12.11 g/m*3 15.8 C 3.2 km/h
113 02-08-2021 09:20:00 15.9 C 12.19 g/m*3 15.9 C 4.8 km/h
114 02-08-2021 09:25:00 16.1 C 12.34 g/m*3 16.1 C 4.8 km/h
115 02-08-2021 09:30:00 16.1 C 12.2 g/m*3 16.1 C 6.4 km/h
116 02-08-2021 09:35:00 16.1 C 12.2 g/m*3 16.1 C 3.2 km/h
117 02-08-2021 09:40:00 16.1 C 12.2 g/m*3 16.1 C 0 km/h
118 02-08-2021 09:45:00 16.1 C 12.34 g/m*3 16.1 C 0 km/h
119 02-08-2021 09:50:00 16.1 C 12.34 g/m*3 16.1 C 1.6 km/h
120 02-08-2021 09:55:00 16.1 C 12.2 g/m*3 16.1 C 4.8 km/h
121 02-08-2021 10:00:00 16.2 C 12.27 g/m*3 16.2 C 4.8 km/h
122 02-08-2021 10:05:00 16.3 C 12.21 g/m*3 16.3 C 8.1 km/h
123 02-08-2021 10:10:00 16.3 C 12.21 g/m*3 16.3 C 6.4 km/h
124 02-08-2021 10:15:00 16.4 C 12.28 g/m*3 16.4 C 1.6 km/h
125 02-08-2021 10:20:00 16.4 C 12.28 g/m*3 16.4 C 1.6 km/h
Sensor: Nr:Datum:Temp:Abs-Feuchte:Windchill:Wind:
Aussen-T/F 126 02-08-2021 10:25:00 16.4 C 12.14 g/m*3 16.4 C 6.4 km/h
127 02-08-2021 10:30:00 16.4 C 12.14 g/m*3 16.4 C 4.8 km/h
128 02-08-2021 10:35:00 16.4 C 12.14 g/m*3 16.4 C 4.8 km/h
129 02-08-2021 10:40:00 16.5 C 12.36 g/m*3 16.5 C 1.6 km/h
130 02-08-2021 10:45:00 16.6 C 12.29 g/m*3 16.6 C 3.2 km/h
131 02-08-2021 10:50:00 16.7 C 12.36 g/m*3 16.7 C 3.2 km/h
132 02-08-2021 10:55:00 16.8 C 12.44 g/m*3 16.8 C 4.8 km/h
133 02-08-2021 11:00:00 17 C 12.44 g/m*3 17 C 6.4 km/h
134 02-08-2021 11:05:00 17.3 C 12.52 g/m*3 17.3 C 8.1 km/h
135 02-08-2021 11:10:00 17.7 C 12.82 g/m*3 17.7 C 4.8 km/h
136 02-08-2021 11:15:00 17.9 C 12.83 g/m*3 17.9 C 6.4 km/h
137 02-08-2021 11:20:00 18.2 C 12.9 g/m*3 18.2 C 6.4 km/h
138 02-08-2021 11:25:00 18.3 C 12.82 g/m*3 18.3 C 6.4 km/h
139 02-08-2021 11:30:00 18.4 C 13.21 g/m*3 18.4 C 3.2 km/h
140 02-08-2021 11:35:00 18.6 C 13.05 g/m*3 18.6 C 9.7 km/h
141 02-08-2021 11:40:00 18.7 C 12.97 g/m*3 18.7 C 8.1 km/h
142 02-08-2021 11:45:00 18.8 C 13.05 g/m*3 18.8 C 12.9 km/h
143 02-08-2021 11:50:00 18.7 C 12.97 g/m*3 18.7 C 8.1 km/h
144 02-08-2021 11:55:00 18.6 C 13.21 g/m*3 18.6 C 3.2 km/h
145 02-08-2021 12:00:00 18.6 C 13.69 g/m*3 18.6 C 0 km/h
146 02-08-2021 12:05:00 18.6 C 13.53 g/m*3 18.6 C 4.8 km/h
147 02-08-2021 12:10:00 18.6 C 13.85 g/m*3 18.6 C 0 km/h
148 02-08-2021 12:15:00 18.6 C 13.69 g/m*3 18.6 C 11.3 km/h
149 02-08-2021 12:20:00 18.6 C 13.21 g/m*3 18.6 C 6.4 km/h
150 02-08-2021 12:25:00 18.7 C 13.61 g/m*3 18.7 C 3.2 km/h
Sensor: Nr:Datum:Temp:Abs-Feuchte:Windchill:Wind:
Aussen-T/F 151 02-08-2021 12:30:00 19.1 C 13.61 g/m*3 19.1 C 14.5 km/h
152 02-08-2021 12:35:00 19.2 C 13.19 g/m*3 19.2 C 14.5 km/h
153 02-08-2021 12:40:00 19.3 C 13.27 g/m*3 19.3 C 11.3 km/h
154 02-08-2021 12:45:00 19.3 C 12.94 g/m*3 19.3 C 8.1 km/h
155 02-08-2021 12:50:00 19.1 C 12.79 g/m*3 19.1 C 9.7 km/h
156 02-08-2021 12:55:00 18.8 C 12.72 g/m*3 18.8 C 4.8 km/h
157 02-08-2021 13:00:00 18.6 C 12.89 g/m*3 18.6 C 6.4 km/h
158 02-08-2021 13:05:00 18.3 C 12.66 g/m*3 18.3 C 11.3 km/h
159 02-08-2021 13:10:00 18.2 C 12.75 g/m*3 18.2 C 3.2 km/h
160 02-08-2021 13:15:00 18.1 C 12.98 g/m*3 18.1 C 6.4 km/h
161 02-08-2021 13:20:00 18.1 C 13.13 g/m*3 18.1 C 8.1 km/h
162 02-08-2021 13:25:00 17.9 C 12.98 g/m*3 17.9 C 4.8 km/h
163 02-08-2021 13:30:00 17.9 C 13.13 g/m*3 17.9 C 4.8 km/h
164 02-08-2021 13:35:00 17.9 C 12.83 g/m*3 17.9 C 9.7 km/h
165 02-08-2021 13:40:00 18.1 C 12.98 g/m*3 18.1 C 6.4 km/h
166 02-08-2021 13:45:00 18.3 C 13.13 g/m*3 18.3 C 12.9 km/h
167 02-08-2021 13:50:00 18.6 C 13.21 g/m*3 18.6 C 11.3 km/h
168 02-08-2021 13:55:00 18.5 C 13.13 g/m*3 18.5 C 9.7 km/h
169 02-08-2021 14:00:00 18.4 C 13.05 g/m*3 18.4 C 8.1 km/h
170 02-08-2021 14:05:00 18.4 C 13.05 g/m*3 18.4 C 3.2 km/h
171 02-08-2021 14:10:00 18.3 C 12.82 g/m*3 18.3 C 1.6 km/h
172 02-08-2021 14:15:00 18.3 C 13.13 g/m*3 18.3 C 4.8 km/h
173 02-08-2021 14:20:00 18.3 C 13.45 g/m*3 18.3 C 1.6 km/h
174 02-08-2021 14:25:00 18.3 C 13.29 g/m*3 18.3 C 4.8 km/h
175 02-08-2021 14:30:00 18.3 C 13.29 g/m*3 18.3 C 6.4 km/h
Sensor: Nr:Datum:Temp:Abs-Feuchte:Windchill:Wind:
Aussen-T/F 176 02-08-2021 14:35:00 18.4 C 13.21 g/m*3 18.4 C 9.7 km/h
177 02-08-2021 14:40:00 18.5 C 13.29 g/m*3 18.5 C 6.4 km/h
178 02-08-2021 14:45:00 18.4 C 13.37 g/m*3 18.4 C 11.3 km/h
179 02-08-2021 14:50:00 18.3 C 13.45 g/m*3 18.3 C 9.7 km/h
180 02-08-2021 14:55:00 17.9 C 13.28 g/m*3 17.9 C 3.2 km/h
181 02-08-2021 15:00:00 17.8 C 13.51 g/m*3 17.8 C 1.6 km/h
182 02-08-2021 15:05:00 17.8 C 13.66 g/m*3 17.8 C 3.2 km/h
183 02-08-2021 15:10:00 17.7 C 13.58 g/m*3 17.7 C 6.4 km/h
184 02-08-2021 15:15:00 17.6 C 13.65 g/m*3 17.6 C 4.8 km/h
185 02-08-2021 15:20:00 17.4 C 13.49 g/m*3 17.4 C 4.8 km/h
186 02-08-2021 15:25:00 17.3 C 13.41 g/m*3 17.3 C 1.6 km/h
187 02-08-2021 15:30:00 17.2 C 13.47 g/m*3 17.2 C 1.6 km/h
188 02-08-2021 15:35:00 17.1 C 13.25 g/m*3 17.1 C 0 km/h
189 02-08-2021 15:40:00 16.9 C 13.23 g/m*3 16.9 C 1.6 km/h
190 02-08-2021 15:45:00 16.9 C 13.23 g/m*3 16.9 C 3.2 km/h
191 02-08-2021 15:50:00 16.8 C 13.15 g/m*3 16.8 C 0 km/h
192 02-08-2021 15:55:00 16.8 C 13.15 g/m*3 16.8 C 1.6 km/h
193 02-08-2021 16:00:00 16.6 C 13 g/m*3 16.6 C 4.8 km/h
194 02-08-2021 16:05:00 16.5 C 13.06 g/m*3 16.5 C 3.2 km/h
195 02-08-2021 16:10:00 16.4 C 12.98 g/m*3 16.4 C 1.6 km/h
196 02-08-2021 16:15:00 16.3 C 12.9 g/m*3 16.3 C 3.2 km/h
197 02-08-2021 16:20:00 16.3 C 12.9 g/m*3 16.3 C 4.8 km/h
198 02-08-2021 16:25:00 16.3 C 13.04 g/m*3 16.3 C 4.8 km/h
199 02-08-2021 16:30:00 16.2 C 12.82 g/m*3 16.2 C 1.6 km/h
200 02-08-2021 16:35:00 16.6 C 13.42 g/m*3 16.6 C 1.6 km/h
Sensor: Nr:Datum:Temp:Abs-Feuchte:Windchill:Wind:
Aussen-T/F 201 02-08-2021 16:40:00 16.8 C 13.58 g/m*3 16.8 C 1.6 km/h
202 02-08-2021 16:45:00 16.9 C 13.66 g/m*3 16.9 C 1.6 km/h
203 02-08-2021 16:50:00 17 C 13.6 g/m*3 17 C 1.6 km/h
204 02-08-2021 16:55:00 17 C 13.6 g/m*3 17 C 0 km/h
205 02-08-2021 17:00:00 17.1 C 13.68 g/m*3 17.1 C 0 km/h
206 02-08-2021 17:05:00 17.5 C 14.16 g/m*3 17.5 C 0 km/h
207 02-08-2021 17:10:00 17.7 C 14.18 g/m*3 17.7 C 1.6 km/h
208 02-08-2021 17:15:00 18 C 14.59 g/m*3 18 C 3.2 km/h
209 02-08-2021 17:20:00 18.3 C 14.7 g/m*3 18.3 C 1.6 km/h
210 02-08-2021 17:25:00 18.6 C 14.8 g/m*3 18.6 C 1.6 km/h
211 02-08-2021 17:30:00 18.7 C 14.73 g/m*3 18.7 C 0 km/h
212 02-08-2021 17:35:00 18.8 C 14.82 g/m*3 18.8 C 0 km/h
213 02-08-2021 17:40:00 18.8 C 14.82 g/m*3 18.8 C 0 km/h
214 02-08-2021 17:45:00 18.9 C 14.9 g/m*3 18.9 C 0 km/h
215 02-08-2021 17:50:00 18.8 C 14.66 g/m*3 18.8 C 0 km/h
216 02-08-2021 17:55:00 18.6 C 14.17 g/m*3 18.6 C 3.2 km/h
217 02-08-2021 18:00:00 18.2 C 13.68 g/m*3 18.2 C 1.6 km/h
218 02-08-2021 18:05:00 17.9 C 13.13 g/m*3 17.9 C 14.5 km/h
219 02-08-2021 18:10:00 17.4 C 13.04 g/m*3 17.4 C 11.3 km/h
220 02-08-2021 18:15:00 17.4 C 13.19 g/m*3 17.4 C 11.3 km/h
221 02-08-2021 18:20:00 17.4 C 13.19 g/m*3 17.4 C 3.2 km/h
222 02-08-2021 18:25:00 17.6 C 13.2 g/m*3 17.6 C 4.8 km/h
223 02-08-2021 18:30:00 17.6 C 13.2 g/m*3 17.6 C 4.8 km/h
224 02-08-2021 18:35:00 17.8 C 13.66 g/m*3 17.8 C 6.4 km/h
225 02-08-2021 18:40:00 17.9 C 13.74 g/m*3 17.9 C 6.4 km/h
Sensor: Nr:Datum:Temp:Abs-Feuchte:Windchill:Wind:
Aussen-T/F 226 02-08-2021 18:45:00 18.2 C 14.14 g/m*3 18.2 C 6.4 km/h
227 02-08-2021 18:50:00 18.6 C 14.48 g/m*3 18.6 C 1.6 km/h
228 02-08-2021 18:55:00 18.8 C 14.49 g/m*3 18.8 C 4.8 km/h
229 02-08-2021 19:00:00 19.1 C 14.59 g/m*3 19.1 C 0 km/h
230 02-08-2021 19:05:00 19.1 C 13.93 g/m*3 19.1 C 0 km/h
231 02-08-2021 19:10:00 18.9 C 14.09 g/m*3 18.9 C 0 km/h
232 02-08-2021 19:15:00 18.9 C 14.26 g/m*3 18.9 C 0 km/h
233 02-08-2021 19:20:00 18.9 C 14.26 g/m*3 18.9 C 0 km/h
234 02-08-2021 19:25:00 18.8 C 14.17 g/m*3 18.8 C 0 km/h
235 02-08-2021 19:30:00 18.8 C 14.33 g/m*3 18.8 C 0 km/h
236 02-08-2021 19:35:00 18.8 C 14.33 g/m*3 18.8 C 0 km/h
237 02-08-2021 19:40:00 18.6 C 13.85 g/m*3 18.6 C 0 km/h
238 02-08-2021 19:45:00 18.4 C 13.53 g/m*3 18.4 C 6.4 km/h
239 02-08-2021 19:50:00 18.3 C 13.29 g/m*3 18.3 C 3.2 km/h
240 02-08-2021 19:55:00 18.1 C 13.29 g/m*3 18.1 C 1.6 km/h
241 02-08-2021 20:00:00 18.1 C 13.29 g/m*3 18.1 C 1.6 km/h
242 02-08-2021 20:05:00 18 C 13.36 g/m*3 18 C 0 km/h
243 02-08-2021 20:10:00 18.1 C 13.6 g/m*3 18.1 C 0 km/h
244 02-08-2021 20:15:00 18.2 C 13.83 g/m*3 18.2 C 0 km/h
245 02-08-2021 20:20:00 18.1 C 13.75 g/m*3 18.1 C 0 km/h
246 02-08-2021 20:25:00 18.1 C 13.75 g/m*3 18.1 C 0 km/h
247 02-08-2021 20:30:00 17.8 C 13.36 g/m*3 17.8 C 0 km/h
248 02-08-2021 20:35:00 17.6 C 13.2 g/m*3 17.6 C 4.8 km/h
249 02-08-2021 20:40:00 17.3 C 13.11 g/m*3 17.3 C 4.8 km/h
250 02-08-2021 20:45:00 17 C 12.88 g/m*3 17 C 6.4 km/h
Sensor: Nr:Datum:Temp:Abs-Feuchte:Windchill:Wind:
Aussen-T/F 251 02-08-2021 20:50:00 16.7 C 12.79 g/m*3 16.7 C 8.1 km/h
252 02-08-2021 20:55:00 16.4 C 12.56 g/m*3 16.4 C 8.1 km/h
253 02-08-2021 21:00:00 16.2 C 12.41 g/m*3 16.2 C 9.7 km/h
254 02-08-2021 21:05:00 16 C 12.4 g/m*3 16 C 8.1 km/h
255 02-08-2021 21:10:00 15.8 C 12.25 g/m*3 15.8 C 8.1 km/h
256 02-08-2021 21:15:00 15.6 C 12.23 g/m*3 15.6 C 8.1 km/h
257 02-08-2021 21:20:00 15.4 C 12.09 g/m*3 15.4 C 8.1 km/h
258 02-08-2021 21:25:00 15.3 C 12.01 g/m*3 15.3 C 8.1 km/h
259 02-08-2021 21:30:00 15.1 C 12 g/m*3 15.1 C 6.4 km/h
260 02-08-2021 21:35:00 15 C 11.93 g/m*3 15 C 6.4 km/h
261 02-08-2021 21:40:00 14.9 C 11.85 g/m*3 14.9 C 4.8 km/h
262 02-08-2021 21:45:00 14.8 C 11.78 g/m*3 14.8 C 6.4 km/h
263 02-08-2021 21:50:00 14.7 C 11.71 g/m*3 14.7 C 6.4 km/h
264 02-08-2021 21:55:00 14.6 C 11.64 g/m*3 14.6 C 3.2 km/h
265 02-08-2021 22:00:00 14.6 C 11.76 g/m*3 14.6 C 8.1 km/h
266 02-08-2021 22:05:00 14.5 C 11.69 g/m*3 14.5 C 6.4 km/h
267 02-08-2021 22:10:00 14.4 C 11.62 g/m*3 14.4 C 3.2 km/h
268 02-08-2021 22:15:00 14.4 C 11.62 g/m*3 14.4 C 3.2 km/h
269 02-08-2021 22:20:00 14.3 C 11.55 g/m*3 14.3 C 4.8 km/h
270 02-08-2021 22:25:00 14.3 C 11.55 g/m*3 14.3 C 6.4 km/h
271 02-08-2021 22:30:00 14.2 C 11.48 g/m*3 14.2 C 6.4 km/h
272 02-08-2021 22:35:00 14.2 C 11.48 g/m*3 14.2 C 4.8 km/h
273 02-08-2021 22:40:00 14.1 C 11.41 g/m*3 14.1 C 3.2 km/h
274 02-08-2021 22:45:00 14.1 C 11.41 g/m*3 14.1 C 1.6 km/h
275 02-08-2021 22:50:00 14.1 C 11.41 g/m*3 14.1 C 0 km/h
Sensor: Nr:Datum:Temp:Abs-Feuchte:Windchill:Wind:
Aussen-T/F 276 02-08-2021 22:55:00 14.1 C 11.41 g/m*3 14.1 C 0 km/h
277 02-08-2021 23:00:00 14.1 C 11.53 g/m*3 14.1 C 0 km/h
278 02-08-2021 23:05:00 14 C 11.46 g/m*3 14 C 0 km/h
279 02-08-2021 23:10:00 14 C 11.46 g/m*3 14 C 0 km/h
280 02-08-2021 23:15:00 14 C 11.46 g/m*3 14 C 0 km/h
281 02-08-2021 23:20:00 14 C 11.46 g/m*3 14 C 0 km/h
282 02-08-2021 23:25:00 14 C 11.46 g/m*3 14 C 0 km/h
283 02-08-2021 23:30:00 14 C 11.46 g/m*3 14 C 0 km/h
284 02-08-2021 23:35:00 14 C 11.46 g/m*3 14 C 0 km/h
285 02-08-2021 23:40:00 13.9 C 11.39 g/m*3 13.9 C 0 km/h
286 02-08-2021 23:45:00 13.9 C 11.39 g/m*3 13.9 C 3.2 km/h
287 02-08-2021 23:50:00 13.8 C 11.32 g/m*3 13.8 C 3.2 km/h
288 02-08-2021 23:55:00 13.8 C 11.32 g/m*3 13.8 C 0 km/h
289 03-08-2021 00:00:00 13.8 C 11.32 g/m*3 13.8 C 4.8 km/h
290 03-08-2021 00:05:00 13.8 C 11.32 g/m*3 13.8 C 0 km/h
291 03-08-2021 00:10:00 13.7 C 11.25 g/m*3 13.7 C 0 km/h
292 03-08-2021 00:15:00 13.7 C 11.25 g/m*3 13.7 C 0 km/h
293 03-08-2021 00:20:00 13.6 C 11.18 g/m*3 13.6 C 0 km/h
294 03-08-2021 00:25:00 13.6 C 11.18 g/m*3 13.6 C 0 km/h
295 03-08-2021 00:30:00 13.5 C 11.11 g/m*3 13.5 C 0 km/h
296 03-08-2021 00:35:00 13.4 C 11.04 g/m*3 13.4 C 0 km/h
297 03-08-2021 00:40:00 13.4 C 11.04 g/m*3 13.4 C 0 km/h
298 03-08-2021 00:45:00 13.4 C 11.04 g/m*3 13.4 C 0 km/h
299 03-08-2021 00:50:00 13.3 C 10.98 g/m*3 13.3 C 0 km/h
300 03-08-2021 00:55:00 13.3 C 10.98 g/m*3 13.3 C 0 km/h
Sensor: Nr:Datum:Temp:Abs-Feuchte:Windchill:Wind:
Aussen-T/F 301 03-08-2021 01:00:00 13.2 C 10.91 g/m*3 13.2 C 0 km/h
302 03-08-2021 01:05:00 13.2 C 10.91 g/m*3 13.2 C 0 km/h
303 03-08-2021 01:10:00 13.1 C 10.84 g/m*3 13.1 C 0 km/h
304 03-08-2021 01:15:00 13.1 C 10.84 g/m*3 13.1 C 0 km/h
305 03-08-2021 01:20:00 13 C 10.77 g/m*3 13 C 0 km/h
306 03-08-2021 01:25:00 13 C 10.77 g/m*3 13 C 0 km/h
307 03-08-2021 01:30:00 12.9 C 10.82 g/m*3 12.9 C 0 km/h
308 03-08-2021 01:35:00 12.9 C 10.82 g/m*3 12.9 C 0 km/h
309 03-08-2021 01:40:00 12.9 C 10.82 g/m*3 12.9 C 0 km/h
310 03-08-2021 01:45:00 12.9 C 10.82 g/m*3 12.9 C 0 km/h
311 03-08-2021 01:50:00 12.8 C 10.64 g/m*3 12.8 C 0 km/h
312 03-08-2021 01:55:00 12.8 C 10.64 g/m*3 12.8 C 0 km/h
313 03-08-2021 02:00:00 12.8 C 10.75 g/m*3 12.8 C 0 km/h
314 03-08-2021 02:05:00 12.8 C 10.75 g/m*3 12.8 C 0 km/h
315 03-08-2021 02:10:00 12.8 C 10.75 g/m*3 12.8 C 0 km/h
316 03-08-2021 02:15:00 12.8 C 10.75 g/m*3 12.8 C 0 km/h
317 03-08-2021 02:20:00 12.9 C 10.82 g/m*3 12.9 C 0 km/h
318 03-08-2021 02:25:00 12.9 C 10.82 g/m*3 12.9 C 0 km/h
319 03-08-2021 02:30:00 12.9 C 10.82 g/m*3 12.9 C 0 km/h
320 03-08-2021 02:35:00 12.9 C 10.82 g/m*3 12.9 C 0 km/h
321 03-08-2021 02:40:00 13 C 10.89 g/m*3 13 C 0 km/h
322 03-08-2021 02:45:00 13 C 10.89 g/m*3 13 C 0 km/h
323 03-08-2021 02:50:00 13.1 C 10.95 g/m*3 13.1 C 0 km/h
324 03-08-2021 02:55:00 13.1 C 10.95 g/m*3 13.1 C 0 km/h
325 03-08-2021 03:00:00 13.1 C 10.95 g/m*3 13.1 C 0 km/h
Sensor: Nr:Datum:Temp:Abs-Feuchte:Windchill:Wind:
Aussen-T/F 326 03-08-2021 03:05:00 13.1 C 10.95 g/m*3 13.1 C 0 km/h
327 03-08-2021 03:10:00 13.1 C 10.95 g/m*3 13.1 C 0 km/h
328 03-08-2021 03:15:00 13.1 C 10.95 g/m*3 13.1 C 0 km/h
329 03-08-2021 03:20:00 13.1 C 10.95 g/m*3 13.1 C 0 km/h
330 03-08-2021 03:25:00 13.1 C 10.95 g/m*3 13.1 C 0 km/h
331 03-08-2021 03:30:00 13.1 C 10.95 g/m*3 13.1 C 0 km/h
332 03-08-2021 03:35:00 13.1 C 10.95 g/m*3 13.1 C 0 km/h
333 03-08-2021 03:40:00 13.1 C 10.95 g/m*3 13.1 C 0 km/h
334 03-08-2021 03:45:00 13.1 C 10.95 g/m*3 13.1 C 0 km/h
335 03-08-2021 03:50:00 13.1 C 10.95 g/m*3 13.1 C 0 km/h
336 03-08-2021 03:55:00 13.1 C 10.95 g/m*3 13.1 C 0 km/h
337 03-08-2021 04:00:00 13.2 C 11.02 g/m*3 13.2 C 0 km/h
338 03-08-2021 04:05:00 13.2 C 11.14 g/m*3 13.2 C 0 km/h
339 03-08-2021 04:10:00 13.2 C 11.14 g/m*3 13.2 C 0 km/h
340 03-08-2021 04:15:00 13.2 C 11.02 g/m*3 13.2 C 0 km/h
341 03-08-2021 04:20:00 13.3 C 11.09 g/m*3 13.3 C 0 km/h
342 03-08-2021 04:25:00 13.3 C 11.09 g/m*3 13.3 C 0 km/h
343 03-08-2021 04:30:00 13.3 C 11.09 g/m*3 13.3 C 0 km/h
344 03-08-2021 04:35:00 13.3 C 11.09 g/m*3 13.3 C 0 km/h
345 03-08-2021 04:40:00 13.3 C 11.09 g/m*3 13.3 C 0 km/h
346 03-08-2021 04:45:00 13.3 C 11.09 g/m*3 13.3 C 0 km/h
347 03-08-2021 04:50:00 13.3 C 11.09 g/m*3 13.3 C 0 km/h
348 03-08-2021 04:55:00 13.3 C 11.09 g/m*3 13.3 C 0 km/h
349 03-08-2021 05:00:00 13.3 C 11.09 g/m*3 13.3 C 0 km/h
350 03-08-2021 05:05:00 13.3 C 11.09 g/m*3 13.3 C 0 km/h
Sensor: Nr:Datum:Temp:Abs-Feuchte:Windchill:Wind:
Aussen-T/F 351 03-08-2021 05:10:00 13.3 C 11.09 g/m*3 13.3 C 0 km/h
352 03-08-2021 05:15:00 13.3 C 11.09 g/m*3 13.3 C 0 km/h
353 03-08-2021 05:20:00 13.3 C 11.09 g/m*3 13.3 C 0 km/h
354 03-08-2021 05:25:00 13.3 C 11.09 g/m*3 13.3 C 0 km/h
355 03-08-2021 05:30:00 13.4 C 11.28 g/m*3 13.4 C 0 km/h
356 03-08-2021 05:35:00 13.4 C 11.28 g/m*3 13.4 C 0 km/h
357 03-08-2021 05:40:00 13.4 C 11.28 g/m*3 13.4 C 0 km/h
358 03-08-2021 05:45:00 13.4 C 11.28 g/m*3 13.4 C 0 km/h
359 03-08-2021 05:50:00 13.4 C 11.28 g/m*3 13.4 C 0 km/h
360 03-08-2021 05:55:00 13.4 C 11.28 g/m*3 13.4 C 0 km/h
361 03-08-2021 06:00:00 13.5 C 11.35 g/m*3 13.5 C 0 km/h
362 03-08-2021 06:05:00 13.5 C 11.35 g/m*3 13.5 C 0 km/h
363 03-08-2021 06:10:00 13.6 C 11.42 g/m*3 13.6 C 0 km/h
364 03-08-2021 06:15:00 13.6 C 11.42 g/m*3 13.6 C 0 km/h
365 03-08-2021 06:20:00 13.6 C 11.42 g/m*3 13.6 C 0 km/h
366 03-08-2021 06:25:00 13.6 C 11.42 g/m*3 13.6 C 0 km/h
367 03-08-2021 06:30:00 13.6 C 11.42 g/m*3 13.6 C 0 km/h
368 03-08-2021 06:35:00 13.6 C 11.42 g/m*3 13.6 C 0 km/h
369 03-08-2021 06:40:00 13.6 C 11.42 g/m*3 13.6 C 0 km/h
370 03-08-2021 06:45:00 13.7 C 11.49 g/m*3 13.7 C 0 km/h
371 03-08-2021 06:50:00 13.7 C 11.49 g/m*3 13.7 C 0 km/h
372 03-08-2021 06:55:00 13.7 C 11.49 g/m*3 13.7 C 0 km/h
373 03-08-2021 07:00:00 13.8 C 11.56 g/m*3 13.8 C 0 km/h
374 03-08-2021 07:05:00 13.8 C 11.56 g/m*3 13.8 C 0 km/h
375 03-08-2021 07:10:00 13.9 C 11.63 g/m*3 13.9 C 0 km/h
Sensor: Nr:Datum:Temp:Abs-Feuchte:Windchill:Wind:
Aussen-T/F 376 03-08-2021 07:15:00 14 C 11.7 g/m*3 14 C 0 km/h
377 03-08-2021 07:20:00 14 C 11.7 g/m*3 14 C 0 km/h
378 03-08-2021 07:25:00 14.1 C 11.77 g/m*3 14.1 C 0 km/h
379 03-08-2021 07:30:00 14.1 C 11.77 g/m*3 14.1 C 0 km/h
380 03-08-2021 07:35:00 14.2 C 11.84 g/m*3 14.2 C 0 km/h
381 03-08-2021 07:40:00 14.2 C 11.84 g/m*3 14.2 C 0 km/h
382 03-08-2021 07:45:00 14.3 C 11.92 g/m*3 14.3 C 1.6 km/h
383 03-08-2021 07:50:00 14.3 C 11.92 g/m*3 14.3 C 1.6 km/h
384 03-08-2021 07:55:00 14.4 C 11.99 g/m*3 14.4 C 0 km/h
385 03-08-2021 08:00:00 14.5 C 12.06 g/m*3 14.5 C 0 km/h
386 03-08-2021 08:05:00 14.5 C 12.06 g/m*3 14.5 C 0 km/h
387 03-08-2021 08:10:00 14.6 C 12.14 g/m*3 14.6 C 0 km/h
388 03-08-2021 08:15:00 14.6 C 12.14 g/m*3 14.6 C 0 km/h
389 03-08-2021 08:20:00 14.6 C 12.14 g/m*3 14.6 C 0 km/h
390 03-08-2021 08:25:00 14.7 C 12.21 g/m*3 14.7 C 0 km/h
391 03-08-2021 08:30:00 14.7 C 12.21 g/m*3 14.7 C 0 km/h
392 03-08-2021 08:35:00 14.7 C 12.21 g/m*3 14.7 C 0 km/h
393 03-08-2021 08:40:00 14.7 C 12.21 g/m*3 14.7 C 0 km/h
394 03-08-2021 08:45:00 14.7 C 12.21 g/m*3 14.7 C 0 km/h
395 03-08-2021 08:50:00 14.8 C 12.29 g/m*3 14.8 C 0 km/h
396 03-08-2021 08:55:00 14.9 C 12.36 g/m*3 14.9 C 0 km/h
397 03-08-2021 09:00:00 14.9 C 12.36 g/m*3 14.9 C 0 km/h
398 03-08-2021 09:05:00 14.9 C 12.36 g/m*3 14.9 C 0 km/h
399 03-08-2021 09:10:00 14.9 C 12.36 g/m*3 14.9 C 0 km/h
400 03-08-2021 09:15:00 15 C 12.44 g/m*3 15 C 0 km/h
Sensor: Nr:Datum:Temp:Abs-Feuchte:Windchill:Wind:
Aussen-T/F 401 03-08-2021 09:20:00 15 C 12.44 g/m*3 15 C 0 km/h
402 03-08-2021 09:25:00 15 C 12.44 g/m*3 15 C 0 km/h
403 03-08-2021 09:30:00 14.9 C 12.36 g/m*3 14.9 C 4.8 km/h
404 03-08-2021 09:35:00 14.8 C 12.29 g/m*3 14.8 C 0 km/h
405 03-08-2021 09:40:00 14.8 C 12.29 g/m*3 14.8 C 0 km/h
406 03-08-2021 09:45:00 14.8 C 12.29 g/m*3 14.8 C 0 km/h
407 03-08-2021 09:50:00 14.8 C 12.29 g/m*3 14.8 C 0 km/h
408 03-08-2021 09:55:00 14.8 C 12.29 g/m*3 14.8 C 1.6 km/h
409 03-08-2021 10:00:00 14.8 C 12.29 g/m*3 14.8 C 0 km/h
410 03-08-2021 10:05:00 14.8 C 12.29 g/m*3 14.8 C 0 km/h
411 03-08-2021 10:10:00 14.9 C 12.36 g/m*3 14.9 C 0 km/h
412 03-08-2021 10:15:00 14.9 C 12.36 g/m*3 14.9 C 0 km/h
413 03-08-2021 10:20:00 15.1 C 12.51 g/m*3 15.1 C 0 km/h
414 03-08-2021 10:25:00 15.1 C 12.51 g/m*3 15.1 C 0 km/h
415 03-08-2021 10:30:00 15.2 C 12.59 g/m*3 15.2 C 0 km/h
416 03-08-2021 10:35:00 15.3 C 12.67 g/m*3 15.3 C 0 km/h
417 03-08-2021 10:40:00 15.4 C 12.74 g/m*3 15.4 C 1.6 km/h
418 03-08-2021 10:45:00 15.5 C 12.82 g/m*3 15.5 C 0 km/h
419 03-08-2021 10:50:00 15.6 C 12.9 g/m*3 15.6 C 0 km/h
420 03-08-2021 10:55:00 15.7 C 12.98 g/m*3 15.7 C 1.6 km/h
421 03-08-2021 11:00:00 15.6 C 12.9 g/m*3 15.6 C 0 km/h
422 03-08-2021 11:05:00 15.6 C 12.9 g/m*3 15.6 C 0 km/h
423 03-08-2021 11:10:00 15.6 C 12.9 g/m*3 15.6 C 1.6 km/h
424 03-08-2021 11:15:00 15.6 C 12.9 g/m*3 15.6 C 1.6 km/h
425 03-08-2021 11:20:00 15.6 C 12.9 g/m*3 15.6 C 1.6 km/h
Sensor: Nr:Datum:Temp:Abs-Feuchte:Windchill:Wind:
Aussen-T/F 426 03-08-2021 11:25:00 15.7 C 12.98 g/m*3 15.7 C 0 km/h
427 03-08-2021 11:30:00 15.9 C 13.14 g/m*3 15.9 C 0 km/h
428 03-08-2021 11:35:00 16 C 13.22 g/m*3 16 C 0 km/h
429 03-08-2021 11:40:00 16.1 C 13.16 g/m*3 16.1 C 1.6 km/h
430 03-08-2021 11:45:00 16.2 C 13.38 g/m*3 16.2 C 1.6 km/h
431 03-08-2021 11:50:00 16.3 C 13.32 g/m*3 16.3 C 0 km/h
432 03-08-2021 11:55:00 16.3 C 13.32 g/m*3 16.3 C 3.2 km/h
433 03-08-2021 12:00:00 16.5 C 13.48 g/m*3 16.5 C 3.2 km/h
434 03-08-2021 12:05:00 16.6 C 13.56 g/m*3 16.6 C 0 km/h
435 03-08-2021 12:10:00 16.7 C 13.64 g/m*3 16.7 C 1.6 km/h
436 03-08-2021 12:15:00 16.6 C 13.42 g/m*3 16.6 C 0 km/h
437 03-08-2021 12:20:00 16.6 C 13.42 g/m*3 16.6 C 1.6 km/h
438 03-08-2021 12:25:00 16.6 C 13.28 g/m*3 16.6 C 3.2 km/h
439 03-08-2021 12:30:00 16.6 C 13.28 g/m*3 16.6 C 4.8 km/h
440 03-08-2021 12:35:00 16.7 C 13.36 g/m*3 16.7 C 1.6 km/h
441 03-08-2021 12:40:00 16.8 C 13.58 g/m*3 16.8 C 0 km/h
442 03-08-2021 12:45:00 17 C 13.6 g/m*3 17 C 4.8 km/h
443 03-08-2021 12:50:00 17.1 C 13.39 g/m*3 17.1 C 12.9 km/h
444 03-08-2021 12:55:00 17.1 C 13.25 g/m*3 17.1 C 8.1 km/h
445 03-08-2021 13:00:00 17.2 C 13.18 g/m*3 17.2 C 9.7 km/h
446 03-08-2021 13:05:00 17.2 C 13.03 g/m*3 17.2 C 8.1 km/h
447 03-08-2021 13:10:00 17.2 C 13.03 g/m*3 17.2 C 9.7 km/h
448 03-08-2021 13:15:00 17.3 C 12.96 g/m*3 17.3 C 9.7 km/h
449 03-08-2021 13:20:00 17.4 C 13.04 g/m*3 17.4 C 9.7 km/h
450 03-08-2021 13:25:00 17.4 C 13.19 g/m*3 17.4 C 3.2 km/h
Sensor: Nr:Datum:Temp:Abs-Feuchte:Windchill:Wind:
Aussen-T/F 451 03-08-2021 13:30:00 17.6 C 13.35 g/m*3 17.6 C 1.6 km/h
452 03-08-2021 13:35:00 17.6 C 13.35 g/m*3 17.6 C 1.6 km/h
453 03-08-2021 13:40:00 17.6 C 13.05 g/m*3 17.6 C 1.6 km/h
454 03-08-2021 13:45:00 17.7 C 13.13 g/m*3 17.7 C 6.4 km/h
455 03-08-2021 13:50:00 17.8 C 13.05 g/m*3 17.8 C 6.4 km/h
456 03-08-2021 13:55:00 17.9 C 12.98 g/m*3 17.9 C 3.2 km/h
457 03-08-2021 14:00:00 18.2 C 13.68 g/m*3 18.2 C 0 km/h
458 03-08-2021 14:05:00 18.2 C 13.68 g/m*3 18.2 C 0 km/h
459 03-08-2021 14:10:00 18.3 C 13.92 g/m*3 18.3 C 0 km/h
460 03-08-2021 14:15:00 18.3 C 13.76 g/m*3 18.3 C 4.8 km/h
461 03-08-2021 14:20:00 18.2 C 13.37 g/m*3 18.2 C 4.8 km/h
462 03-08-2021 14:25:00 18.2 C 13.37 g/m*3 18.2 C 6.4 km/h
463 03-08-2021 14:30:00 18.3 C 12.98 g/m*3 18.3 C 4.8 km/h
464 03-08-2021 14:35:00 18.4 C 12.74 g/m*3 18.4 C 6.4 km/h
465 03-08-2021 14:40:00 18.6 C 12.73 g/m*3 18.6 C 8.1 km/h
466 03-08-2021 14:45:00 18.8 C 13.37 g/m*3 18.8 C 3.2 km/h
467 03-08-2021 14:50:00 19 C 13.2 g/m*3 19 C 3.2 km/h
468 03-08-2021 14:55:00 19.2 C 12.86 g/m*3 19.2 C 6.4 km/h
469 03-08-2021 15:00:00 19.3 C 12.94 g/m*3 19.3 C 8.1 km/h
470 03-08-2021 15:05:00 19.4 C 13.51 g/m*3 19.4 C 0 km/h
471 03-08-2021 15:10:00 19.6 C 13.67 g/m*3 19.6 C 1.6 km/h
472 03-08-2021 15:15:00 19.6 C 13.17 g/m*3 19.6 C 0 km/h
473 03-08-2021 15:20:00 19.7 C 13.08 g/m*3 19.7 C 0 km/h
474 03-08-2021 15:25:00 19.8 C 13.84 g/m*3 19.8 C 0 km/h
475 03-08-2021 15:30:00 19.7 C 13.92 g/m*3 19.7 C 1.6 km/h
Sensor: Nr:Datum:Temp:Abs-Feuchte:Windchill:Wind:
Aussen-T/F 476 03-08-2021 15:35:00 19.6 C 14.18 g/m*3 19.6 C 0 km/h
477 03-08-2021 15:40:00 19.5 C 13.76 g/m*3 19.5 C 0 km/h
478 03-08-2021 15:45:00 19.6 C 14.35 g/m*3 19.6 C 0 km/h
479 03-08-2021 15:50:00 19.5 C 13.09 g/m*3 19.5 C 6.4 km/h
480 03-08-2021 15:55:00 19.5 C 12.59 g/m*3 19.5 C 3.2 km/h
481 03-08-2021 16:00:00 19.6 C 13.51 g/m*3 19.6 C 1.6 km/h
482 03-08-2021 16:05:00 19.8 C 14.35 g/m*3 19.8 C 1.6 km/h
483 03-08-2021 16:10:00 19.8 C 13.84 g/m*3 19.8 C 0 km/h
484 03-08-2021 16:15:00 19.9 C 13.4 g/m*3 19.9 C 1.6 km/h
485 03-08-2021 16:20:00 20 C 13.13 g/m*3 20 C 1.6 km/h
486 03-08-2021 16:25:00 20.2 C 14.34 g/m*3 20.2 C 0 km/h
487 03-08-2021 16:30:00 20.3 C 14.6 g/m*3 20.3 C 0 km/h
488 03-08-2021 16:35:00 20.3 C 14.25 g/m*3 20.3 C 0 km/h
489 03-08-2021 16:40:00 20.3 C 14.25 g/m*3 20.3 C 4.8 km/h
490 03-08-2021 16:45:00 20.2 C 14.69 g/m*3 20.2 C 1.6 km/h
491 03-08-2021 16:50:00 20 C 13.83 g/m*3 20 C 4.8 km/h
492 03-08-2021 16:55:00 19.8 C 13.84 g/m*3 19.8 C 4.8 km/h
493 03-08-2021 17:00:00 19.7 C 13.58 g/m*3 19.7 C 6.4 km/h
494 03-08-2021 17:05:00 19.7 C 14.09 g/m*3 19.7 C 3.2 km/h
495 03-08-2021 17:10:00 19.6 C 14.01 g/m*3 19.6 C 4.8 km/h
496 03-08-2021 17:15:00 19.4 C 13.85 g/m*3 19.4 C 1.6 km/h
497 03-08-2021 17:20:00 19.3 C 13.77 g/m*3 19.3 C 3.2 km/h
498 03-08-2021 17:25:00 19.3 C 14.1 g/m*3 19.3 C 3.2 km/h
499 03-08-2021 17:30:00 19.3 C 14.1 g/m*3 19.3 C 0 km/h
500 03-08-2021 17:35:00 19.3 C 14.1 g/m*3 19.3 C 3.2 km/h
Sensor: Nr:Datum:Temp:Abs-Feuchte:Windchill:Wind:
Aussen-T/F 501 03-08-2021 17:40:00 19.3 C 14.26 g/m*3 19.3 C 3.2 km/h
502 03-08-2021 17:45:00 19.2 C 13.69 g/m*3 19.2 C 9.7 km/h
503 03-08-2021 17:50:00 19.5 C 13.93 g/m*3 19.5 C 11.3 km/h
504 03-08-2021 17:55:00 19.7 C 13.75 g/m*3 19.7 C 11.3 km/h
505 03-08-2021 18:00:00 19.8 C 14.01 g/m*3 19.8 C 6.4 km/h
506 03-08-2021 18:05:00 20.4 C 14.15 g/m*3 20.4 C 6.4 km/h
507 03-08-2021 18:10:00 20.9 C 13.84 g/m*3 20.9 C 8.1 km/h
508 03-08-2021 18:15:00 21.1 C 14.19 g/m*3 21.1 C 8.1 km/h
509 03-08-2021 18:20:00 20.9 C 13.66 g/m*3 20.9 C 9.7 km/h
510 03-08-2021 18:25:00 21.1 C 14.19 g/m*3 21.1 C 6.4 km/h
511 03-08-2021 18:30:00 21.4 C 13.87 g/m*3 21.4 C 6.4 km/h
512 03-08-2021 18:35:00 21.7 C 14.31 g/m*3 21.7 C 4.8 km/h
513 03-08-2021 18:40:00 21.8 C 14.01 g/m*3 21.8 C 3.2 km/h
514 03-08-2021 18:45:00 21.5 C 13.77 g/m*3 21.5 C 8.1 km/h
515 03-08-2021 18:50:00 21.1 C 13.27 g/m*3 21.1 C 8.1 km/h
516 03-08-2021 18:55:00 20.8 C 13.4 g/m*3 20.8 C 8.1 km/h
517 03-08-2021 19:00:00 20.7 C 13.68 g/m*3 20.7 C 8.1 km/h
518 03-08-2021 19:05:00 20.7 C 13.32 g/m*3 20.7 C 8.1 km/h
519 03-08-2021 19:10:00 20.7 C 13.32 g/m*3 20.7 C 6.4 km/h
520 03-08-2021 19:15:00 20.6 C 13.42 g/m*3 20.6 C 6.4 km/h
521 03-08-2021 19:20:00 20.3 C 13.19 g/m*3 20.3 C 6.4 km/h
522 03-08-2021 19:25:00 20.2 C 13.81 g/m*3 20.2 C 0 km/h
523 03-08-2021 19:30:00 20 C 13.48 g/m*3 20 C 0 km/h
524 03-08-2021 19:35:00 19.9 C 13.57 g/m*3 19.9 C 0 km/h
525 03-08-2021 19:40:00 19.8 C 14.01 g/m*3 19.8 C 0 km/h
Sensor: Nr:Datum:Temp:Abs-Feuchte:Windchill:Wind:
Aussen-T/F 526 03-08-2021 19:45:00 19.7 C 13.92 g/m*3 19.7 C 3.2 km/h
527 03-08-2021 19:50:00 19.4 C 13.51 g/m*3 19.4 C 0 km/h
528 03-08-2021 19:55:00 19.3 C 13.93 g/m*3 19.3 C 0 km/h
529 03-08-2021 20:00:00 19.2 C 13.85 g/m*3 19.2 C 1.6 km/h
530 03-08-2021 20:05:00 18.9 C 13.45 g/m*3 18.9 C 4.8 km/h
531 03-08-2021 20:10:00 18.7 C 13.45 g/m*3 18.7 C 6.4 km/h
532 03-08-2021 20:15:00 18.4 C 13.53 g/m*3 18.4 C 4.8 km/h
533 03-08-2021 20:20:00 18.2 C 13.68 g/m*3 18.2 C 1.6 km/h
534 03-08-2021 20:25:00 17.9 C 13.44 g/m*3 17.9 C 0 km/h
535 03-08-2021 20:30:00 17.8 C 13.51 g/m*3 17.8 C 3.2 km/h
536 03-08-2021 20:35:00 17.6 C 13.35 g/m*3 17.6 C 1.6 km/h
537 03-08-2021 20:40:00 17.5 C 13.42 g/m*3 17.5 C 1.6 km/h
538 03-08-2021 20:45:00 17.3 C 13.41 g/m*3 17.3 C 4.8 km/h
539 03-08-2021 20:50:00 17.1 C 13.25 g/m*3 17.1 C 3.2 km/h
540 03-08-2021 20:55:00 17 C 13.17 g/m*3 17 C 1.6 km/h
541 03-08-2021 21:00:00 16.9 C 13.23 g/m*3 16.9 C 4.8 km/h
542 03-08-2021 21:05:00 16.8 C 13.15 g/m*3 16.8 C 6.4 km/h
543 03-08-2021 21:10:00 16.7 C 13.07 g/m*3 16.7 C 6.4 km/h
544 03-08-2021 21:15:00 16.5 C 13.06 g/m*3 16.5 C 6.4 km/h
545 03-08-2021 21:20:00 16.4 C 12.98 g/m*3 16.4 C 3.2 km/h
546 03-08-2021 21:25:00 16.3 C 12.9 g/m*3 16.3 C 4.8 km/h
547 03-08-2021 21:30:00 16.3 C 13.04 g/m*3 16.3 C 4.8 km/h
548 03-08-2021 21:35:00 16.2 C 12.96 g/m*3 16.2 C 3.2 km/h
549 03-08-2021 21:40:00 16.2 C 12.96 g/m*3 16.2 C 4.8 km/h
550 03-08-2021 21:45:00 16.1 C 12.88 g/m*3 16.1 C 6.4 km/h
Sensor: Nr:Datum:Temp:Abs-Feuchte:Windchill:Wind:
Aussen-T/F 551 03-08-2021 21:50:00 16.1 C 12.88 g/m*3 16.1 C 6.4 km/h
552 03-08-2021 21:55:00 16.1 C 12.88 g/m*3 16.1 C 4.8 km/h
553 03-08-2021 22:00:00 16 C 12.94 g/m*3 16 C 4.8 km/h
554 03-08-2021 22:05:00 16 C 12.94 g/m*3 16 C 4.8 km/h
555 03-08-2021 22:10:00 15.9 C 12.87 g/m*3 15.9 C 4.8 km/h
556 03-08-2021 22:15:00 15.9 C 12.87 g/m*3 15.9 C 4.8 km/h
557 03-08-2021 22:20:00 15.9 C 12.87 g/m*3 15.9 C 3.2 km/h
558 03-08-2021 22:25:00 15.8 C 12.79 g/m*3 15.8 C 1.6 km/h
559 03-08-2021 22:30:00 15.8 C 12.79 g/m*3 15.8 C 3.2 km/h
560 03-08-2021 22:35:00 15.8 C 12.79 g/m*3 15.8 C 3.2 km/h
561 03-08-2021 22:40:00 15.7 C 12.71 g/m*3 15.7 C 1.6 km/h
562 03-08-2021 22:45:00 15.7 C 12.71 g/m*3 15.7 C 4.8 km/h
563 03-08-2021 22:50:00 15.7 C 12.71 g/m*3 15.7 C 4.8 km/h
564 03-08-2021 22:55:00 15.7 C 12.71 g/m*3 15.7 C 4.8 km/h
565 03-08-2021 23:00:00 15.6 C 12.63 g/m*3 15.6 C 1.6 km/h
566 03-08-2021 23:05:00 15.6 C 12.63 g/m*3 15.6 C 1.6 km/h
567 03-08-2021 23:10:00 15.6 C 12.63 g/m*3 15.6 C 3.2 km/h
568 03-08-2021 23:15:00 15.6 C 12.63 g/m*3 15.6 C 0 km/h
569 03-08-2021 23:20:00 15.7 C 12.84 g/m*3 15.7 C 0 km/h
570 03-08-2021 23:25:00 15.7 C 12.84 g/m*3 15.7 C 0 km/h
571 03-08-2021 23:30:00 15.7 C 12.84 g/m*3 15.7 C 0 km/h
572 03-08-2021 23:35:00 15.7 C 12.84 g/m*3 15.7 C 0 km/h
573 03-08-2021 23:40:00 15.7 C 12.71 g/m*3 15.7 C 3.2 km/h
574 03-08-2021 23:45:00 15.6 C 12.63 g/m*3 15.6 C 3.2 km/h
575 03-08-2021 23:50:00 15.4 C 12.48 g/m*3 15.4 C 3.2 km/h
Sensor: Nr:Datum:Temp:Abs-Feuchte:Windchill:Wind:
Aussen-T/F 576 03-08-2021 23:55:00 15.3 C 12.41 g/m*3 15.3 C 0 km/h
577 04-08-2021 00:00:00 15.2 C 12.33 g/m*3 15.2 C 0 km/h
578 04-08-2021 00:05:00 15.1 C 12.26 g/m*3 15.1 C 0 km/h
579 04-08-2021 00:10:00 15 C 12.18 g/m*3 15 C 0 km/h
580 04-08-2021 00:15:00 14.9 C 12.11 g/m*3 14.9 C 0 km/h
581 04-08-2021 00:20:00 14.8 C 12.03 g/m*3 14.8 C 1.6 km/h
582 04-08-2021 00:25:00 14.8 C 12.03 g/m*3 14.8 C 1.6 km/h
583 04-08-2021 00:30:00 14.7 C 12.09 g/m*3 14.7 C 3.2 km/h
584 04-08-2021 00:35:00 14.7 C 12.09 g/m*3 14.7 C 3.2 km/h
585 04-08-2021 00:40:00 14.7 C 12.09 g/m*3 14.7 C 3.2 km/h
586 04-08-2021 00:45:00 14.7 C 12.09 g/m*3 14.7 C 3.2 km/h
587 04-08-2021 00:50:00 14.7 C 12.09 g/m*3 14.7 C 1.6 km/h
588 04-08-2021 00:55:00 14.7 C 12.09 g/m*3 14.7 C 3.2 km/h
589 04-08-2021 01:00:00 14.7 C 12.09 g/m*3 14.7 C 1.6 km/h
590 04-08-2021 01:05:00 14.7 C 12.09 g/m*3 14.7 C 0 km/h
591 04-08-2021 01:10:00 14.7 C 12.09 g/m*3 14.7 C 0 km/h
592 04-08-2021 01:15:00 14.7 C 12.09 g/m*3 14.7 C 0 km/h
593 04-08-2021 01:20:00 14.7 C 12.09 g/m*3 14.7 C 1.6 km/h
594 04-08-2021 01:25:00 14.8 C 12.16 g/m*3 14.8 C 3.2 km/h
595 04-08-2021 01:30:00 14.8 C 12.16 g/m*3 14.8 C 0 km/h
596 04-08-2021 01:35:00 14.8 C 12.16 g/m*3 14.8 C 1.6 km/h
597 04-08-2021 01:40:00 14.8 C 12.16 g/m*3 14.8 C 3.2 km/h
598 04-08-2021 01:45:00 14.8 C 12.16 g/m*3 14.8 C 3.2 km/h
599 04-08-2021 01:50:00 14.8 C 12.16 g/m*3 14.8 C 1.6 km/h
600 04-08-2021 01:55:00 14.9 C 12.24 g/m*3 14.9 C 0 km/h
Sensor: Nr:Datum:Temp:Abs-Feuchte:Windchill:Wind:
Aussen-T/F 601 04-08-2021 02:00:00 14.9 C 12.24 g/m*3 14.9 C 0 km/h
602 04-08-2021 02:05:00 14.9 C 12.24 g/m*3 14.9 C 0 km/h
603 04-08-2021 02:10:00 14.9 C 12.24 g/m*3 14.9 C 4.8 km/h
604 04-08-2021 02:15:00 14.8 C 12.16 g/m*3 14.8 C 4.8 km/h
605 04-08-2021 02:20:00 14.8 C 12.16 g/m*3 14.8 C 4.8 km/h
606 04-08-2021 02:25:00 14.8 C 12.16 g/m*3 14.8 C 3.2 km/h
607 04-08-2021 02:30:00 14.8 C 12.16 g/m*3 14.8 C 3.2 km/h
608 04-08-2021 02:35:00 14.8 C 12.16 g/m*3 14.8 C 0 km/h
609 04-08-2021 02:40:00 14.8 C 12.16 g/m*3 14.8 C 0 km/h
610 04-08-2021 02:45:00 14.7 C 12.09 g/m*3 14.7 C 1.6 km/h
611 04-08-2021 02:50:00 14.7 C 12.09 g/m*3 14.7 C 0 km/h
612 04-08-2021 02:55:00 14.7 C 12.09 g/m*3 14.7 C 0 km/h
613 04-08-2021 03:00:00 14.6 C 12.01 g/m*3 14.6 C 0 km/h
614 04-08-2021 03:05:00 14.6 C 12.01 g/m*3 14.6 C 1.6 km/h
615 04-08-2021 03:10:00 14.5 C 11.94 g/m*3 14.5 C 1.6 km/h
616 04-08-2021 03:15:00 14.4 C 11.87 g/m*3 14.4 C 1.6 km/h
617 04-08-2021 03:20:00 14.3 C 11.79 g/m*3 14.3 C 0 km/h
618 04-08-2021 03:25:00 14.2 C 11.72 g/m*3 14.2 C 0 km/h
619 04-08-2021 03:30:00 14.1 C 11.65 g/m*3 14.1 C 1.6 km/h
620 04-08-2021 03:35:00 13.9 C 11.51 g/m*3 13.9 C 0 km/h
621 04-08-2021 03:40:00 13.8 C 11.44 g/m*3 13.8 C 0 km/h
622 04-08-2021 03:45:00 13.6 C 11.3 g/m*3 13.6 C 0 km/h
623 04-08-2021 03:50:00 13.5 C 11.23 g/m*3 13.5 C 1.6 km/h
624 04-08-2021 03:55:00 13.4 C 11.16 g/m*3 13.4 C 0 km/h
625 04-08-2021 04:00:00 13.3 C 11.09 g/m*3 13.3 C 0 km/h
Sensor: Nr:Datum:Temp:Abs-Feuchte:Windchill:Wind:
Aussen-T/F 626 04-08-2021 04:05:00 13.2 C 11.02 g/m*3 13.2 C 1.6 km/h
627 04-08-2021 04:10:00 13.2 C 11.02 g/m*3 13.2 C 0 km/h
628 04-08-2021 04:15:00 13.1 C 10.95 g/m*3 13.1 C 0 km/h
629 04-08-2021 04:20:00 13.1 C 10.95 g/m*3 13.1 C 0 km/h
630 04-08-2021 04:25:00 12.9 C 10.82 g/m*3 12.9 C 0 km/h
631 04-08-2021 04:30:00 12.9 C 10.82 g/m*3 12.9 C 0 km/h
632 04-08-2021 04:35:00 12.8 C 10.75 g/m*3 12.8 C 0 km/h
633 04-08-2021 04:40:00 12.8 C 10.75 g/m*3 12.8 C 0 km/h
634 04-08-2021 04:45:00 12.8 C 10.75 g/m*3 12.8 C 0 km/h
635 04-08-2021 04:50:00 12.8 C 10.75 g/m*3 12.8 C 0 km/h
636 04-08-2021 04:55:00 12.8 C 10.75 g/m*3 12.8 C 0 km/h
637 04-08-2021 05:00:00 12.8 C 10.75 g/m*3 12.8 C 0 km/h
638 04-08-2021 05:05:00 12.8 C 10.75 g/m*3 12.8 C 0 km/h
639 04-08-2021 05:10:00 12.8 C 10.75 g/m*3 12.8 C 1.6 km/h
640 04-08-2021 05:15:00 12.7 C 10.8 g/m*3 12.7 C 0 km/h
641 04-08-2021 05:20:00 12.7 C 10.8 g/m*3 12.7 C 0 km/h
642 04-08-2021 05:25:00 12.7 C 10.8 g/m*3 12.7 C 0 km/h
643 04-08-2021 05:30:00 12.7 C 10.69 g/m*3 12.7 C 0 km/h
644 04-08-2021 05:35:00 12.6 C 10.62 g/m*3 12.6 C 0 km/h
645 04-08-2021 05:40:00 12.6 C 10.62 g/m*3 12.6 C 1.6 km/h
646 04-08-2021 05:45:00 12.6 C 10.62 g/m*3 12.6 C 1.6 km/h
647 04-08-2021 05:50:00 12.6 C 10.62 g/m*3 12.6 C 1.6 km/h
648 04-08-2021 05:55:00 12.5 C 10.55 g/m*3 12.5 C 1.6 km/h
649 04-08-2021 06:00:00 12.5 C 10.66 g/m*3 12.5 C 1.6 km/h
650 04-08-2021 06:05:00 12.5 C 10.66 g/m*3 12.5 C 3.2 km/h
Sensor: Nr:Datum:Temp:Abs-Feuchte:Windchill:Wind:
Aussen-T/F 651 04-08-2021 06:10:00 12.4 C 10.6 g/m*3 12.4 C 1.6 km/h
652 04-08-2021 06:15:00 12.4 C 10.6 g/m*3 12.4 C 1.6 km/h
653 04-08-2021 06:20:00 12.4 C 10.6 g/m*3 12.4 C 1.6 km/h
654 04-08-2021 06:25:00 12.5 C 10.66 g/m*3 12.5 C 1.6 km/h
655 04-08-2021 06:30:00 12.6 C 10.73 g/m*3 12.6 C 0 km/h
656 04-08-2021 06:35:00 12.6 C 10.73 g/m*3 12.6 C 0 km/h
657 04-08-2021 06:40:00 12.7 C 10.8 g/m*3 12.7 C 0 km/h
658 04-08-2021 06:45:00 12.8 C 10.87 g/m*3 12.8 C 0 km/h
659 04-08-2021 06:50:00 12.8 C 10.87 g/m*3 12.8 C 0 km/h
660 04-08-2021 06:55:00 12.9 C 10.93 g/m*3 12.9 C 0 km/h
661 04-08-2021 07:00:00 12.9 C 10.93 g/m*3 12.9 C 0 km/h
662 04-08-2021 07:05:00 13 C 11 g/m*3 13 C 0 km/h
663 04-08-2021 07:10:00 13.1 C 11.07 g/m*3 13.1 C 0 km/h
664 04-08-2021 07:15:00 13.1 C 11.07 g/m*3 13.1 C 0 km/h
665 04-08-2021 07:20:00 13.1 C 11.07 g/m*3 13.1 C 0 km/h
666 04-08-2021 07:25:00 13.2 C 11.14 g/m*3 13.2 C 0 km/h
667 04-08-2021 07:30:00 13.2 C 11.14 g/m*3 13.2 C 0 km/h
668 04-08-2021 07:35:00 13.2 C 11.14 g/m*3 13.2 C 0 km/h
669 04-08-2021 07:40:00 13.3 C 11.21 g/m*3 13.3 C 0 km/h
670 04-08-2021 07:45:00 13.3 C 11.21 g/m*3 13.3 C 0 km/h
671 04-08-2021 07:50:00 13.4 C 11.28 g/m*3 13.4 C 0 km/h
672 04-08-2021 07:55:00 13.6 C 11.42 g/m*3 13.6 C 0 km/h
673 04-08-2021 08:00:00 13.7 C 11.49 g/m*3 13.7 C 0 km/h
674 04-08-2021 08:05:00 13.8 C 11.56 g/m*3 13.8 C 0 km/h
675 04-08-2021 08:10:00 13.9 C 11.63 g/m*3 13.9 C 0 km/h
Sensor: Nr:Datum:Temp:Abs-Feuchte:Windchill:Wind:
Aussen-T/F 676 04-08-2021 08:15:00 14.1 C 11.77 g/m*3 14.1 C 0 km/h
677 04-08-2021 08:20:00 14.1 C 11.77 g/m*3 14.1 C 0 km/h
678 04-08-2021 08:25:00 14.1 C 11.77 g/m*3 14.1 C 0 km/h
679 04-08-2021 08:30:00 14.2 C 11.84 g/m*3 14.2 C 0 km/h
680 04-08-2021 08:35:00 14.3 C 11.92 g/m*3 14.3 C 0 km/h
681 04-08-2021 08:40:00 14.3 C 11.92 g/m*3 14.3 C 1.6 km/h
682 04-08-2021 08:45:00 14.4 C 11.99 g/m*3 14.4 C 0 km/h
683 04-08-2021 08:50:00 14.6 C 12.14 g/m*3 14.6 C 0 km/h
684 04-08-2021 08:55:00 14.6 C 12.14 g/m*3 14.6 C 0 km/h
685 04-08-2021 09:00:00 14.7 C 12.21 g/m*3 14.7 C 1.6 km/h
686 04-08-2021 09:05:00 14.7 C 12.21 g/m*3 14.7 C 0 km/h
687 04-08-2021 09:10:00 14.7 C 12.21 g/m*3 14.7 C 0 km/h
688 04-08-2021 09:15:00 14.7 C 12.21 g/m*3 14.7 C 0 km/h
689 04-08-2021 09:20:00 14.7 C 12.21 g/m*3 14.7 C 1.6 km/h
690 04-08-2021 09:25:00 14.8 C 12.29 g/m*3 14.8 C 1.6 km/h
691 04-08-2021 09:30:00 14.8 C 12.29 g/m*3 14.8 C 1.6 km/h
692 04-08-2021 09:35:00 14.9 C 12.36 g/m*3 14.9 C 1.6 km/h
693 04-08-2021 09:40:00 14.9 C 12.36 g/m*3 14.9 C 0 km/h
694 04-08-2021 09:45:00 15 C 12.44 g/m*3 15 C 1.6 km/h
695 04-08-2021 09:50:00 15 C 12.44 g/m*3 15 C 3.2 km/h
696 04-08-2021 09:55:00 15.1 C 12.51 g/m*3 15.1 C 1.6 km/h
697 04-08-2021 10:00:00 15.1 C 12.51 g/m*3 15.1 C 3.2 km/h
698 04-08-2021 10:05:00 15 C 12.31 g/m*3 15 C 0 km/h
699 04-08-2021 10:10:00 15.1 C 12.39 g/m*3 15.1 C 0 km/h
700 04-08-2021 10:15:00 15.2 C 12.46 g/m*3 15.2 C 0 km/h
Sensor: Nr:Datum:Temp:Abs-Feuchte:Windchill:Wind:
Aussen-T/F 701 04-08-2021 10:20:00 15.3 C 12.67 g/m*3 15.3 C 1.6 km/h
702 04-08-2021 10:25:00 15.4 C 12.74 g/m*3 15.4 C 1.6 km/h
703 04-08-2021 10:30:00 15.5 C 12.69 g/m*3 15.5 C 1.6 km/h
704 04-08-2021 10:35:00 15.4 C 12.61 g/m*3 15.4 C 0 km/h
705 04-08-2021 10:40:00 15.6 C 12.77 g/m*3 15.6 C 1.6 km/h
706 04-08-2021 10:45:00 15.7 C 12.84 g/m*3 15.7 C 1.6 km/h
707 04-08-2021 10:50:00 15.7 C 12.84 g/m*3 15.7 C 0 km/h
708 04-08-2021 10:55:00 15.8 C 12.92 g/m*3 15.8 C 0 km/h
709 04-08-2021 11:00:00 15.9 C 13 g/m*3 15.9 C 0 km/h
710 04-08-2021 11:05:00 15.9 C 13 g/m*3 15.9 C 4.8 km/h
711 04-08-2021 11:10:00 16 C 12.94 g/m*3 16 C 3.2 km/h
712 04-08-2021 11:15:00 16.2 C 13.1 g/m*3 16.2 C 3.2 km/h
713 04-08-2021 11:20:00 16.2 C 12.96 g/m*3 16.2 C 1.6 km/h
714 04-08-2021 11:25:00 16.3 C 13.04 g/m*3 16.3 C 1.6 km/h
715 04-08-2021 11:30:00 16.4 C 13.12 g/m*3 16.4 C 0 km/h
716 04-08-2021 11:35:00 16.4 C 13.12 g/m*3 16.4 C 0 km/h
717 04-08-2021 11:40:00 16.4 C 13.12 g/m*3 16.4 C 0 km/h
718 04-08-2021 11:45:00 16.4 C 12.98 g/m*3 16.4 C 3.2 km/h
719 04-08-2021 11:50:00 16.6 C 13.14 g/m*3 16.6 C 3.2 km/h
720 04-08-2021 11:55:00 16.7 C 13.07 g/m*3 16.7 C 4.8 km/h
721 04-08-2021 12:00:00 16.8 C 13.15 g/m*3 16.8 C 4.8 km/h
722 04-08-2021 12:05:00 16.9 C 12.94 g/m*3 16.9 C 3.2 km/h
723 04-08-2021 12:10:00 17 C 12.88 g/m*3 17 C 0 km/h
724 04-08-2021 12:15:00 17.1 C 12.66 g/m*3 17.1 C 1.6 km/h
725 04-08-2021 12:20:00 17.2 C 13.03 g/m*3 17.2 C 0 km/h
Sensor: Nr:Datum:Temp:Abs-Feuchte:Windchill:Wind:
Aussen-T/F 726 04-08-2021 12:25:00 17.4 C 13.19 g/m*3 17.4 C 0 km/h
727 04-08-2021 12:30:00 17.6 C 13.5 g/m*3 17.6 C 0 km/h
728 04-08-2021 12:35:00 17.6 C 13.35 g/m*3 17.6 C 1.6 km/h
729 04-08-2021 12:40:00 17.6 C 12.9 g/m*3 17.6 C 0 km/h
730 04-08-2021 12:45:00 17.6 C 12.75 g/m*3 17.6 C 1.6 km/h
731 04-08-2021 12:50:00 17.7 C 12.98 g/m*3 17.7 C 1.6 km/h
732 04-08-2021 12:55:00 17.8 C 13.2 g/m*3 17.8 C 1.6 km/h
733 04-08-2021 13:00:00 17.8 C 12.9 g/m*3 17.8 C 0 km/h
734 04-08-2021 13:05:00 17.8 C 12.9 g/m*3 17.8 C 1.6 km/h
735 04-08-2021 13:10:00 17.9 C 13.13 g/m*3 17.9 C 1.6 km/h
736 04-08-2021 13:15:00 17.9 C 12.83 g/m*3 17.9 C 6.4 km/h
737 04-08-2021 13:20:00 17.8 C 12.14 g/m*3 17.8 C 3.2 km/h
738 04-08-2021 13:25:00 18.1 C 12.98 g/m*3 18.1 C 0 km/h
739 04-08-2021 13:30:00 18.2 C 13.37 g/m*3 18.2 C 3.2 km/h
740 04-08-2021 13:35:00 18.3 C 13.6 g/m*3 18.3 C 0 km/h
741 04-08-2021 13:40:00 18.3 C 13.6 g/m*3 18.3 C 0 km/h
742 04-08-2021 13:45:00 18.3 C 13.29 g/m*3 18.3 C 0 km/h
743 04-08-2021 13:50:00 18.3 C 13.13 g/m*3 18.3 C 1.6 km/h
744 04-08-2021 13:55:00 18.3 C 12.66 g/m*3 18.3 C 0 km/h
745 04-08-2021 14:00:00 18.4 C 12.58 g/m*3 18.4 C 0 km/h
746 04-08-2021 14:05:00 18.5 C 12.34 g/m*3 18.5 C 0 km/h
747 04-08-2021 14:10:00 18.7 C 12.65 g/m*3 18.7 C 0 km/h
748 04-08-2021 14:15:00 18.9 C 12.64 g/m*3 18.9 C 0 km/h
749 04-08-2021 14:20:00 19.1 C 12.13 g/m*3 19.1 C 3.2 km/h
750 04-08-2021 14:25:00 19.3 C 12.77 g/m*3 19.3 C 4.8 km/h
Sensor: Nr:Datum:Temp:Abs-Feuchte:Windchill:Wind:
Aussen-T/F 751 04-08-2021 14:30:00 19.5 C 12.92 g/m*3 19.5 C 3.2 km/h
752 04-08-2021 14:35:00 19.7 C 13.08 g/m*3 19.7 C 4.8 km/h
753 04-08-2021 14:40:00 19.8 C 13.15 g/m*3 19.8 C 1.6 km/h
754 04-08-2021 14:45:00 19.8 C 11.96 g/m*3 19.8 C 4.8 km/h
755 04-08-2021 14:50:00 19.9 C 11.51 g/m*3 19.9 C 6.4 km/h
756 04-08-2021 14:55:00 20.1 C 11.82 g/m*3 20.1 C 0 km/h
757 04-08-2021 15:00:00 20.1 C 12.17 g/m*3 20.1 C 0 km/h
758 04-08-2021 15:05:00 20.2 C 13.64 g/m*3 20.2 C 0 km/h
759 04-08-2021 15:10:00 20.3 C 13.89 g/m*3 20.3 C 0 km/h
760 04-08-2021 15:15:00 20.3 C 14.07 g/m*3 20.3 C 4.8 km/h
761 04-08-2021 15:20:00 20.2 C 13.46 g/m*3 20.2 C 3.2 km/h
762 04-08-2021 15:25:00 20.3 C 13.72 g/m*3 20.3 C 6.4 km/h
763 04-08-2021 15:30:00 20.4 C 13.62 g/m*3 20.4 C 6.4 km/h
764 04-08-2021 15:35:00 20.6 C 13.96 g/m*3 20.6 C 4.8 km/h
765 04-08-2021 15:40:00 20.8 C 13.4 g/m*3 20.8 C 8.1 km/h
766 04-08-2021 15:45:00 21 C 13.19 g/m*3 21 C 8.1 km/h
767 04-08-2021 15:50:00 21.2 C 14.08 g/m*3 21.2 C 4.8 km/h
768 04-08-2021 15:55:00 21.2 C 13.53 g/m*3 21.2 C 1.6 km/h
769 04-08-2021 16:00:00 21.1 C 13.45 g/m*3 21.1 C 4.8 km/h
770 04-08-2021 16:05:00 20.9 C 13.48 g/m*3 20.9 C 4.8 km/h
771 04-08-2021 16:10:00 20.8 C 13.4 g/m*3 20.8 C 8.1 km/h
772 04-08-2021 16:15:00 20.8 C 13.4 g/m*3 20.8 C 0 km/h
773 04-08-2021 16:20:00 20.7 C 13.5 g/m*3 20.7 C 0 km/h
774 04-08-2021 16:25:00 20.7 C 14.04 g/m*3 20.7 C 0 km/h
775 04-08-2021 16:30:00 20.7 C 13.5 g/m*3 20.7 C 0 km/h
Sensor: Nr:Datum:Temp:Abs-Feuchte:Windchill:Wind:
Aussen-T/F 776 04-08-2021 16:35:00 20.7 C 14.22 g/m*3 20.7 C 0 km/h
777 04-08-2021 16:40:00 20.6 C 13.42 g/m*3 20.6 C 4.8 km/h
778 04-08-2021 16:45:00 20.6 C 14.32 g/m*3 20.6 C 3.2 km/h
779 04-08-2021 16:50:00 20.5 C 14.23 g/m*3 20.5 C 3.2 km/h
780 04-08-2021 16:55:00 20.4 C 14.51 g/m*3 20.4 C 0 km/h
781 04-08-2021 17:00:00 20.4 C 14.68 g/m*3 20.4 C 4.8 km/h
782 04-08-2021 17:05:00 20.4 C 15.04 g/m*3 20.4 C 3.2 km/h
783 04-08-2021 17:10:00 20.3 C 15.13 g/m*3 20.3 C 3.2 km/h
784 04-08-2021 17:15:00 20.3 C 15.13 g/m*3 20.3 C 1.6 km/h
785 04-08-2021 17:20:00 20.2 C 15.21 g/m*3 20.2 C 0 km/h
786 04-08-2021 17:25:00 20.2 C 15.21 g/m*3 20.2 C 0 km/h
787 04-08-2021 17:30:00 20.1 C 14.95 g/m*3 20.1 C 0 km/h
788 04-08-2021 17:35:00 19.9 C 14.43 g/m*3 19.9 C 4.8 km/h
789 04-08-2021 17:40:00 19.9 C 14.6 g/m*3 19.9 C 0 km/h
790 04-08-2021 17:45:00 20 C 15.04 g/m*3 20 C 0 km/h
791 04-08-2021 17:50:00 20.1 C 15.3 g/m*3 20.1 C 1.6 km/h
792 04-08-2021 17:55:00 20.1 C 15.12 g/m*3 20.1 C 3.2 km/h
793 04-08-2021 18:00:00 20 C 15.04 g/m*3 20 C 3.2 km/h
794 04-08-2021 18:05:00 19.9 C 14.95 g/m*3 19.9 C 3.2 km/h
795 04-08-2021 18:10:00 19.8 C 14.86 g/m*3 19.8 C 3.2 km/h
796 04-08-2021 18:15:00 19.7 C 14.94 g/m*3 19.7 C 1.6 km/h
797 04-08-2021 18:20:00 19.6 C 14.69 g/m*3 19.6 C 3.2 km/h
798 04-08-2021 18:25:00 19.5 C 14.77 g/m*3 19.5 C 3.2 km/h
799 04-08-2021 18:30:00 19.4 C 14.68 g/m*3 19.4 C 0 km/h
800 04-08-2021 18:35:00 19.4 C 14.68 g/m*3 19.4 C 3.2 km/h
Sensor: Nr:Datum:Temp:Abs-Feuchte:Windchill:Wind:
Aussen-T/F 801 04-08-2021 18:40:00 19.3 C 14.6 g/m*3 19.3 C 0 km/h
802 04-08-2021 18:45:00 19.4 C 14.85 g/m*3 19.4 C 0 km/h
803 04-08-2021 18:50:00 19.4 C 14.68 g/m*3 19.4 C 0 km/h
804 04-08-2021 18:55:00 19.4 C 14.85 g/m*3 19.4 C 0 km/h
805 04-08-2021 19:00:00 19.5 C 14.77 g/m*3 19.5 C 0 km/h
806 04-08-2021 19:05:00 19.5 C 14.77 g/m*3 19.5 C 1.6 km/h
807 04-08-2021 19:10:00 19.5 C 14.77 g/m*3 19.5 C 3.2 km/h
808 04-08-2021 19:15:00 19.4 C 14.68 g/m*3 19.4 C 3.2 km/h
809 04-08-2021 19:20:00 19.4 C 14.68 g/m*3 19.4 C 3.2 km/h
810 04-08-2021 19:25:00 19.3 C 14.6 g/m*3 19.3 C 1.6 km/h
811 04-08-2021 19:30:00 19.3 C 14.6 g/m*3 19.3 C 0 km/h
812 04-08-2021 19:35:00 19.2 C 14.51 g/m*3 19.2 C 0 km/h
813 04-08-2021 19:40:00 19.2 C 14.51 g/m*3 19.2 C 0 km/h
814 04-08-2021 19:45:00 19.1 C 14.43 g/m*3 19.1 C 1.6 km/h
815 04-08-2021 19:50:00 19.1 C 14.59 g/m*3 19.1 C 0 km/h
816 04-08-2021 19:55:00 19 C 14.5 g/m*3 19 C 0 km/h
817 04-08-2021 20:00:00 18.9 C 14.26 g/m*3 18.9 C 3.2 km/h
818 04-08-2021 20:05:00 18.8 C 14.17 g/m*3 18.8 C 3.2 km/h
819 04-08-2021 20:10:00 18.6 C 14.01 g/m*3 18.6 C 4.8 km/h
820 04-08-2021 20:15:00 18.4 C 13.84 g/m*3 18.4 C 4.8 km/h
821 04-08-2021 20:20:00 18.3 C 13.76 g/m*3 18.3 C 3.2 km/h
822 04-08-2021 20:25:00 18.3 C 13.92 g/m*3 18.3 C 3.2 km/h
823 04-08-2021 20:30:00 18.2 C 13.83 g/m*3 18.2 C 3.2 km/h
824 04-08-2021 20:35:00 18.1 C 13.75 g/m*3 18.1 C 4.8 km/h
825 04-08-2021 20:40:00 18 C 13.52 g/m*3 18 C 3.2 km/h
Sensor: Nr:Datum:Temp:Abs-Feuchte:Windchill:Wind:
Aussen-T/F 826 04-08-2021 20:45:00 17.9 C 13.59 g/m*3 17.9 C 1.6 km/h
827 04-08-2021 20:50:00 17.8 C 13.51 g/m*3 17.8 C 1.6 km/h
828 04-08-2021 20:55:00 17.7 C 13.43 g/m*3 17.7 C 1.6 km/h
829 04-08-2021 21:00:00 17.6 C 13.35 g/m*3 17.6 C 1.6 km/h
830 04-08-2021 21:05:00 17.4 C 13.19 g/m*3 17.4 C 3.2 km/h
831 04-08-2021 21:10:00 17.3 C 13.26 g/m*3 17.3 C 3.2 km/h
832 04-08-2021 21:15:00 17.2 C 13.18 g/m*3 17.2 C 4.8 km/h
833 04-08-2021 21:20:00 17.1 C 13.1 g/m*3 17.1 C 4.8 km/h
834 04-08-2021 21:25:00 16.8 C 12.87 g/m*3 16.8 C 3.2 km/h
835 04-08-2021 21:30:00 16.7 C 12.79 g/m*3 16.7 C 6.4 km/h
836 04-08-2021 21:35:00 16.5 C 12.64 g/m*3 16.5 C 6.4 km/h
837 04-08-2021 21:40:00 16.2 C 12.27 g/m*3 16.2 C 6.4 km/h
838 04-08-2021 21:45:00 16.1 C 12.2 g/m*3 16.1 C 6.4 km/h
839 04-08-2021 21:50:00 15.8 C 11.85 g/m*3 15.8 C 8.1 km/h
840 04-08-2021 21:55:00 15.7 C 11.77 g/m*3 15.7 C 8.1 km/h
841 04-08-2021 22:00:00 15.5 C 11.63 g/m*3 15.5 C 4.8 km/h
842 04-08-2021 22:05:00 15.4 C 11.69 g/m*3 15.4 C 4.8 km/h
843 04-08-2021 22:10:00 15.3 C 11.62 g/m*3 15.3 C 4.8 km/h
844 04-08-2021 22:15:00 15.3 C 11.62 g/m*3 15.3 C 3.2 km/h
845 04-08-2021 22:20:00 15.2 C 11.55 g/m*3 15.2 C 3.2 km/h
846 04-08-2021 22:25:00 15.2 C 11.68 g/m*3 15.2 C 3.2 km/h
847 04-08-2021 22:30:00 15.2 C 11.68 g/m*3 15.2 C 1.6 km/h
848 04-08-2021 22:35:00 15.1 C 11.61 g/m*3 15.1 C 1.6 km/h
849 04-08-2021 22:40:00 15 C 11.54 g/m*3 15 C 0 km/h
850 04-08-2021 22:45:00 14.9 C 11.47 g/m*3 14.9 C 1.6 km/h
Sensor: Nr:Datum:Temp:Abs-Feuchte:Windchill:Wind:
Aussen-T/F 851 04-08-2021 22:50:00 14.9 C 11.6 g/m*3 14.9 C 0 km/h
852 04-08-2021 22:55:00 14.8 C 11.53 g/m*3 14.8 C 0 km/h
853 04-08-2021 23:00:00 14.8 C 11.53 g/m*3 14.8 C 1.6 km/h
854 04-08-2021 23:05:00 14.7 C 11.46 g/m*3 14.7 C 0 km/h
855 04-08-2021 23:10:00 14.7 C 11.46 g/m*3 14.7 C 0 km/h
856 04-08-2021 23:15:00 14.6 C 11.51 g/m*3 14.6 C 0 km/h
857 04-08-2021 23:20:00 14.6 C 11.51 g/m*3 14.6 C 0 km/h
858 04-08-2021 23:25:00 14.6 C 11.51 g/m*3 14.6 C 0 km/h
859 04-08-2021 23:30:00 14.5 C 11.44 g/m*3 14.5 C 3.2 km/h
860 04-08-2021 23:35:00 14.5 C 11.44 g/m*3 14.5 C 1.6 km/h
861 04-08-2021 23:40:00 14.4 C 11.37 g/m*3 14.4 C 0 km/h
862 04-08-2021 23:45:00 14.4 C 11.5 g/m*3 14.4 C 0 km/h
863 04-08-2021 23:50:00 14.4 C 11.5 g/m*3 14.4 C 0 km/h
864 04-08-2021 23:55:00 14.4 C 11.5 g/m*3 14.4 C 0 km/h
865 05-08-2021 00:00:00 14.4 C 11.5 g/m*3 14.4 C 0 km/h
866 05-08-2021 00:05:00 14.4 C 11.5 g/m*3 14.4 C 0 km/h
867 05-08-2021 00:10:00 14.4 C 11.5 g/m*3 14.4 C 1.6 km/h
868 05-08-2021 00:15:00 14.5 C 11.69 g/m*3 14.5 C 1.6 km/h
869 05-08-2021 00:20:00 14.5 C 11.69 g/m*3 14.5 C 1.6 km/h
870 05-08-2021 00:25:00 14.5 C 11.69 g/m*3 14.5 C 0 km/h
871 05-08-2021 00:30:00 14.5 C 11.57 g/m*3 14.5 C 0 km/h
872 05-08-2021 00:35:00 14.5 C 11.69 g/m*3 14.5 C 0 km/h
873 05-08-2021 00:40:00 14.5 C 11.69 g/m*3 14.5 C 0 km/h
874 05-08-2021 00:45:00 14.5 C 11.69 g/m*3 14.5 C 0 km/h
875 05-08-2021 00:50:00 14.5 C 11.69 g/m*3 14.5 C 0 km/h
Sensor: Nr:Datum:Temp:Abs-Feuchte:Windchill:Wind:
Aussen-T/F 876 05-08-2021 00:55:00 14.4 C 11.62 g/m*3 14.4 C 0 km/h
877 05-08-2021 01:00:00 14.4 C 11.62 g/m*3 14.4 C 1.6 km/h
878 05-08-2021 01:05:00 14.4 C 11.5 g/m*3 14.4 C 0 km/h
879 05-08-2021 01:10:00 14.4 C 11.62 g/m*3 14.4 C 0 km/h
880 05-08-2021 01:15:00 14.4 C 11.62 g/m*3 14.4 C 0 km/h
881 05-08-2021 01:20:00 14.5 C 11.69 g/m*3 14.5 C 0 km/h
882 05-08-2021 01:25:00 14.5 C 11.69 g/m*3 14.5 C 1.6 km/h
883 05-08-2021 01:30:00 14.5 C 11.69 g/m*3 14.5 C 0 km/h
884 05-08-2021 01:35:00 14.5 C 11.69 g/m*3 14.5 C 0 km/h
885 05-08-2021 01:40:00 14.5 C 11.69 g/m*3 14.5 C 0 km/h
886 05-08-2021 01:45:00 14.5 C 11.69 g/m*3 14.5 C 0 km/h
887 05-08-2021 01:50:00 14.5 C 11.69 g/m*3 14.5 C 0 km/h
888 05-08-2021 01:55:00 14.6 C 11.76 g/m*3 14.6 C 0 km/h
889 05-08-2021 02:00:00 14.6 C 11.76 g/m*3 14.6 C 0 km/h
890 05-08-2021 02:05:00 14.6 C 11.76 g/m*3 14.6 C 0 km/h
891 05-08-2021 02:10:00 14.6 C 11.76 g/m*3 14.6 C 0 km/h
892 05-08-2021 02:15:00 14.5 C 11.69 g/m*3 14.5 C 0 km/h
893 05-08-2021 02:20:00 14.5 C 11.69 g/m*3 14.5 C 0 km/h
894 05-08-2021 02:25:00 14.5 C 11.69 g/m*3 14.5 C 0 km/h
895 05-08-2021 02:30:00 14.5 C 11.69 g/m*3 14.5 C 0 km/h
896 05-08-2021 02:35:00 14.5 C 11.69 g/m*3 14.5 C 0 km/h
897 05-08-2021 02:40:00 14.4 C 11.62 g/m*3 14.4 C 0 km/h
898 05-08-2021 02:45:00 14.4 C 11.62 g/m*3 14.4 C 0 km/h
899 05-08-2021 02:50:00 14.4 C 11.62 g/m*3 14.4 C 0 km/h
900 05-08-2021 02:55:00 14.4 C 11.62 g/m*3 14.4 C 0 km/h
Sensor: Nr:Datum:Temp:Abs-Feuchte:Windchill:Wind:
Aussen-T/F 901 05-08-2021 03:00:00 14.4 C 11.62 g/m*3 14.4 C 0 km/h
902 05-08-2021 03:05:00 14.4 C 11.62 g/m*3 14.4 C 0 km/h
903 05-08-2021 03:10:00 14.4 C 11.62 g/m*3 14.4 C 0 km/h
904 05-08-2021 03:15:00 14.4 C 11.62 g/m*3 14.4 C 0 km/h
905 05-08-2021 03:20:00 14.4 C 11.62 g/m*3 14.4 C 0 km/h
906 05-08-2021 03:25:00 14.3 C 11.55 g/m*3 14.3 C 0 km/h
907 05-08-2021 03:30:00 14.3 C 11.67 g/m*3 14.3 C 0 km/h
908 05-08-2021 03:35:00 14.3 C 11.67 g/m*3 14.3 C 0 km/h
909 05-08-2021 03:40:00 14.3 C 11.67 g/m*3 14.3 C 0 km/h
910 05-08-2021 03:45:00 14.3 C 11.67 g/m*3 14.3 C 0 km/h
911 05-08-2021 03:50:00 14.3 C 11.67 g/m*3 14.3 C 0 km/h
912 05-08-2021 03:55:00 14.3 C 11.67 g/m*3 14.3 C 0 km/h
913 05-08-2021 04:00:00 14.3 C 11.67 g/m*3 14.3 C 0 km/h
914 05-08-2021 04:05:00 14.3 C 11.67 g/m*3 14.3 C 0 km/h
915 05-08-2021 04:10:00 14.3 C 11.67 g/m*3 14.3 C 0 km/h
916 05-08-2021 04:15:00 14.3 C 11.67 g/m*3 14.3 C 0 km/h
917 05-08-2021 04:20:00 14.3 C 11.67 g/m*3 14.3 C 0 km/h
918 05-08-2021 04:25:00 14.3 C 11.67 g/m*3 14.3 C 0 km/h
919 05-08-2021 04:30:00 14.3 C 11.67 g/m*3 14.3 C 0 km/h
920 05-08-2021 04:35:00 14.3 C 11.67 g/m*3 14.3 C 0 km/h
921 05-08-2021 04:40:00 14.3 C 11.67 g/m*3 14.3 C 0 km/h
922 05-08-2021 04:45:00 14.3 C 11.67 g/m*3 14.3 C 0 km/h
923 05-08-2021 04:50:00 14.3 C 11.67 g/m*3 14.3 C 0 km/h
924 05-08-2021 04:55:00 14.3 C 11.67 g/m*3 14.3 C 0 km/h
925 05-08-2021 05:00:00 14.3 C 11.67 g/m*3 14.3 C 0 km/h
Sensor: Nr:Datum:Temp:Abs-Feuchte:Windchill:Wind:
Aussen-T/F 926 05-08-2021 05:05:00 14.3 C 11.67 g/m*3 14.3 C 0 km/h
927 05-08-2021 05:10:00 14.3 C 11.67 g/m*3 14.3 C 0 km/h
928 05-08-2021 05:15:00 14.3 C 11.67 g/m*3 14.3 C 0 km/h
929 05-08-2021 05:20:00 14.3 C 11.67 g/m*3 14.3 C 0 km/h
930 05-08-2021 05:25:00 14.3 C 11.67 g/m*3 14.3 C 0 km/h
931 05-08-2021 05:30:00 14.2 C 11.6 g/m*3 14.2 C 0 km/h
932 05-08-2021 05:35:00 14.2 C 11.6 g/m*3 14.2 C 0 km/h
933 05-08-2021 05:40:00 14.2 C 11.6 g/m*3 14.2 C 0 km/h
934 05-08-2021 05:45:00 14.2 C 11.6 g/m*3 14.2 C 0 km/h
935 05-08-2021 05:50:00 14.2 C 11.6 g/m*3 14.2 C 0 km/h
936 05-08-2021 05:55:00 14.2 C 11.6 g/m*3 14.2 C 0 km/h
937 05-08-2021 06:00:00 14.2 C 11.72 g/m*3 14.2 C 0 km/h
938 05-08-2021 06:05:00 14.2 C 11.72 g/m*3 14.2 C 0 km/h
939 05-08-2021 06:10:00 14.2 C 11.72 g/m*3 14.2 C 0 km/h
940 05-08-2021 06:15:00 14.2 C 11.72 g/m*3 14.2 C 0 km/h
941 05-08-2021 06:20:00 14.2 C 11.72 g/m*3 14.2 C 0 km/h
942 05-08-2021 06:25:00 14.2 C 11.72 g/m*3 14.2 C 0 km/h
943 05-08-2021 06:30:00 14.3 C 11.79 g/m*3 14.3 C 0 km/h
944 05-08-2021 06:35:00 14.3 C 11.79 g/m*3 14.3 C 0 km/h
945 05-08-2021 06:40:00 14.3 C 11.79 g/m*3 14.3 C 0 km/h
946 05-08-2021 06:45:00 14.3 C 11.79 g/m*3 14.3 C 0 km/h
947 05-08-2021 06:50:00 14.3 C 11.79 g/m*3 14.3 C 0 km/h
948 05-08-2021 06:55:00 14.4 C 11.87 g/m*3 14.4 C 0 km/h
949 05-08-2021 07:00:00 14.4 C 11.87 g/m*3 14.4 C 0 km/h
950 05-08-2021 07:05:00 14.4 C 11.87 g/m*3 14.4 C 0 km/h
Sensor: Nr:Datum:Temp:Abs-Feuchte:Windchill:Wind:
Aussen-T/F 951 05-08-2021 07:10:00 14.4 C 11.87 g/m*3 14.4 C 0 km/h
952 05-08-2021 07:15:00 14.5 C 11.94 g/m*3 14.5 C 0 km/h
953 05-08-2021 07:20:00 14.6 C 12.01 g/m*3 14.6 C 0 km/h
954 05-08-2021 07:25:00 14.6 C 12.01 g/m*3 14.6 C 0 km/h
955 05-08-2021 07:30:00 14.6 C 12.01 g/m*3 14.6 C 0 km/h
956 05-08-2021 07:35:00 14.7 C 12.09 g/m*3 14.7 C 0 km/h
957 05-08-2021 07:40:00 14.7 C 12.09 g/m*3 14.7 C 0 km/h
958 05-08-2021 07:45:00 14.8 C 12.16 g/m*3 14.8 C 0 km/h
959 05-08-2021 07:50:00 14.8 C 12.16 g/m*3 14.8 C 0 km/h
960 05-08-2021 07:55:00 14.8 C 12.16 g/m*3 14.8 C 0 km/h
961 05-08-2021 08:00:00 14.9 C 12.24 g/m*3 14.9 C 0 km/h
962 05-08-2021 08:05:00 15 C 12.31 g/m*3 15 C 0 km/h
963 05-08-2021 08:10:00 15.1 C 12.39 g/m*3 15.1 C 0 km/h
964 05-08-2021 08:15:00 15.1 C 12.39 g/m*3 15.1 C 0 km/h
965 05-08-2021 08:20:00 15.1 C 12.39 g/m*3 15.1 C 0 km/h
966 05-08-2021 08:25:00 15.2 C 12.46 g/m*3 15.2 C 0 km/h
967 05-08-2021 08:30:00 15.2 C 12.33 g/m*3 15.2 C 0 km/h
968 05-08-2021 08:35:00 15.3 C 12.41 g/m*3 15.3 C 0 km/h
969 05-08-2021 08:40:00 15.3 C 12.41 g/m*3 15.3 C 0 km/h
970 05-08-2021 08:45:00 15.4 C 12.61 g/m*3 15.4 C 0 km/h
971 05-08-2021 08:50:00 15.4 C 12.48 g/m*3 15.4 C 0 km/h
972 05-08-2021 08:55:00 15.4 C 12.48 g/m*3 15.4 C 0 km/h
973 05-08-2021 09:00:00 15.5 C 12.56 g/m*3 15.5 C 0 km/h
974 05-08-2021 09:05:00 15.6 C 12.63 g/m*3 15.6 C 0 km/h
975 05-08-2021 09:10:00 15.7 C 12.71 g/m*3 15.7 C 0 km/h
Sensor: Nr:Datum:Temp:Abs-Feuchte:Windchill:Wind:
Aussen-T/F 976 05-08-2021 09:15:00 15.9 C 13 g/m*3 15.9 C 0 km/h
977 05-08-2021 09:20:00 16 C 12.94 g/m*3 16 C 0 km/h
978 05-08-2021 09:25:00 16.1 C 13.02 g/m*3 16.1 C 0 km/h
979 05-08-2021 09:30:00 16.3 C 13.18 g/m*3 16.3 C 0 km/h
980 05-08-2021 09:35:00 16.6 C 13.42 g/m*3 16.6 C 0 km/h
981 05-08-2021 09:40:00 16.7 C 13.36 g/m*3 16.7 C 0 km/h
982 05-08-2021 09:45:00 16.8 C 13.3 g/m*3 16.8 C 0 km/h
983 05-08-2021 09:50:00 17 C 13.46 g/m*3 17 C 0 km/h
984 05-08-2021 09:55:00 17.3 C 13.7 g/m*3 17.3 C 0 km/h
985 05-08-2021 10:00:00 17.5 C 13.57 g/m*3 17.5 C 0 km/h
986 05-08-2021 10:05:00 17.7 C 13.88 g/m*3 17.7 C 0 km/h
987 05-08-2021 10:10:00 18.1 C 14.21 g/m*3 18.1 C 0 km/h
988 05-08-2021 10:15:00 18.2 C 13.83 g/m*3 18.2 C 0 km/h
989 05-08-2021 10:20:00 18.4 C 13.84 g/m*3 18.4 C 0 km/h
990 05-08-2021 10:25:00 18.6 C 13.85 g/m*3 18.6 C 0 km/h
991 05-08-2021 10:30:00 18.7 C 13.93 g/m*3 18.7 C 0 km/h
992 05-08-2021 10:35:00 18.8 C 13.85 g/m*3 18.8 C 0 km/h
993 05-08-2021 10:40:00 18.8 C 14.01 g/m*3 18.8 C 0 km/h
994 05-08-2021 10:45:00 18.9 C 13.93 g/m*3 18.9 C 0 km/h
995 05-08-2021 10:50:00 18.9 C 14.26 g/m*3 18.9 C 0 km/h
996 05-08-2021 10:55:00 19 C 14.34 g/m*3 19 C 0 km/h
997 05-08-2021 11:00:00 19 C 14.18 g/m*3 19 C 0 km/h
998 05-08-2021 11:05:00 19.1 C 14.26 g/m*3 19.1 C 0 km/h
999 05-08-2021 11:10:00 19.1 C 14.1 g/m*3 19.1 C 0 km/h
1000 05-08-2021 11:15:00 19.2 C 13.69 g/m*3 19.2 C 0 km/h
Sensor: Nr:Datum:Temp:Abs-Feuchte:Windchill:Wind:
Aussen-T/F 1001 05-08-2021 11:20:00 19.4 C 13.51 g/m*3 19.4 C 0 km/h
1002 05-08-2021 11:25:00 19.6 C 13.34 g/m*3 19.6 C 0 km/h
1003 05-08-2021 11:30:00 19.8 C 13.49 g/m*3 19.8 C 0 km/h
1004 05-08-2021 11:35:00 20 C 13.65 g/m*3 20 C 0 km/h
1005 05-08-2021 11:40:00 20.1 C 13.39 g/m*3 20.1 C 0 km/h
1006 05-08-2021 11:45:00 20.2 C 13.81 g/m*3 20.2 C 0 km/h
1007 05-08-2021 11:50:00 20.3 C 14.42 g/m*3 20.3 C 0 km/h
1008 05-08-2021 11:55:00 20.4 C 14.86 g/m*3 20.4 C 0 km/h
1009 05-08-2021 12:00:00 20.3 C 13.37 g/m*3 20.3 C 6.4 km/h
1010 05-08-2021 12:05:00 20.4 C 13.27 g/m*3 20.4 C 9.7 km/h
1011 05-08-2021 12:10:00 20.6 C 13.6 g/m*3 20.6 C 8.1 km/h
1012 05-08-2021 12:15:00 20.6 C 13.24 g/m*3 20.6 C 8.1 km/h
1013 05-08-2021 12:20:00 20.6 C 13.42 g/m*3 20.6 C 9.7 km/h
1014 05-08-2021 12:25:00 20.7 C 13.5 g/m*3 20.7 C 9.7 km/h
1015 05-08-2021 12:30:00 20.8 C 13.94 g/m*3 20.8 C 3.2 km/h
1016 05-08-2021 12:35:00 20.9 C 13.3 g/m*3 20.9 C 6.4 km/h
1017 05-08-2021 12:40:00 21.1 C 13.45 g/m*3 21.1 C 6.4 km/h
1018 05-08-2021 12:45:00 21.3 C 13.05 g/m*3 21.3 C 3.2 km/h
1019 05-08-2021 12:50:00 21.4 C 12.37 g/m*3 21.4 C 6.4 km/h
1020 05-08-2021 12:55:00 21.5 C 12.26 g/m*3 21.5 C 6.4 km/h
1021 05-08-2021 13:00:00 21.6 C 12.52 g/m*3 21.6 C 9.7 km/h
1022 05-08-2021 13:05:00 21.8 C 14.58 g/m*3 21.8 C 0 km/h
1023 05-08-2021 13:10:00 21.8 C 13.81 g/m*3 21.8 C 3.2 km/h
1024 05-08-2021 13:15:00 21.8 C 12.85 g/m*3 21.8 C 4.8 km/h
1025 05-08-2021 13:20:00 21.8 C 12.85 g/m*3 21.8 C 9.7 km/h
Sensor: Nr:Datum:Temp:Abs-Feuchte:Windchill:Wind:
Aussen-T/F 1026 05-08-2021 13:25:00 21.8 C 13.62 g/m*3 21.8 C 3.2 km/h
1027 05-08-2021 13:30:00 21.9 C 14.09 g/m*3 21.9 C 0 km/h
1028 05-08-2021 13:35:00 21.8 C 13.24 g/m*3 21.8 C 6.4 km/h
1029 05-08-2021 13:40:00 21.7 C 12.59 g/m*3 21.7 C 6.4 km/h
1030 05-08-2021 13:45:00 21.6 C 12.9 g/m*3 21.6 C 3.2 km/h
1031 05-08-2021 13:50:00 21.7 C 14.88 g/m*3 21.7 C 4.8 km/h
1032 05-08-2021 13:55:00 21.6 C 14.03 g/m*3 21.6 C 1.6 km/h
1033 05-08-2021 14:00:00 21.6 C 13.28 g/m*3 21.6 C 8.1 km/h
1034 05-08-2021 14:05:00 21.8 C 14.58 g/m*3 21.8 C 6.4 km/h
1035 05-08-2021 14:10:00 21.8 C 14.2 g/m*3 21.8 C 4.8 km/h
1036 05-08-2021 14:15:00 21.8 C 13.62 g/m*3 21.8 C 6.4 km/h
1037 05-08-2021 14:20:00 21.9 C 13.31 g/m*3 21.9 C 8.1 km/h
1038 05-08-2021 14:25:00 22.1 C 14.05 g/m*3 22.1 C 8.1 km/h
1039 05-08-2021 14:30:00 22.3 C 14.41 g/m*3 22.3 C 8.1 km/h
1040 05-08-2021 14:35:00 22.3 C 14.22 g/m*3 22.3 C 3.2 km/h
1041 05-08-2021 14:40:00 22.2 C 13.55 g/m*3 22.2 C 6.4 km/h
1042 05-08-2021 14:45:00 22.2 C 14.14 g/m*3 22.2 C 4.8 km/h
1043 05-08-2021 14:50:00 22.3 C 14.41 g/m*3 22.3 C 3.2 km/h
1044 05-08-2021 14:55:00 22.3 C 14.22 g/m*3 22.3 C 6.4 km/h
1045 05-08-2021 15:00:00 22.2 C 13.55 g/m*3 22.2 C 8.1 km/h
1046 05-08-2021 15:05:00 22.3 C 15.01 g/m*3 22.3 C 0 km/h
1047 05-08-2021 15:10:00 22.2 C 14.53 g/m*3 22.2 C 1.6 km/h
1048 05-08-2021 15:15:00 22.2 C 14.14 g/m*3 22.2 C 0 km/h
1049 05-08-2021 15:20:00 22.2 C 14.33 g/m*3 22.2 C 0 km/h
1050 05-08-2021 15:25:00 22.3 C 14.02 g/m*3 22.3 C 6.4 km/h
Sensor: Nr:Datum:Temp:Abs-Feuchte:Windchill:Wind:
Aussen-T/F 1051 05-08-2021 15:30:00 22.4 C 14.1 g/m*3 22.4 C 8.1 km/h
1052 05-08-2021 15:35:00 22.8 C 14.63 g/m*3 22.8 C 6.4 km/h
1053 05-08-2021 15:40:00 23.1 C 14.06 g/m*3 23.1 C 11.3 km/h
1054 05-08-2021 15:45:00 23.2 C 13.31 g/m*3 23.2 C 6.4 km/h
1055 05-08-2021 15:50:00 23.2 C 14.55 g/m*3 23.2 C 6.4 km/h
1056 05-08-2021 15:55:00 22.9 C 14.1 g/m*3 22.9 C 4.8 km/h
1057 05-08-2021 16:00:00 22.8 C 14.02 g/m*3 22.8 C 3.2 km/h
1058 05-08-2021 16:05:00 22.8 C 14.63 g/m*3 22.8 C 0 km/h
1059 05-08-2021 16:10:00 22.9 C 14.51 g/m*3 22.9 C 6.4 km/h
1060 05-08-2021 16:15:00 22.8 C 13.41 g/m*3 22.8 C 8.1 km/h
1061 05-08-2021 16:20:00 22.7 C 13.54 g/m*3 22.7 C 16.1 km/h
1062 05-08-2021 16:25:00 21.9 C 13.31 g/m*3 21.9 C 16.1 km/h
1063 05-08-2021 16:30:00 21.1 C 13.27 g/m*3 21.1 C 14.5 km/h
1064 05-08-2021 16:35:00 20.3 C 13.89 g/m*3 20.3 C 9.7 km/h
1065 05-08-2021 16:40:00 19.9 C 14.09 g/m*3 19.9 C 3.2 km/h
1066 05-08-2021 16:45:00 19.5 C 14.1 g/m*3 19.5 C 6.4 km/h
1067 05-08-2021 16:50:00 19.3 C 14.43 g/m*3 19.3 C 4.8 km/h
1068 05-08-2021 16:55:00 19.2 C 14.51 g/m*3 19.2 C 4.8 km/h
1069 05-08-2021 17:00:00 19.2 C 14.68 g/m*3 19.2 C 0 km/h
1070 05-08-2021 17:05:00 19 C 14.5 g/m*3 19 C 1.6 km/h
1071 05-08-2021 17:10:00 18.9 C 14.42 g/m*3 18.9 C 0 km/h
1072 05-08-2021 17:15:00 18.8 C 14.17 g/m*3 18.8 C 6.4 km/h
1073 05-08-2021 17:20:00 18.6 C 14.17 g/m*3 18.6 C 4.8 km/h
1074 05-08-2021 17:25:00 18.6 C 14.17 g/m*3 18.6 C 1.6 km/h
1075 05-08-2021 17:30:00 18.6 C 14.32 g/m*3 18.6 C 1.6 km/h
Sensor: Nr:Datum:Temp:Abs-Feuchte:Windchill:Wind:
Aussen-T/F 1076 05-08-2021 17:35:00 18.6 C 14.32 g/m*3 18.6 C 1.6 km/h
1077 05-08-2021 17:40:00 18.7 C 14.41 g/m*3 18.7 C 0 km/h
1078 05-08-2021 17:45:00 18.6 C 14.17 g/m*3 18.6 C 1.6 km/h
1079 05-08-2021 17:50:00 18.6 C 14.32 g/m*3 18.6 C 0 km/h
1080 05-08-2021 17:55:00 18.6 C 14.32 g/m*3 18.6 C 0 km/h
1081 05-08-2021 18:00:00 18.6 C 14.17 g/m*3 18.6 C 0 km/h
1082 05-08-2021 18:05:00 18.6 C 14.32 g/m*3 18.6 C 0 km/h
1083 05-08-2021 18:10:00 18.6 C 14.32 g/m*3 18.6 C 0 km/h
1084 05-08-2021 18:15:00 18.6 C 14.32 g/m*3 18.6 C 0 km/h
1085 05-08-2021 18:20:00 18.8 C 14.66 g/m*3 18.8 C 0 km/h
1086 05-08-2021 18:25:00 19.2 C 15.01 g/m*3 19.2 C 4.8 km/h
1087 05-08-2021 18:30:00 19.7 C 15.11 g/m*3 19.7 C 4.8 km/h
1088 05-08-2021 18:35:00 20.1 C 15.3 g/m*3 20.1 C 3.2 km/h
1089 05-08-2021 18:40:00 20.4 C 15.39 g/m*3 20.4 C 4.8 km/h
1090 05-08-2021 18:45:00 20.6 C 15.39 g/m*3 20.6 C 3.2 km/h
1091 05-08-2021 18:50:00 20.4 C 15.04 g/m*3 20.4 C 1.6 km/h
1092 05-08-2021 18:55:00 20.3 C 15.13 g/m*3 20.3 C 3.2 km/h
1093 05-08-2021 19:00:00 20.3 C 15.3 g/m*3 20.3 C 1.6 km/h
1094 05-08-2021 19:05:00 20.3 C 15.48 g/m*3 20.3 C 0 km/h
1095 05-08-2021 19:10:00 20.4 C 15.57 g/m*3 20.4 C 0 km/h
1096 05-08-2021 19:15:00 20.3 C 15.3 g/m*3 20.3 C 0 km/h
1097 05-08-2021 19:20:00 20.2 C 15.04 g/m*3 20.2 C 0 km/h
1098 05-08-2021 19:25:00 20.3 C 15.48 g/m*3 20.3 C 0 km/h
1099 05-08-2021 19:30:00 20.3 C 15.3 g/m*3 20.3 C 0 km/h
1100 05-08-2021 19:35:00 20.2 C 15.39 g/m*3 20.2 C 0 km/h
Sensor: Nr:Datum:Temp:Abs-Feuchte:Windchill:Wind:
Aussen-T/F 1101 05-08-2021 19:40:00 20.3 C 15.65 g/m*3 20.3 C 0 km/h
1102 05-08-2021 19:45:00 20.3 C 15.65 g/m*3 20.3 C 0 km/h
1103 05-08-2021 19:50:00 20.3 C 15.65 g/m*3 20.3 C 0 km/h
1104 05-08-2021 19:55:00 20.2 C 15.39 g/m*3 20.2 C 3.2 km/h
1105 05-08-2021 20:00:00 20.1 C 15.3 g/m*3 20.1 C 0 km/h
1106 05-08-2021 20:05:00 19.9 C 14.95 g/m*3 19.9 C 3.2 km/h
1107 05-08-2021 20:10:00 19.7 C 14.94 g/m*3 19.7 C 1.6 km/h
1108 05-08-2021 20:15:00 19.4 C 14.68 g/m*3 19.4 C 1.6 km/h
1109 05-08-2021 20:20:00 19.3 C 14.76 g/m*3 19.3 C 1.6 km/h
1110 05-08-2021 20:25:00 19.3 C 14.76 g/m*3 19.3 C 0 km/h
1111 05-08-2021 20:30:00 19.2 C 14.84 g/m*3 19.2 C 0 km/h
1112 05-08-2021 20:35:00 19.2 C 14.84 g/m*3 19.2 C 0 km/h
1113 05-08-2021 20:40:00 19.1 C 14.75 g/m*3 19.1 C 3.2 km/h
1114 05-08-2021 20:45:00 18.9 C 14.58 g/m*3 18.9 C 3.2 km/h
1115 05-08-2021 20:50:00 18.8 C 14.49 g/m*3 18.8 C 3.2 km/h
1116 05-08-2021 20:55:00 18.6 C 14.32 g/m*3 18.6 C 3.2 km/h
1117 05-08-2021 21:00:00 18.4 C 14.16 g/m*3 18.4 C 1.6 km/h
1118 05-08-2021 21:05:00 18.3 C 14.23 g/m*3 18.3 C 3.2 km/h
1119 05-08-2021 21:10:00 18.2 C 14.14 g/m*3 18.2 C 4.8 km/h
1120 05-08-2021 21:15:00 18.2 C 14.3 g/m*3 18.2 C 8.1 km/h
1121 05-08-2021 21:20:00 18.1 C 14.21 g/m*3 18.1 C 6.4 km/h
1122 05-08-2021 21:25:00 18.1 C 14.21 g/m*3 18.1 C 6.4 km/h
1123 05-08-2021 21:30:00 18.1 C 14.21 g/m*3 18.1 C 1.6 km/h
1124 05-08-2021 21:35:00 18 C 14.13 g/m*3 18 C 4.8 km/h
1125 05-08-2021 21:40:00 17.9 C 14.05 g/m*3 17.9 C 3.2 km/h
Sensor: Nr:Datum:Temp:Abs-Feuchte:Windchill:Wind:
Aussen-T/F 1126 05-08-2021 21:45:00 17.8 C 13.96 g/m*3 17.8 C 4.8 km/h
1127 05-08-2021 21:50:00 17.7 C 13.88 g/m*3 17.7 C 6.4 km/h
1128 05-08-2021 21:55:00 17.6 C 13.8 g/m*3 17.6 C 6.4 km/h
1129 05-08-2021 22:00:00 17.5 C 13.72 g/m*3 17.5 C 6.4 km/h
1130 05-08-2021 22:05:00 17.4 C 13.63 g/m*3 17.4 C 3.2 km/h
1131 05-08-2021 22:10:00 17.4 C 13.63 g/m*3 17.4 C 1.6 km/h
1132 05-08-2021 22:15:00 17.3 C 13.55 g/m*3 17.3 C 0 km/h
1133 05-08-2021 22:20:00 17.2 C 13.47 g/m*3 17.2 C 0 km/h
1134 05-08-2021 22:25:00 17 C 13.31 g/m*3 17 C 0 km/h
1135 05-08-2021 22:30:00 16.8 C 13.15 g/m*3 16.8 C 0 km/h
1136 05-08-2021 22:35:00 16.7 C 13.07 g/m*3 16.7 C 0 km/h
1137 05-08-2021 22:40:00 16.5 C 13.06 g/m*3 16.5 C 0 km/h
1138 05-08-2021 22:45:00 16.4 C 12.98 g/m*3 16.4 C 0 km/h
1139 05-08-2021 22:50:00 16.3 C 12.9 g/m*3 16.3 C 0 km/h
1140 05-08-2021 22:55:00 16.2 C 12.82 g/m*3 16.2 C 0 km/h
1141 05-08-2021 23:00:00 16.1 C 12.75 g/m*3 16.1 C 0 km/h
1142 05-08-2021 23:05:00 16.1 C 12.88 g/m*3 16.1 C 0 km/h
1143 05-08-2021 23:10:00 16.1 C 12.88 g/m*3 16.1 C 0 km/h
1144 05-08-2021 23:15:00 16 C 12.81 g/m*3 16 C 0 km/h
1145 05-08-2021 23:20:00 15.9 C 12.73 g/m*3 15.9 C 0 km/h
1146 05-08-2021 23:25:00 15.8 C 12.65 g/m*3 15.8 C 0 km/h
1147 05-08-2021 23:30:00 15.7 C 12.58 g/m*3 15.7 C 0 km/h
1148 05-08-2021 23:35:00 15.6 C 12.5 g/m*3 15.6 C 0 km/h
1149 05-08-2021 23:40:00 15.5 C 12.43 g/m*3 15.5 C 0 km/h
1150 05-08-2021 23:45:00 15.4 C 12.35 g/m*3 15.4 C 0 km/h
Sensor: Nr:Datum:Temp:Abs-Feuchte:Windchill:Wind:
Aussen-T/F 1151 05-08-2021 23:50:00 15.4 C 12.35 g/m*3 15.4 C 0 km/h
1152 05-08-2021 23:55:00 15.4 C 12.48 g/m*3 15.4 C 0 km/h
1153 06-08-2021 00:00:00 15.4 C 12.48 g/m*3 15.4 C 0 km/h
1154 06-08-2021 00:05:00 15.4 C 12.48 g/m*3 15.4 C 0 km/h
1155 06-08-2021 00:10:00 15.5 C 12.56 g/m*3 15.5 C 0 km/h
1156 06-08-2021 00:15:00 15.5 C 12.56 g/m*3 15.5 C 0 km/h
1157 06-08-2021 00:20:00 15.4 C 12.48 g/m*3 15.4 C 0 km/h
1158 06-08-2021 00:25:00 15.4 C 12.48 g/m*3 15.4 C 0 km/h
1159 06-08-2021 00:30:00 15.3 C 12.41 g/m*3 15.3 C 0 km/h
1160 06-08-2021 00:35:00 15.3 C 12.41 g/m*3 15.3 C 0 km/h
1161 06-08-2021 00:40:00 15.3 C 12.41 g/m*3 15.3 C 0 km/h
1162 06-08-2021 00:45:00 15.2 C 12.33 g/m*3 15.2 C 0 km/h
1163 06-08-2021 00:50:00 15.2 C 12.33 g/m*3 15.2 C 0 km/h
1164 06-08-2021 00:55:00 15.1 C 12.26 g/m*3 15.1 C 0 km/h
1165 06-08-2021 01:00:00 15.1 C 12.26 g/m*3 15.1 C 0 km/h
1166 06-08-2021 01:05:00 15 C 12.18 g/m*3 15 C 0 km/h
1167 06-08-2021 01:10:00 14.9 C 12.11 g/m*3 14.9 C 0 km/h
1168 06-08-2021 01:15:00 14.9 C 12.11 g/m*3 14.9 C 0 km/h
1169 06-08-2021 01:20:00 14.9 C 12.11 g/m*3 14.9 C 0 km/h
1170 06-08-2021 01:25:00 14.8 C 12.03 g/m*3 14.8 C 0 km/h
1171 06-08-2021 01:30:00 14.8 C 12.03 g/m*3 14.8 C 0 km/h
1172 06-08-2021 01:35:00 14.8 C 12.03 g/m*3 14.8 C 0 km/h
1173 06-08-2021 01:40:00 14.8 C 12.03 g/m*3 14.8 C 0 km/h
1174 06-08-2021 01:45:00 14.8 C 12.16 g/m*3 14.8 C 0 km/h
1175 06-08-2021 01:50:00 14.8 C 12.16 g/m*3 14.8 C 0 km/h
Sensor: Nr:Datum:Temp:Abs-Feuchte:Windchill:Wind:
Aussen-T/F 1176 06-08-2021 01:55:00 14.9 C 12.24 g/m*3 14.9 C 0 km/h
1177 06-08-2021 02:00:00 14.9 C 12.24 g/m*3 14.9 C 0 km/h
1178 06-08-2021 02:05:00 14.9 C 12.24 g/m*3 14.9 C 0 km/h
1179 06-08-2021 02:10:00 14.9 C 12.24 g/m*3 14.9 C 0 km/h
1180 06-08-2021 02:15:00 14.9 C 12.24 g/m*3 14.9 C 0 km/h
1181 06-08-2021 02:20:00 15 C 12.31 g/m*3 15 C 0 km/h
1182 06-08-2021 02:25:00 14.9 C 12.24 g/m*3 14.9 C 0 km/h
1183 06-08-2021 02:30:00 14.9 C 12.24 g/m*3 14.9 C 0 km/h
1184 06-08-2021 02:35:00 14.8 C 12.16 g/m*3 14.8 C 0 km/h
1185 06-08-2021 02:40:00 14.7 C 12.09 g/m*3 14.7 C 0 km/h
1186 06-08-2021 02:45:00 14.7 C 12.09 g/m*3 14.7 C 0 km/h
1187 06-08-2021 02:50:00 14.7 C 12.09 g/m*3 14.7 C 0 km/h
1188 06-08-2021 02:55:00 14.7 C 12.09 g/m*3 14.7 C 0 km/h
1189 06-08-2021 03:00:00 14.7 C 12.09 g/m*3 14.7 C 0 km/h
1190 06-08-2021 03:05:00 14.7 C 12.09 g/m*3 14.7 C 0 km/h
1191 06-08-2021 03:10:00 14.7 C 12.09 g/m*3 14.7 C 0 km/h
1192 06-08-2021 03:15:00 14.6 C 12.01 g/m*3 14.6 C 0 km/h
1193 06-08-2021 03:20:00 14.6 C 12.01 g/m*3 14.6 C 0 km/h
1194 06-08-2021 03:25:00 14.4 C 11.87 g/m*3 14.4 C 0 km/h
1195 06-08-2021 03:30:00 14.4 C 11.87 g/m*3 14.4 C 0 km/h
1196 06-08-2021 03:35:00 14.3 C 11.79 g/m*3 14.3 C 0 km/h
1197 06-08-2021 03:40:00 14.3 C 11.79 g/m*3 14.3 C 0 km/h
1198 06-08-2021 03:45:00 14.3 C 11.79 g/m*3 14.3 C 0 km/h
1199 06-08-2021 03:50:00 14.3 C 11.79 g/m*3 14.3 C 0 km/h
1200 06-08-2021 03:55:00 14.4 C 11.87 g/m*3 14.4 C 0 km/h
Sensor: Nr:Datum:Temp:Abs-Feuchte:Windchill:Wind:
Aussen-T/F 1201 06-08-2021 04:00:00 14.4 C 11.87 g/m*3 14.4 C 0 km/h
1202 06-08-2021 04:05:00 14.5 C 11.94 g/m*3 14.5 C 0 km/h
1203 06-08-2021 04:10:00 14.6 C 12.01 g/m*3 14.6 C 0 km/h
1204 06-08-2021 04:15:00 14.6 C 12.01 g/m*3 14.6 C 0 km/h
1205 06-08-2021 04:20:00 14.7 C 12.09 g/m*3 14.7 C 0 km/h
1206 06-08-2021 04:25:00 14.7 C 12.09 g/m*3 14.7 C 0 km/h
1207 06-08-2021 04:30:00 14.8 C 12.16 g/m*3 14.8 C 0 km/h
1208 06-08-2021 04:35:00 14.8 C 12.16 g/m*3 14.8 C 0 km/h
1209 06-08-2021 04:40:00 14.8 C 12.29 g/m*3 14.8 C 0 km/h
1210 06-08-2021 04:45:00 14.8 C 12.29 g/m*3 14.8 C 0 km/h
1211 06-08-2021 04:50:00 14.9 C 12.36 g/m*3 14.9 C 0 km/h
1212 06-08-2021 04:55:00 14.9 C 12.36 g/m*3 14.9 C 0 km/h
1213 06-08-2021 05:00:00 15 C 12.44 g/m*3 15 C 0 km/h
1214 06-08-2021 05:05:00 15.1 C 12.51 g/m*3 15.1 C 0 km/h
1215 06-08-2021 05:10:00 15.1 C 12.51 g/m*3 15.1 C 0 km/h
1216 06-08-2021 05:15:00 15.2 C 12.59 g/m*3 15.2 C 0 km/h
1217 06-08-2021 05:20:00 15.2 C 12.59 g/m*3 15.2 C 0 km/h
1218 06-08-2021 05:25:00 15.2 C 12.59 g/m*3 15.2 C 0 km/h
1219 06-08-2021 05:30:00 15.3 C 12.67 g/m*3 15.3 C 0 km/h
1220 06-08-2021 05:35:00 15.3 C 12.67 g/m*3 15.3 C 0 km/h
1221 06-08-2021 05:40:00 15.3 C 12.67 g/m*3 15.3 C 0 km/h
1222 06-08-2021 05:45:00 15.4 C 12.74 g/m*3 15.4 C 0 km/h
1223 06-08-2021 05:50:00 15.4 C 12.74 g/m*3 15.4 C 0 km/h
1224 06-08-2021 05:55:00 15.4 C 12.74 g/m*3 15.4 C 0 km/h
1225 06-08-2021 06:00:00 15.4 C 12.74 g/m*3 15.4 C 0 km/h
Sensor: Nr:Datum:Temp:Abs-Feuchte:Windchill:Wind:
Aussen-T/F 1226 06-08-2021 06:05:00 15.5 C 12.82 g/m*3 15.5 C 0 km/h
1227 06-08-2021 06:10:00 15.5 C 12.82 g/m*3 15.5 C 0 km/h
1228 06-08-2021 06:15:00 15.6 C 12.9 g/m*3 15.6 C 0 km/h
1229 06-08-2021 06:20:00 15.6 C 12.9 g/m*3 15.6 C 0 km/h
1230 06-08-2021 06:25:00 15.6 C 12.9 g/m*3 15.6 C 0 km/h
1231 06-08-2021 06:30:00 15.7 C 12.98 g/m*3 15.7 C 0 km/h
1232 06-08-2021 06:35:00 15.7 C 12.98 g/m*3 15.7 C 0 km/h
1233 06-08-2021 06:40:00 15.7 C 12.98 g/m*3 15.7 C 0 km/h
1234 06-08-2021 06:45:00 15.7 C 12.98 g/m*3 15.7 C 0 km/h
1235 06-08-2021 06:50:00 15.7 C 12.98 g/m*3 15.7 C 0 km/h
1236 06-08-2021 06:55:00 15.7 C 12.98 g/m*3 15.7 C 0 km/h
1237 06-08-2021 07:00:00 15.7 C 12.98 g/m*3 15.7 C 0 km/h
1238 06-08-2021 07:05:00 15.7 C 12.98 g/m*3 15.7 C 0 km/h
1239 06-08-2021 07:10:00 15.8 C 13.06 g/m*3 15.8 C 0 km/h
1240 06-08-2021 07:15:00 15.8 C 13.06 g/m*3 15.8 C 0 km/h
1241 06-08-2021 07:20:00 15.9 C 13.14 g/m*3 15.9 C 0 km/h
1242 06-08-2021 07:25:00 15.9 C 13.14 g/m*3 15.9 C 0 km/h
1243 06-08-2021 07:30:00 15.9 C 13.14 g/m*3 15.9 C 0 km/h
1244 06-08-2021 07:35:00 16 C 13.22 g/m*3 16 C 0 km/h
1245 06-08-2021 07:40:00 16.1 C 13.3 g/m*3 16.1 C 0 km/h
1246 06-08-2021 07:45:00 16.1 C 13.3 g/m*3 16.1 C 0 km/h
1247 06-08-2021 07:50:00 16.3 C 13.46 g/m*3 16.3 C 0 km/h
1248 06-08-2021 07:55:00 16.4 C 13.54 g/m*3 16.4 C 0 km/h
1249 06-08-2021 08:00:00 16.4 C 13.54 g/m*3 16.4 C 0 km/h
1250 06-08-2021 08:05:00 16.4 C 13.54 g/m*3 16.4 C 0 km/h
Sensor: Nr:Datum:Temp:Abs-Feuchte:Windchill:Wind:
Aussen-T/F 1251 06-08-2021 08:10:00 16.5 C 13.62 g/m*3 16.5 C 0 km/h
1252 06-08-2021 08:15:00 16.6 C 13.7 g/m*3 16.6 C 0 km/h
1253 06-08-2021 08:20:00 16.7 C 13.79 g/m*3 16.7 C 0 km/h
1254 06-08-2021 08:25:00 16.7 C 13.79 g/m*3 16.7 C 0 km/h
1255 06-08-2021 08:30:00 16.8 C 13.87 g/m*3 16.8 C 0 km/h
1256 06-08-2021 08:35:00 16.9 C 13.95 g/m*3 16.9 C 0 km/h
1257 06-08-2021 08:40:00 16.9 C 13.95 g/m*3 16.9 C 0 km/h
1258 06-08-2021 08:45:00 17 C 14.04 g/m*3 17 C 11.3 km/h
1259 06-08-2021 08:50:00 17.2 C 14.2 g/m*3 17.2 C 0 km/h
1260 06-08-2021 08:55:00 17.1 C 14.12 g/m*3 17.1 C 11.3 km/h
1261 06-08-2021 09:00:00 17.2 C 14.2 g/m*3 17.2 C 6.4 km/h
1262 06-08-2021 09:05:00 17.2 C 14.2 g/m*3 17.2 C 9.7 km/h
1263 06-08-2021 09:10:00 17.2 C 14.06 g/m*3 17.2 C 0 km/h
1264 06-08-2021 09:15:00 17.2 C 14.06 g/m*3 17.2 C 4.8 km/h
1265 06-08-2021 09:20:00 17.2 C 14.06 g/m*3 17.2 C 3.2 km/h
1266 06-08-2021 09:25:00 17.2 C 14.06 g/m*3 17.2 C 6.4 km/h
1267 06-08-2021 09:30:00 17.3 C 14.14 g/m*3 17.3 C 3.2 km/h
1268 06-08-2021 09:35:00 17.2 C 14.06 g/m*3 17.2 C 4.8 km/h
1269 06-08-2021 09:40:00 17.3 C 14.14 g/m*3 17.3 C 1.6 km/h
1270 06-08-2021 09:45:00 17.2 C 14.06 g/m*3 17.2 C 11.3 km/h
1271 06-08-2021 09:50:00 17.3 C 14.14 g/m*3 17.3 C 4.8 km/h
1272 06-08-2021 09:55:00 17.5 C 14.31 g/m*3 17.5 C 11.3 km/h
1273 06-08-2021 10:00:00 17.6 C 14.25 g/m*3 17.6 C 9.7 km/h
1274 06-08-2021 10:05:00 17.7 C 14.33 g/m*3 17.7 C 4.8 km/h
1275 06-08-2021 10:10:00 17.7 C 14.18 g/m*3 17.7 C 4.8 km/h
Sensor: Nr:Datum:Temp:Abs-Feuchte:Windchill:Wind:
Aussen-T/F 1276 06-08-2021 10:15:00 17.8 C 14.27 g/m*3 17.8 C 9.7 km/h
1277 06-08-2021 10:20:00 17.8 C 14.12 g/m*3 17.8 C 6.4 km/h
1278 06-08-2021 10:25:00 17.9 C 14.05 g/m*3 17.9 C 11.3 km/h
1279 06-08-2021 10:30:00 18.1 C 14.06 g/m*3 18.1 C 11.3 km/h
1280 06-08-2021 10:35:00 18.3 C 14.07 g/m*3 18.3 C 12.9 km/h
1281 06-08-2021 10:40:00 18.5 C 14.08 g/m*3 18.5 C 12.9 km/h
1282 06-08-2021 10:45:00 18.7 C 14.09 g/m*3 18.7 C 20.9 km/h
1283 06-08-2021 10:50:00 18.8 C 14.17 g/m*3 18.8 C 12.9 km/h
1284 06-08-2021 10:55:00 19 C 14.01 g/m*3 19 C 12.9 km/h
1285 06-08-2021 11:00:00 19.1 C 14.1 g/m*3 19.1 C 14.5 km/h
1286 06-08-2021 11:05:00 19.1 C 13.93 g/m*3 19.1 C 14.5 km/h
1287 06-08-2021 11:10:00 19.1 C 13.93 g/m*3 19.1 C 11.3 km/h
1288 06-08-2021 11:15:00 19.1 C 14.1 g/m*3 19.1 C 12.9 km/h
1289 06-08-2021 11:20:00 19.2 C 14.18 g/m*3 19.2 C 14.5 km/h
1290 06-08-2021 11:25:00 19.2 C 14.02 g/m*3 19.2 C 11.3 km/h
1291 06-08-2021 11:30:00 19.2 C 13.85 g/m*3 19.2 C 17.7 km/h
1292 06-08-2021 11:35:00 19.2 C 14.02 g/m*3 19.2 C 11.3 km/h
1293 06-08-2021 11:40:00 19.2 C 14.02 g/m*3 19.2 C 11.3 km/h
1294 06-08-2021 11:45:00 19.2 C 14.18 g/m*3 19.2 C 11.3 km/h
1295 06-08-2021 11:50:00 19.1 C 13.77 g/m*3 19.1 C 16.1 km/h
1296 06-08-2021 11:55:00 19.2 C 14.02 g/m*3 19.2 C 12.9 km/h
1297 06-08-2021 12:00:00 19.3 C 13.93 g/m*3 19.3 C 16.1 km/h
1298 06-08-2021 12:05:00 19.4 C 13.85 g/m*3 19.4 C 16.1 km/h
1299 06-08-2021 12:10:00 19.4 C 13.85 g/m*3 19.4 C 14.5 km/h
1300 06-08-2021 12:15:00 19.4 C 14.01 g/m*3 19.4 C 11.3 km/h
Sensor: Nr:Datum:Temp:Abs-Feuchte:Windchill:Wind:
Aussen-T/F 1301 06-08-2021 12:20:00 19.5 C 13.93 g/m*3 19.5 C 16.1 km/h
1302 06-08-2021 12:25:00 19.6 C 13.84 g/m*3 19.6 C 19.3 km/h
1303 06-08-2021 12:30:00 19.8 C 13.84 g/m*3 19.8 C 19.3 km/h
1304 06-08-2021 12:35:00 19.9 C 13.92 g/m*3 19.9 C 14.5 km/h
1305 06-08-2021 12:40:00 20.1 C 14.08 g/m*3 20.1 C 11.3 km/h
1306 06-08-2021 12:45:00 20.3 C 13.72 g/m*3 20.3 C 19.3 km/h
1307 06-08-2021 12:50:00 20.6 C 13.96 g/m*3 20.6 C 14.5 km/h
1308 06-08-2021 12:55:00 20.9 C 14.02 g/m*3 20.9 C 14.5 km/h
1309 06-08-2021 13:00:00 21.2 C 13.71 g/m*3 21.2 C 17.7 km/h
1310 06-08-2021 13:05:00 21.3 C 14.35 g/m*3 21.3 C 12.9 km/h
1311 06-08-2021 13:10:00 21.2 C 13.9 g/m*3 21.2 C 16.1 km/h
1312 06-08-2021 13:15:00 21.1 C 13.63 g/m*3 21.1 C 11.3 km/h
1313 06-08-2021 13:20:00 21 C 13.92 g/m*3 21 C 14.5 km/h
1314 06-08-2021 13:25:00 21.1 C 13.63 g/m*3 21.1 C 12.9 km/h
1315 06-08-2021 13:30:00 21.3 C 13.61 g/m*3 21.3 C 27.4 km/h
1316 06-08-2021 13:35:00 21.3 C 13.42 g/m*3 21.3 C 27.4 km/h
1317 06-08-2021 13:40:00 21.2 C 13.34 g/m*3 21.2 C 17.7 km/h
1318 06-08-2021 13:45:00 21.1 C 13.27 g/m*3 21.1 C 12.9 km/h
1319 06-08-2021 13:50:00 20.9 C 12.75 g/m*3 20.9 C 20.9 km/h
1320 06-08-2021 13:55:00 20.7 C 12.96 g/m*3 20.7 C 16.1 km/h
1321 06-08-2021 14:00:00 20.6 C 12.89 g/m*3 20.6 C 16.1 km/h
1322 06-08-2021 14:05:00 20.6 C 13.6 g/m*3 20.6 C 17.7 km/h
1323 06-08-2021 14:10:00 20.6 C 13.42 g/m*3 20.6 C 12.9 km/h
1324 06-08-2021 14:15:00 20.8 C 13.4 g/m*3 20.8 C 19.3 km/h
1325 06-08-2021 14:20:00 20.9 C 13.3 g/m*3 20.9 C 16.1 km/h
Sensor: Nr:Datum:Temp:Abs-Feuchte:Windchill:Wind:
Aussen-T/F 1326 06-08-2021 14:25:00 20.9 C 13.66 g/m*3 20.9 C 19.3 km/h
1327 06-08-2021 14:30:00 20.9 C 13.3 g/m*3 20.9 C 19.3 km/h
1328 06-08-2021 14:35:00 20.8 C 13.22 g/m*3 20.8 C 16.1 km/h
1329 06-08-2021 14:40:00 20.7 C 13.14 g/m*3 20.7 C 12.9 km/h
1330 06-08-2021 14:45:00 20.6 C 13.24 g/m*3 20.6 C 14.5 km/h
1331 06-08-2021 14:50:00 20.8 C 13.4 g/m*3 20.8 C 14.5 km/h
1332 06-08-2021 14:55:00 21.1 C 13.45 g/m*3 21.1 C 17.7 km/h
1333 06-08-2021 15:00:00 21.3 C 13.42 g/m*3 21.3 C 16.1 km/h
1334 06-08-2021 15:05:00 21.3 C 13.42 g/m*3 21.3 C 14.5 km/h
1335 06-08-2021 15:10:00 21.4 C 13.69 g/m*3 21.4 C 12.9 km/h
1336 06-08-2021 15:15:00 21.3 C 13.61 g/m*3 21.3 C 19.3 km/h
1337 06-08-2021 15:20:00 21.2 C 13.34 g/m*3 21.2 C 20.9 km/h
1338 06-08-2021 15:25:00 21.1 C 13.27 g/m*3 21.1 C 17.7 km/h
1339 06-08-2021 15:30:00 20.9 C 13.48 g/m*3 20.9 C 22.5 km/h
1340 06-08-2021 15:35:00 20.7 C 13.32 g/m*3 20.7 C 19.3 km/h
1341 06-08-2021 15:40:00 20.9 C 13.66 g/m*3 20.9 C 14.5 km/h
1342 06-08-2021 15:45:00 21.5 C 14.14 g/m*3 21.5 C 19.3 km/h
1343 06-08-2021 15:50:00 21.9 C 13.89 g/m*3 21.9 C 19.3 km/h
1344 06-08-2021 15:55:00 22.3 C 13.82 g/m*3 22.3 C 19.3 km/h
1345 06-08-2021 16:00:00 22.4 C 13.7 g/m*3 22.4 C 16.1 km/h
1346 06-08-2021 16:05:00 22.2 C 13.55 g/m*3 22.2 C 17.7 km/h
1347 06-08-2021 16:10:00 21.9 C 13.51 g/m*3 21.9 C 16.1 km/h
1348 06-08-2021 16:15:00 21.8 C 13.43 g/m*3 21.8 C 12.9 km/h
1349 06-08-2021 16:20:00 21.8 C 13.43 g/m*3 21.8 C 19.3 km/h
1350 06-08-2021 16:25:00 21.9 C 13.51 g/m*3 21.9 C 9.7 km/h
Sensor: Nr:Datum:Temp:Abs-Feuchte:Windchill:Wind:
Aussen-T/F 1351 06-08-2021 16:30:00 22.4 C 13.7 g/m*3 22.4 C 14.5 km/h
1352 06-08-2021 16:35:00 22.8 C 13.21 g/m*3 22.8 C 16.1 km/h
1353 06-08-2021 16:40:00 23.1 C 13.44 g/m*3 23.1 C 11.3 km/h
1354 06-08-2021 16:45:00 23.3 C 14.43 g/m*3 23.3 C 6.4 km/h
1355 06-08-2021 16:50:00 23.4 C 13.67 g/m*3 23.4 C 9.7 km/h
1356 06-08-2021 16:55:00 23.3 C 13.59 g/m*3 23.3 C 17.7 km/h
1357 06-08-2021 17:00:00 23.3 C 13.38 g/m*3 23.3 C 14.5 km/h
1358 06-08-2021 17:05:00 23.4 C 13.67 g/m*3 23.4 C 12.9 km/h
1359 06-08-2021 17:10:00 23.3 C 13.38 g/m*3 23.3 C 16.1 km/h
1360 06-08-2021 17:15:00 23.2 C 13.72 g/m*3 23.2 C 14.5 km/h
1361 06-08-2021 17:20:00 23.3 C 13.8 g/m*3 23.3 C 16.1 km/h
1362 06-08-2021 17:25:00 23.3 C 13.59 g/m*3 23.3 C 12.9 km/h
1363 06-08-2021 17:30:00 23.4 C 13.67 g/m*3 23.4 C 20.9 km/h
1364 06-08-2021 17:35:00 23.6 C 13.61 g/m*3 23.6 C 16.1 km/h
1365 06-08-2021 17:40:00 23.5 C 13.32 g/m*3 23.5 C 19.3 km/h
1366 06-08-2021 17:45:00 23.2 C 13.72 g/m*3 23.2 C 17.7 km/h
1367 06-08-2021 17:50:00 22.9 C 12.88 g/m*3 22.9 C 17.7 km/h
1368 06-08-2021 17:55:00 23.1 C 13.23 g/m*3 23.1 C 16.1 km/h
1369 06-08-2021 18:00:00 23.2 C 13.51 g/m*3 23.2 C 11.3 km/h
1370 06-08-2021 18:05:00 23.2 C 13.72 g/m*3 23.2 C 12.9 km/h
1371 06-08-2021 18:10:00 23.3 C 13.59 g/m*3 23.3 C 9.7 km/h
1372 06-08-2021 18:15:00 23.3 C 13.38 g/m*3 23.3 C 16.1 km/h
1373 06-08-2021 18:20:00 22.9 C 12.67 g/m*3 22.9 C 24.1 km/h
1374 06-08-2021 18:25:00 22.6 C 13.06 g/m*3 22.6 C 16.1 km/h
1375 06-08-2021 18:30:00 22.4 C 13.11 g/m*3 22.4 C 9.7 km/h
Sensor: Nr:Datum:Temp:Abs-Feuchte:Windchill:Wind:
Aussen-T/F 1376 06-08-2021 18:35:00 22.4 C 13.31 g/m*3 22.4 C 8.1 km/h
1377 06-08-2021 18:40:00 22.6 C 13.06 g/m*3 22.6 C 8.1 km/h
1378 06-08-2021 18:45:00 22.9 C 13.9 g/m*3 22.9 C 6.4 km/h
1379 06-08-2021 18:50:00 23 C 13.15 g/m*3 23 C 24.1 km/h
1380 06-08-2021 18:55:00 22.8 C 13.61 g/m*3 22.8 C 11.3 km/h
1381 06-08-2021 19:00:00 22.4 C 13.11 g/m*3 22.4 C 16.1 km/h
1382 06-08-2021 19:05:00 22.1 C 12.88 g/m*3 22.1 C 14.5 km/h
1383 06-08-2021 19:10:00 21.9 C 12.93 g/m*3 21.9 C 11.3 km/h
1384 06-08-2021 19:15:00 21.9 C 13.12 g/m*3 21.9 C 14.5 km/h
1385 06-08-2021 19:20:00 21.9 C 13.12 g/m*3 21.9 C 14.5 km/h
1386 06-08-2021 19:25:00 21.9 C 13.12 g/m*3 21.9 C 9.7 km/h
1387 06-08-2021 19:30:00 21.8 C 13.24 g/m*3 21.8 C 11.3 km/h
1388 06-08-2021 19:35:00 21.6 C 12.9 g/m*3 21.6 C 8.1 km/h
1389 06-08-2021 19:40:00 21.3 C 12.86 g/m*3 21.3 C 8.1 km/h
1390 06-08-2021 19:45:00 20.9 C 12.75 g/m*3 20.9 C 11.3 km/h
1391 06-08-2021 19:50:00 20.7 C 12.96 g/m*3 20.7 C 8.1 km/h
1392 06-08-2021 19:55:00 20.6 C 13.24 g/m*3 20.6 C 4.8 km/h
1393 06-08-2021 20:00:00 20.3 C 12.84 g/m*3 20.3 C 8.1 km/h
1394 06-08-2021 20:05:00 20.2 C 12.94 g/m*3 20.2 C 9.7 km/h
1395 06-08-2021 20:10:00 20 C 12.62 g/m*3 20 C 6.4 km/h
1396 06-08-2021 20:15:00 19.9 C 12.54 g/m*3 19.9 C 12.9 km/h
1397 06-08-2021 20:20:00 19.9 C 12.71 g/m*3 19.9 C 4.8 km/h
1398 06-08-2021 20:25:00 19.9 C 12.71 g/m*3 19.9 C 6.4 km/h
1399 06-08-2021 20:30:00 19.9 C 12.54 g/m*3 19.9 C 9.7 km/h
1400 06-08-2021 20:35:00 19.8 C 12.64 g/m*3 19.8 C 6.4 km/h
Sensor: Nr:Datum:Temp:Abs-Feuchte:Windchill:Wind:
Aussen-T/F 1401 06-08-2021 20:40:00 19.7 C 12.57 g/m*3 19.7 C 8.1 km/h
1402 06-08-2021 20:45:00 19.4 C 12.51 g/m*3 19.4 C 9.7 km/h
1403 06-08-2021 20:50:00 19.3 C 12.61 g/m*3 19.3 C 4.8 km/h
1404 06-08-2021 20:55:00 19.1 C 12.79 g/m*3 19.1 C 3.2 km/h
1405 06-08-2021 21:00:00 18.9 C 12.64 g/m*3 18.9 C 1.6 km/h
1406 06-08-2021 21:05:00 18.7 C 12.65 g/m*3 18.7 C 4.8 km/h
1407 06-08-2021 21:10:00 18.6 C 12.73 g/m*3 18.6 C 4.8 km/h
1408 06-08-2021 21:15:00 18.3 C 12.51 g/m*3 18.3 C 4.8 km/h
1409 06-08-2021 21:20:00 18.1 C 12.52 g/m*3 18.1 C 4.8 km/h
1410 06-08-2021 21:25:00 17.8 C 12.45 g/m*3 17.8 C 4.8 km/h
1411 06-08-2021 21:30:00 17.6 C 12.3 g/m*3 17.6 C 6.4 km/h
1412 06-08-2021 21:35:00 17.4 C 12.3 g/m*3 17.4 C 3.2 km/h
1413 06-08-2021 21:40:00 17.2 C 12.15 g/m*3 17.2 C 4.8 km/h
1414 06-08-2021 21:45:00 17.1 C 12.23 g/m*3 17.1 C 3.2 km/h
1415 06-08-2021 21:50:00 16.9 C 12.23 g/m*3 16.9 C 4.8 km/h
1416 06-08-2021 21:55:00 16.7 C 12.08 g/m*3 16.7 C 3.2 km/h
1417 06-08-2021 22:00:00 16.6 C 12.15 g/m*3 16.6 C 4.8 km/h
1418 06-08-2021 22:05:00 16.4 C 12.14 g/m*3 16.4 C 4.8 km/h
1419 06-08-2021 22:10:00 16.3 C 12.07 g/m*3 16.3 C 3.2 km/h
1420 06-08-2021 22:15:00 16.1 C 12.06 g/m*3 16.1 C 1.6 km/h
1421 06-08-2021 22:20:00 16 C 11.99 g/m*3 16 C 0 km/h
1422 06-08-2021 22:25:00 15.8 C 11.85 g/m*3 15.8 C 0 km/h
1423 06-08-2021 22:30:00 15.7 C 11.91 g/m*3 15.7 C 0 km/h
1424 06-08-2021 22:35:00 15.6 C 11.84 g/m*3 15.6 C 0 km/h
1425 06-08-2021 22:40:00 15.5 C 11.9 g/m*3 15.5 C 0 km/h
Sensor: Nr:Datum:Temp:Abs-Feuchte:Windchill:Wind:
Aussen-T/F 1426 06-08-2021 22:45:00 15.4 C 11.82 g/m*3 15.4 C 0 km/h
1427 06-08-2021 22:50:00 15.3 C 11.75 g/m*3 15.3 C 0 km/h
1428 06-08-2021 22:55:00 15.3 C 11.75 g/m*3 15.3 C 0 km/h
1429 06-08-2021 23:00:00 15.2 C 11.81 g/m*3 15.2 C 0 km/h
1430 06-08-2021 23:05:00 15.1 C 11.74 g/m*3 15.1 C 0 km/h
1431 06-08-2021 23:10:00 15.1 C 11.74 g/m*3 15.1 C 0 km/h
1432 06-08-2021 23:15:00 15 C 11.67 g/m*3 15 C 0 km/h
1433 06-08-2021 23:20:00 14.9 C 11.73 g/m*3 14.9 C 0 km/h
1434 06-08-2021 23:25:00 14.8 C 11.65 g/m*3 14.8 C 0 km/h
1435 06-08-2021 23:30:00 14.8 C 11.65 g/m*3 14.8 C 0 km/h
1436 06-08-2021 23:35:00 14.7 C 11.58 g/m*3 14.7 C 0 km/h
1437 06-08-2021 23:40:00 14.6 C 11.51 g/m*3 14.6 C 0 km/h
1438 06-08-2021 23:45:00 14.5 C 11.44 g/m*3 14.5 C 0 km/h
1439 06-08-2021 23:50:00 14.4 C 11.37 g/m*3 14.4 C 0 km/h
1440 06-08-2021 23:55:00 14.4 C 11.37 g/m*3 14.4 C 0 km/h
1441 07-08-2021 00:00:00 14.3 C 11.3 g/m*3 14.3 C 0 km/h
1442 07-08-2021 00:05:00 14.3 C 11.3 g/m*3 14.3 C 0 km/h
1443 07-08-2021 00:10:00 14.2 C 11.23 g/m*3 14.2 C 0 km/h
1444 07-08-2021 00:15:00 14.1 C 11.29 g/m*3 14.1 C 0 km/h
1445 07-08-2021 00:20:00 14.1 C 11.29 g/m*3 14.1 C 0 km/h
1446 07-08-2021 00:25:00 14.1 C 11.29 g/m*3 14.1 C 0 km/h
1447 07-08-2021 00:30:00 14 C 11.22 g/m*3 14 C 0 km/h
1448 07-08-2021 00:35:00 13.9 C 11.15 g/m*3 13.9 C 0 km/h
1449 07-08-2021 00:40:00 13.9 C 11.15 g/m*3 13.9 C 0 km/h
1450 07-08-2021 00:45:00 13.9 C 11.15 g/m*3 13.9 C 0 km/h
Sensor: Nr:Datum:Temp:Abs-Feuchte:Windchill:Wind:
Aussen-T/F 1451 07-08-2021 00:50:00 13.8 C 11.08 g/m*3 13.8 C 0 km/h
1452 07-08-2021 00:55:00 13.8 C 11.2 g/m*3 13.8 C 0 km/h
1453 07-08-2021 01:00:00 13.8 C 11.2 g/m*3 13.8 C 0 km/h
1454 07-08-2021 01:05:00 13.8 C 11.2 g/m*3 13.8 C 0 km/h
1455 07-08-2021 01:10:00 13.8 C 11.2 g/m*3 13.8 C 0 km/h
1456 07-08-2021 01:15:00 13.7 C 11.13 g/m*3 13.7 C 0 km/h
1457 07-08-2021 01:20:00 13.7 C 11.13 g/m*3 13.7 C 0 km/h
1458 07-08-2021 01:25:00 13.6 C 11.06 g/m*3 13.6 C 0 km/h
1459 07-08-2021 01:30:00 13.6 C 11.06 g/m*3 13.6 C 0 km/h
1460 07-08-2021 01:35:00 13.6 C 11.06 g/m*3 13.6 C 0 km/h
1461 07-08-2021 01:40:00 13.5 C 10.99 g/m*3 13.5 C 0 km/h
1462 07-08-2021 01:45:00 13.4 C 10.93 g/m*3 13.4 C 0 km/h
1463 07-08-2021 01:50:00 13.4 C 10.93 g/m*3 13.4 C 0 km/h
1464 07-08-2021 01:55:00 13.3 C 10.86 g/m*3 13.3 C 0 km/h
1465 07-08-2021 02:00:00 13.3 C 10.86 g/m*3 13.3 C 0 km/h
1466 07-08-2021 02:05:00 13.2 C 10.79 g/m*3 13.2 C 0 km/h
1467 07-08-2021 02:10:00 13.2 C 10.79 g/m*3 13.2 C 0 km/h
1468 07-08-2021 02:15:00 13.2 C 10.79 g/m*3 13.2 C 0 km/h
1469 07-08-2021 02:20:00 13.2 C 10.91 g/m*3 13.2 C 0 km/h
1470 07-08-2021 02:25:00 13.2 C 10.91 g/m*3 13.2 C 0 km/h
1471 07-08-2021 02:30:00 13.1 C 10.84 g/m*3 13.1 C 0 km/h
1472 07-08-2021 02:35:00 13.2 C 10.91 g/m*3 13.2 C 0 km/h
1473 07-08-2021 02:40:00 13.2 C 10.91 g/m*3 13.2 C 0 km/h
1474 07-08-2021 02:45:00 13.2 C 10.91 g/m*3 13.2 C 0 km/h
1475 07-08-2021 02:50:00 13.1 C 10.84 g/m*3 13.1 C 0 km/h
Sensor: Nr:Datum:Temp:Abs-Feuchte:Windchill:Wind:
Aussen-T/F 1476 07-08-2021 02:55:00 13.1 C 10.84 g/m*3 13.1 C 0 km/h
1477 07-08-2021 03:00:00 13 C 10.77 g/m*3 13 C 0 km/h
1478 07-08-2021 03:05:00 12.9 C 10.71 g/m*3 12.9 C 0 km/h
1479 07-08-2021 03:10:00 12.9 C 10.71 g/m*3 12.9 C 0 km/h
1480 07-08-2021 03:15:00 12.9 C 10.71 g/m*3 12.9 C 0 km/h
1481 07-08-2021 03:20:00 12.9 C 10.71 g/m*3 12.9 C 0 km/h
1482 07-08-2021 03:25:00 12.8 C 10.64 g/m*3 12.8 C 0 km/h
1483 07-08-2021 03:30:00 12.8 C 10.64 g/m*3 12.8 C 0 km/h
1484 07-08-2021 03:35:00 12.8 C 10.64 g/m*3 12.8 C 0 km/h
1485 07-08-2021 03:40:00 12.8 C 10.64 g/m*3 12.8 C 0 km/h
1486 07-08-2021 03:45:00 12.8 C 10.64 g/m*3 12.8 C 0 km/h
1487 07-08-2021 03:50:00 12.8 C 10.64 g/m*3 12.8 C 0 km/h
1488 07-08-2021 03:55:00 12.8 C 10.64 g/m*3 12.8 C 0 km/h
1489 07-08-2021 04:00:00 12.8 C 10.64 g/m*3 12.8 C 0 km/h
1490 07-08-2021 04:05:00 12.8 C 10.64 g/m*3 12.8 C 0 km/h
1491 07-08-2021 04:10:00 12.8 C 10.64 g/m*3 12.8 C 0 km/h
1492 07-08-2021 04:15:00 12.8 C 10.75 g/m*3 12.8 C 0 km/h
1493 07-08-2021 04:20:00 12.9 C 10.82 g/m*3 12.9 C 0 km/h
1494 07-08-2021 04:25:00 13 C 10.89 g/m*3 13 C 0 km/h
1495 07-08-2021 04:30:00 13.1 C 10.95 g/m*3 13.1 C 0 km/h
1496 07-08-2021 04:35:00 13.1 C 10.95 g/m*3 13.1 C 0 km/h
1497 07-08-2021 04:40:00 13.1 C 10.95 g/m*3 13.1 C 0 km/h
1498 07-08-2021 04:45:00 13.2 C 11.02 g/m*3 13.2 C 0 km/h
1499 07-08-2021 04:50:00 13.2 C 11.02 g/m*3 13.2 C 0 km/h
1500 07-08-2021 04:55:00 13.2 C 11.02 g/m*3 13.2 C 0 km/h
Sensor: Nr:Datum:Temp:Abs-Feuchte:Windchill:Wind:
Aussen-T/F 1501 07-08-2021 05:00:00 13.2 C 11.02 g/m*3 13.2 C 0 km/h
1502 07-08-2021 05:05:00 13.1 C 10.95 g/m*3 13.1 C 0 km/h
1503 07-08-2021 05:10:00 13.1 C 10.95 g/m*3 13.1 C 0 km/h
1504 07-08-2021 05:15:00 13 C 10.89 g/m*3 13 C 0 km/h
1505 07-08-2021 05:20:00 13 C 10.89 g/m*3 13 C 0 km/h
1506 07-08-2021 05:25:00 12.9 C 10.82 g/m*3 12.9 C 0 km/h
1507 07-08-2021 05:30:00 12.9 C 10.82 g/m*3 12.9 C 0 km/h
1508 07-08-2021 05:35:00 12.9 C 10.82 g/m*3 12.9 C 0 km/h
1509 07-08-2021 05:40:00 12.9 C 10.82 g/m*3 12.9 C 0 km/h
1510 07-08-2021 05:45:00 12.9 C 10.82 g/m*3 12.9 C 0 km/h
1511 07-08-2021 05:50:00 12.9 C 10.82 g/m*3 12.9 C 0 km/h
1512 07-08-2021 05:55:00 12.8 C 10.75 g/m*3 12.8 C 0 km/h
1513 07-08-2021 06:00:00 12.8 C 10.75 g/m*3 12.8 C 0 km/h
1514 07-08-2021 06:05:00 12.8 C 10.75 g/m*3 12.8 C 0 km/h
1515 07-08-2021 06:10:00 12.8 C 10.75 g/m*3 12.8 C 0 km/h
1516 07-08-2021 06:15:00 12.9 C 10.82 g/m*3 12.9 C 0 km/h
1517 07-08-2021 06:20:00 12.9 C 10.82 g/m*3 12.9 C 0 km/h
1518 07-08-2021 06:25:00 13.1 C 10.95 g/m*3 13.1 C 0 km/h
1519 07-08-2021 06:30:00 13.2 C 11.02 g/m*3 13.2 C 0 km/h
1520 07-08-2021 06:35:00 13.2 C 11.02 g/m*3 13.2 C 0 km/h
1521 07-08-2021 06:40:00 13.2 C 11.02 g/m*3 13.2 C 0 km/h
1522 07-08-2021 06:45:00 13.2 C 11.02 g/m*3 13.2 C 0 km/h
1523 07-08-2021 06:50:00 13.2 C 11.02 g/m*3 13.2 C 0 km/h
1524 07-08-2021 06:55:00 13.2 C 11.02 g/m*3 13.2 C 0 km/h
1525 07-08-2021 07:00:00 13.2 C 11.02 g/m*3 13.2 C 0 km/h
Sensor: Nr:Datum:Temp:Abs-Feuchte:Windchill:Wind:
Aussen-T/F 1526 07-08-2021 07:05:00 13.2 C 11.02 g/m*3 13.2 C 0 km/h
1527 07-08-2021 07:10:00 13.3 C 11.09 g/m*3 13.3 C 0 km/h
1528 07-08-2021 07:15:00 13.3 C 11.09 g/m*3 13.3 C 0 km/h
1529 07-08-2021 07:20:00 13.3 C 11.09 g/m*3 13.3 C 0 km/h
1530 07-08-2021 07:25:00 13.4 C 11.28 g/m*3 13.4 C 0 km/h
1531 07-08-2021 07:30:00 13.4 C 11.28 g/m*3 13.4 C 0 km/h
1532 07-08-2021 07:35:00 13.6 C 11.42 g/m*3 13.6 C 0 km/h
1533 07-08-2021 07:40:00 13.7 C 11.49 g/m*3 13.7 C 0 km/h
1534 07-08-2021 07:45:00 13.8 C 11.56 g/m*3 13.8 C 0 km/h
1535 07-08-2021 07:50:00 13.8 C 11.56 g/m*3 13.8 C 0 km/h
1536 07-08-2021 07:55:00 14 C 11.7 g/m*3 14 C 0 km/h
1537 07-08-2021 08:00:00 14.1 C 11.77 g/m*3 14.1 C 0 km/h
1538 07-08-2021 08:05:00 14.2 C 11.84 g/m*3 14.2 C 0 km/h
1539 07-08-2021 08:10:00 14.3 C 11.92 g/m*3 14.3 C 0 km/h
1540 07-08-2021 08:15:00 14.4 C 11.99 g/m*3 14.4 C 0 km/h
1541 07-08-2021 08:20:00 14.6 C 12.14 g/m*3 14.6 C 0 km/h
1542 07-08-2021 08:25:00 14.7 C 12.21 g/m*3 14.7 C 0 km/h
1543 07-08-2021 08:30:00 14.7 C 12.21 g/m*3 14.7 C 0 km/h
1544 07-08-2021 08:35:00 14.8 C 12.16 g/m*3 14.8 C 0 km/h
1545 07-08-2021 08:40:00 14.8 C 12.29 g/m*3 14.8 C 0 km/h
1546 07-08-2021 08:45:00 15 C 12.44 g/m*3 15 C 0 km/h
1547 07-08-2021 08:50:00 15.1 C 12.51 g/m*3 15.1 C 0 km/h
1548 07-08-2021 08:55:00 15.2 C 12.59 g/m*3 15.2 C 0 km/h
1549 07-08-2021 09:00:00 15.3 C 12.54 g/m*3 15.3 C 0 km/h
1550 07-08-2021 09:05:00 15.4 C 12.61 g/m*3 15.4 C 0 km/h
Sensor: Nr:Datum:Temp:Abs-Feuchte:Windchill:Wind:
Aussen-T/F 1551 07-08-2021 09:10:00 15.6 C 12.77 g/m*3 15.6 C 0 km/h
1552 07-08-2021 09:15:00 15.6 C 12.77 g/m*3 15.6 C 0 km/h
1553 07-08-2021 09:20:00 15.6 C 12.77 g/m*3 15.6 C 0 km/h
1554 07-08-2021 09:25:00 15.7 C 12.84 g/m*3 15.7 C 0 km/h
1555 07-08-2021 09:30:00 15.8 C 12.92 g/m*3 15.8 C 0 km/h
1556 07-08-2021 09:35:00 15.9 C 13 g/m*3 15.9 C 0 km/h
1557 07-08-2021 09:40:00 16.1 C 13.16 g/m*3 16.1 C 0 km/h
1558 07-08-2021 09:45:00 16.2 C 13.24 g/m*3 16.2 C 0 km/h
1559 07-08-2021 09:50:00 16.2 C 13.1 g/m*3 16.2 C 0 km/h
1560 07-08-2021 09:55:00 16.3 C 13.18 g/m*3 16.3 C 0 km/h
1561 07-08-2021 10:00:00 16.5 C 13.34 g/m*3 16.5 C 0 km/h
1562 07-08-2021 10:05:00 16.7 C 13.5 g/m*3 16.7 C 0 km/h
1563 07-08-2021 10:10:00 16.8 C 13.44 g/m*3 16.8 C 0 km/h
1564 07-08-2021 10:15:00 17 C 13.46 g/m*3 17 C 0 km/h
1565 07-08-2021 10:20:00 17.2 C 13.47 g/m*3 17.2 C 0 km/h
1566 07-08-2021 10:25:00 17.4 C 13.78 g/m*3 17.4 C 0 km/h
1567 07-08-2021 10:30:00 17.6 C 13.8 g/m*3 17.6 C 0 km/h
1568 07-08-2021 10:35:00 17.8 C 13.51 g/m*3 17.8 C 0 km/h
1569 07-08-2021 10:40:00 18 C 13.52 g/m*3 18 C 0 km/h
1570 07-08-2021 10:45:00 18.4 C 13.84 g/m*3 18.4 C 0 km/h
1571 07-08-2021 10:50:00 18.7 C 13.61 g/m*3 18.7 C 0 km/h
1572 07-08-2021 10:55:00 19 C 13.53 g/m*3 19 C 0 km/h
1573 07-08-2021 11:00:00 19.2 C 13.69 g/m*3 19.2 C 0 km/h
1574 07-08-2021 11:05:00 19.4 C 13.51 g/m*3 19.4 C 0 km/h
1575 07-08-2021 11:10:00 19.6 C 13.67 g/m*3 19.6 C 0 km/h
Sensor: Nr:Datum:Temp:Abs-Feuchte:Windchill:Wind:
Aussen-T/F 1576 07-08-2021 11:15:00 19.7 C 13.58 g/m*3 19.7 C 0 km/h
1577 07-08-2021 11:20:00 19.8 C 13.49 g/m*3 19.8 C 0 km/h
1578 07-08-2021 11:25:00 19.9 C 13.74 g/m*3 19.9 C 0 km/h
1579 07-08-2021 11:30:00 20 C 13.83 g/m*3 20 C 0 km/h
1580 07-08-2021 11:35:00 20.1 C 14.08 g/m*3 20.1 C 0 km/h
1581 07-08-2021 11:40:00 20.2 C 13.81 g/m*3 20.2 C 0 km/h
1582 07-08-2021 11:45:00 20.2 C 14.34 g/m*3 20.2 C 0 km/h
1583 07-08-2021 11:50:00 20.3 C 14.6 g/m*3 20.3 C 0 km/h
1584 07-08-2021 11:55:00 20.4 C 14.68 g/m*3 20.4 C 0 km/h
1585 07-08-2021 12:00:00 20.4 C 13.8 g/m*3 20.4 C 0 km/h
1586 07-08-2021 12:05:00 20.4 C 13.44 g/m*3 20.4 C 0 km/h
1587 07-08-2021 12:10:00 20.4 C 13.44 g/m*3 20.4 C 0 km/h
1588 07-08-2021 12:15:00 20.5 C 13.7 g/m*3 20.5 C 0 km/h
1589 07-08-2021 12:20:00 20.4 C 13.62 g/m*3 20.4 C 0 km/h
1590 07-08-2021 12:25:00 20.4 C 13.44 g/m*3 20.4 C 0 km/h
1591 07-08-2021 12:30:00 20.5 C 13.35 g/m*3 20.5 C 0 km/h
1592 07-08-2021 12:35:00 20.7 C 13.86 g/m*3 20.7 C 0 km/h
1593 07-08-2021 12:40:00 20.8 C 13.58 g/m*3 20.8 C 0 km/h
1594 07-08-2021 12:45:00 20.9 C 13.66 g/m*3 20.9 C 0 km/h
1595 07-08-2021 12:50:00 20.9 C 13.66 g/m*3 20.9 C 0 km/h
1596 07-08-2021 12:55:00 21.1 C 13.63 g/m*3 21.1 C 0 km/h
1597 07-08-2021 13:00:00 21.2 C 13.53 g/m*3 21.2 C 0 km/h
1598 07-08-2021 13:05:00 21.2 C 13.53 g/m*3 21.2 C 0 km/h
1599 07-08-2021 13:10:00 21.3 C 13.42 g/m*3 21.3 C 12.9 km/h
1600 07-08-2021 13:15:00 21.3 C 13.61 g/m*3 21.3 C 6.4 km/h
Sensor: Nr:Datum:Temp:Abs-Feuchte:Windchill:Wind:
Aussen-T/F 1601 07-08-2021 13:20:00 21.3 C 13.42 g/m*3 21.3 C 4.8 km/h
1602 07-08-2021 13:25:00 21.3 C 13.61 g/m*3 21.3 C 0 km/h
1603 07-08-2021 13:30:00 21.4 C 13.69 g/m*3 21.4 C 3.2 km/h
1604 07-08-2021 13:35:00 21.5 C 14.14 g/m*3 21.5 C 4.8 km/h
1605 07-08-2021 13:40:00 21.6 C 14.03 g/m*3 21.6 C 0 km/h
1606 07-08-2021 13:45:00 21.4 C 14.06 g/m*3 21.4 C 0 km/h
1607 07-08-2021 13:50:00 21.3 C 14.35 g/m*3 21.3 C 0 km/h
1608 07-08-2021 13:55:00 21.3 C 14.35 g/m*3 21.3 C 0 km/h
1609 07-08-2021 14:00:00 21.3 C 13.98 g/m*3 21.3 C 0 km/h
1610 07-08-2021 14:05:00 21.2 C 13.9 g/m*3 21.2 C 0 km/h
1611 07-08-2021 14:10:00 21.3 C 13.79 g/m*3 21.3 C 0 km/h
1612 07-08-2021 14:15:00 21.4 C 13.87 g/m*3 21.4 C 0 km/h
1613 07-08-2021 14:20:00 21.6 C 14.03 g/m*3 21.6 C 0 km/h
1614 07-08-2021 14:25:00 21.7 C 14.31 g/m*3 21.7 C 6.4 km/h
1615 07-08-2021 14:30:00 21.8 C 14.39 g/m*3 21.8 C 0 km/h
1616 07-08-2021 14:35:00 21.8 C 14.2 g/m*3 21.8 C 0 km/h
1617 07-08-2021 14:40:00 21.8 C 13.81 g/m*3 21.8 C 8.1 km/h
1618 07-08-2021 14:45:00 21.8 C 14.01 g/m*3 21.8 C 0 km/h
1619 07-08-2021 14:50:00 21.7 C 14.12 g/m*3 21.7 C 0 km/h
1620 07-08-2021 14:55:00 21.6 C 13.66 g/m*3 21.6 C 0 km/h
1621 07-08-2021 15:00:00 21.6 C 13.47 g/m*3 21.6 C 0 km/h
1622 07-08-2021 15:05:00 21.5 C 13.2 g/m*3 21.5 C 9.7 km/h
1623 07-08-2021 15:10:00 21.5 C 13.2 g/m*3 21.5 C 0 km/h
1624 07-08-2021 15:15:00 21.6 C 14.03 g/m*3 21.6 C 0 km/h
1625 07-08-2021 15:20:00 21.7 C 13.54 g/m*3 21.7 C 0 km/h
Sensor: Nr:Datum:Temp:Abs-Feuchte:Windchill:Wind:
Aussen-T/F 1626 07-08-2021 15:25:00 21.7 C 13.35 g/m*3 21.7 C 0 km/h
1627 07-08-2021 15:30:00 22 C 13.39 g/m*3 22 C 11.3 km/h
1628 07-08-2021 15:35:00 22.4 C 13.9 g/m*3 22.4 C 9.7 km/h
1629 07-08-2021 15:40:00 22.7 C 13.33 g/m*3 22.7 C 9.7 km/h
1630 07-08-2021 15:45:00 23.1 C 13.64 g/m*3 23.1 C 9.7 km/h
1631 07-08-2021 15:50:00 23.4 C 12.83 g/m*3 23.4 C 8.1 km/h
1632 07-08-2021 15:55:00 23.4 C 13.25 g/m*3 23.4 C 4.8 km/h
1633 07-08-2021 16:00:00 23.3 C 13.17 g/m*3 23.3 C 8.1 km/h
1634 07-08-2021 16:05:00 23.4 C 13.46 g/m*3 23.4 C 6.4 km/h
1635 07-08-2021 16:10:00 23.8 C 13.12 g/m*3 23.8 C 11.3 km/h
1636 07-08-2021 16:15:00 23.8 C 13.77 g/m*3 23.8 C 9.7 km/h
1637 07-08-2021 16:20:00 23.6 C 14.04 g/m*3 23.6 C 8.1 km/h
1638 07-08-2021 16:25:00 23.3 C 13.17 g/m*3 23.3 C 9.7 km/h
1639 07-08-2021 16:30:00 23 C 12.95 g/m*3 23 C 6.4 km/h
1640 07-08-2021 16:35:00 22.8 C 13.21 g/m*3 22.8 C 3.2 km/h
1641 07-08-2021 16:40:00 22.7 C 13.13 g/m*3 22.7 C 3.2 km/h
1642 07-08-2021 16:45:00 22.7 C 13.54 g/m*3 22.7 C 6.4 km/h
1643 07-08-2021 16:50:00 22.8 C 14.22 g/m*3 22.8 C 3.2 km/h
1644 07-08-2021 16:55:00 22.9 C 13.28 g/m*3 22.9 C 6.4 km/h
1645 07-08-2021 17:00:00 22.9 C 13.28 g/m*3 22.9 C 11.3 km/h
1646 07-08-2021 17:05:00 23 C 13.15 g/m*3 23 C 11.3 km/h
1647 07-08-2021 17:10:00 23.5 C 12.9 g/m*3 23.5 C 12.9 km/h
1648 07-08-2021 17:15:00 23.9 C 12.98 g/m*3 23.9 C 12.9 km/h
1649 07-08-2021 17:20:00 23.9 C 12.98 g/m*3 23.9 C 11.3 km/h
1650 07-08-2021 17:25:00 23.6 C 13.19 g/m*3 23.6 C 9.7 km/h
Sensor: Nr:Datum:Temp:Abs-Feuchte:Windchill:Wind:
Aussen-T/F 1651 07-08-2021 17:30:00 23.3 C 12.96 g/m*3 23.3 C 8.1 km/h
1652 07-08-2021 17:35:00 23.3 C 13.59 g/m*3 23.3 C 6.4 km/h
1653 07-08-2021 17:40:00 23.2 C 13.1 g/m*3 23.2 C 11.3 km/h
1654 07-08-2021 17:45:00 23.5 C 13.11 g/m*3 23.5 C 8.1 km/h
1655 07-08-2021 17:50:00 23.7 C 13.69 g/m*3 23.7 C 14.5 km/h
1656 07-08-2021 17:55:00 23.9 C 12.98 g/m*3 23.9 C 14.5 km/h
1657 07-08-2021 18:00:00 23.6 C 12.97 g/m*3 23.6 C 6.4 km/h
1658 07-08-2021 18:05:00 23.3 C 13.59 g/m*3 23.3 C 4.8 km/h
1659 07-08-2021 18:10:00 22.8 C 13 g/m*3 22.8 C 11.3 km/h
1660 07-08-2021 18:15:00 22.3 C 13.62 g/m*3 22.3 C 8.1 km/h
1661 07-08-2021 18:20:00 22.4 C 13.7 g/m*3 22.4 C 0 km/h
1662 07-08-2021 18:25:00 22.8 C 13.21 g/m*3 22.8 C 8.1 km/h
1663 07-08-2021 18:30:00 23.1 C 13.23 g/m*3 23.1 C 14.5 km/h
1664 07-08-2021 18:35:00 23.4 C 13.67 g/m*3 23.4 C 8.1 km/h
1665 07-08-2021 18:40:00 23.6 C 14.04 g/m*3 23.6 C 8.1 km/h
1666 07-08-2021 18:45:00 23.6 C 13.82 g/m*3 23.6 C 3.2 km/h
1667 07-08-2021 18:50:00 23.4 C 14.3 g/m*3 23.4 C 1.6 km/h
1668 07-08-2021 18:55:00 23.1 C 13.23 g/m*3 23.1 C 6.4 km/h
1669 07-08-2021 19:00:00 22.7 C 14.34 g/m*3 22.7 C 3.2 km/h
1670 07-08-2021 19:05:00 22.3 C 14.02 g/m*3 22.3 C 4.8 km/h
1671 07-08-2021 19:10:00 21.9 C 13.12 g/m*3 21.9 C 8.1 km/h
1672 07-08-2021 19:15:00 21.6 C 13.85 g/m*3 21.6 C 0 km/h
1673 07-08-2021 19:20:00 21.4 C 14.25 g/m*3 21.4 C 0 km/h
1674 07-08-2021 19:25:00 21.3 C 14.35 g/m*3 21.3 C 0 km/h
1675 07-08-2021 19:30:00 21.1 C 14.19 g/m*3 21.1 C 4.8 km/h
Sensor: Nr:Datum:Temp:Abs-Feuchte:Windchill:Wind:
Aussen-T/F 1676 07-08-2021 19:35:00 20.9 C 14.02 g/m*3 20.9 C 4.8 km/h
1677 07-08-2021 19:40:00 20.7 C 13.86 g/m*3 20.7 C 0 km/h
1678 07-08-2021 19:45:00 20.4 C 13.44 g/m*3 20.4 C 4.8 km/h
1679 07-08-2021 19:50:00 20.2 C 12.94 g/m*3 20.2 C 6.4 km/h
1680 07-08-2021 19:55:00 20.1 C 13.21 g/m*3 20.1 C 3.2 km/h
1681 07-08-2021 20:00:00 19.9 C 12.89 g/m*3 19.9 C 3.2 km/h
1682 07-08-2021 20:05:00 19.8 C 13.15 g/m*3 19.8 C 1.6 km/h
1683 07-08-2021 20:10:00 19.6 C 13 g/m*3 19.6 C 1.6 km/h
1684 07-08-2021 20:15:00 19.4 C 13.01 g/m*3 19.4 C 1.6 km/h
1685 07-08-2021 20:20:00 19.3 C 12.94 g/m*3 19.3 C 4.8 km/h
1686 07-08-2021 20:25:00 19.2 C 13.19 g/m*3 19.2 C 0 km/h
1687 07-08-2021 20:30:00 19 C 13.2 g/m*3 19 C 0 km/h
1688 07-08-2021 20:35:00 18.8 C 13.05 g/m*3 18.8 C 0 km/h
1689 07-08-2021 20:40:00 18.7 C 13.13 g/m*3 18.7 C 3.2 km/h
1690 07-08-2021 20:45:00 18.7 C 13.29 g/m*3 18.7 C 14.5 km/h
1691 07-08-2021 20:50:00 17.6 C 12.15 g/m*3 17.6 C 30.6 km/h
1692 07-08-2021 20:55:00 16.3 C 11.65 g/m*3 16.3 C 19.3 km/h
1693 07-08-2021 21:00:00 15.6 C 11.44 g/m*3 15.6 C 8.1 km/h
1694 07-08-2021 21:05:00 15.3 C 11.49 g/m*3 15.3 C 8.1 km/h
1695 07-08-2021 21:10:00 15.1 C 11.61 g/m*3 15.1 C 9.7 km/h
1696 07-08-2021 21:15:00 15 C 11.54 g/m*3 15 C 6.4 km/h
1697 07-08-2021 21:20:00 14.9 C 11.6 g/m*3 14.9 C 3.2 km/h
1698 07-08-2021 21:25:00 14.8 C 11.53 g/m*3 14.8 C 1.6 km/h
1699 07-08-2021 21:30:00 14.7 C 11.58 g/m*3 14.7 C 0 km/h
1700 07-08-2021 21:35:00 14.7 C 11.71 g/m*3 14.7 C 4.8 km/h
Sensor: Nr:Datum:Temp:Abs-Feuchte:Windchill:Wind:
Aussen-T/F 1701 07-08-2021 21:40:00 14.6 C 11.51 g/m*3 14.6 C 0 km/h
1702 07-08-2021 21:45:00 14.6 C 11.64 g/m*3 14.6 C 0 km/h
1703 07-08-2021 21:50:00 14.6 C 11.64 g/m*3 14.6 C 0 km/h
1704 07-08-2021 21:55:00 14.6 C 11.64 g/m*3 14.6 C 0 km/h
1705 07-08-2021 22:00:00 14.5 C 11.69 g/m*3 14.5 C 1.6 km/h
1706 07-08-2021 22:05:00 14.6 C 11.76 g/m*3 14.6 C 1.6 km/h
1707 07-08-2021 22:10:00 14.6 C 11.76 g/m*3 14.6 C 1.6 km/h
1708 07-08-2021 22:15:00 14.6 C 11.76 g/m*3 14.6 C 1.6 km/h
1709 07-08-2021 22:20:00 14.6 C 11.76 g/m*3 14.6 C 1.6 km/h
1710 07-08-2021 22:25:00 14.6 C 11.76 g/m*3 14.6 C 3.2 km/h
1711 07-08-2021 22:30:00 14.6 C 11.76 g/m*3 14.6 C 1.6 km/h
1712 07-08-2021 22:35:00 14.6 C 11.89 g/m*3 14.6 C 4.8 km/h
1713 07-08-2021 22:40:00 14.6 C 11.89 g/m*3 14.6 C 0 km/h
1714 07-08-2021 22:45:00 14.6 C 11.89 g/m*3 14.6 C 0 km/h
1715 07-08-2021 22:50:00 14.6 C 11.89 g/m*3 14.6 C 3.2 km/h
1716 07-08-2021 22:55:00 14.6 C 11.89 g/m*3 14.6 C 1.6 km/h
1717 07-08-2021 23:00:00 14.6 C 11.89 g/m*3 14.6 C 1.6 km/h
1718 07-08-2021 23:05:00 14.6 C 11.89 g/m*3 14.6 C 3.2 km/h
1719 07-08-2021 23:10:00 14.5 C 11.82 g/m*3 14.5 C 0 km/h
1720 07-08-2021 23:15:00 14.6 C 11.89 g/m*3 14.6 C 3.2 km/h
1721 07-08-2021 23:20:00 14.6 C 11.89 g/m*3 14.6 C 0 km/h
1722 07-08-2021 23:25:00 14.6 C 11.89 g/m*3 14.6 C 1.6 km/h
1723 07-08-2021 23:30:00 14.6 C 11.89 g/m*3 14.6 C 0 km/h
1724 07-08-2021 23:35:00 14.6 C 11.89 g/m*3 14.6 C 3.2 km/h
1725 07-08-2021 23:40:00 14.7 C 11.96 g/m*3 14.7 C 4.8 km/h
Sensor: Nr:Datum:Temp:Abs-Feuchte:Windchill:Wind:
Aussen-T/F 1726 07-08-2021 23:45:00 14.7 C 11.96 g/m*3 14.7 C 0 km/h
1727 07-08-2021 23:50:00 14.7 C 12.09 g/m*3 14.7 C 4.8 km/h
1728 07-08-2021 23:55:00 14.8 C 12.16 g/m*3 14.8 C 1.6 km/h
1729 08-08-2021 00:00:00 14.8 C 12.16 g/m*3 14.8 C 0 km/h
1730 08-08-2021 00:05:00 14.8 C 12.16 g/m*3 14.8 C 1.6 km/h
1731 08-08-2021 00:10:00 14.7 C 12.09 g/m*3 14.7 C 0 km/h
1732 08-08-2021 00:15:00 14.6 C 11.89 g/m*3 14.6 C 1.6 km/h
1733 08-08-2021 00:20:00 14.6 C 11.89 g/m*3 14.6 C 1.6 km/h
1734 08-08-2021 00:25:00 14.4 C 11.74 g/m*3 14.4 C 0 km/h
1735 08-08-2021 00:30:00 14.3 C 11.67 g/m*3 14.3 C 3.2 km/h
1736 08-08-2021 00:35:00 14.1 C 11.53 g/m*3 14.1 C 3.2 km/h
1737 08-08-2021 00:40:00 14.1 C 11.53 g/m*3 14.1 C 4.8 km/h
1738 08-08-2021 00:45:00 14 C 11.46 g/m*3 14 C 1.6 km/h
1739 08-08-2021 00:50:00 13.9 C 11.39 g/m*3 13.9 C 3.2 km/h
1740 08-08-2021 00:55:00 13.9 C 11.39 g/m*3 13.9 C 0 km/h
1741 08-08-2021 01:00:00 13.9 C 11.39 g/m*3 13.9 C 0 km/h
1742 08-08-2021 01:05:00 13.8 C 11.32 g/m*3 13.8 C 0 km/h
1743 08-08-2021 01:10:00 13.8 C 11.32 g/m*3 13.8 C 0 km/h
1744 08-08-2021 01:15:00 13.7 C 11.37 g/m*3 13.7 C 0 km/h
1745 08-08-2021 01:20:00 13.7 C 11.37 g/m*3 13.7 C 0 km/h
1746 08-08-2021 01:25:00 13.7 C 11.37 g/m*3 13.7 C 0 km/h
1747 08-08-2021 01:30:00 13.7 C 11.37 g/m*3 13.7 C 0 km/h
1748 08-08-2021 01:35:00 13.7 C 11.37 g/m*3 13.7 C 0 km/h
1749 08-08-2021 01:40:00 13.8 C 11.44 g/m*3 13.8 C 0 km/h
1750 08-08-2021 01:45:00 13.8 C 11.44 g/m*3 13.8 C 0 km/h
Sensor: Nr:Datum:Temp:Abs-Feuchte:Windchill:Wind:
Aussen-T/F 1751 08-08-2021 01:50:00 13.8 C 11.44 g/m*3 13.8 C 0 km/h
1752 08-08-2021 01:55:00 13.8 C 11.44 g/m*3 13.8 C 0 km/h
1753 08-08-2021 02:00:00 13.8 C 11.44 g/m*3 13.8 C 0 km/h
1754 08-08-2021 02:05:00 13.9 C 11.51 g/m*3 13.9 C 0 km/h
1755 08-08-2021 02:10:00 13.9 C 11.51 g/m*3 13.9 C 0 km/h
1756 08-08-2021 02:15:00 13.9 C 11.51 g/m*3 13.9 C 1.6 km/h
1757 08-08-2021 02:20:00 13.9 C 11.51 g/m*3 13.9 C 1.6 km/h
1758 08-08-2021 02:25:00 13.9 C 11.51 g/m*3 13.9 C 4.8 km/h
1759 08-08-2021 02:30:00 14 C 11.58 g/m*3 14 C 8.1 km/h
1760 08-08-2021 02:35:00 14.1 C 11.77 g/m*3 14.1 C 8.1 km/h
1761 08-08-2021 02:40:00 14.2 C 11.84 g/m*3 14.2 C 3.2 km/h
1762 08-08-2021 02:45:00 14.2 C 11.84 g/m*3 14.2 C 3.2 km/h
1763 08-08-2021 02:50:00 14.2 C 11.84 g/m*3 14.2 C 1.6 km/h
1764 08-08-2021 02:55:00 14.3 C 11.92 g/m*3 14.3 C 9.7 km/h
1765 08-08-2021 03:00:00 14.3 C 11.79 g/m*3 14.3 C 6.4 km/h
1766 08-08-2021 03:05:00 14.3 C 11.79 g/m*3 14.3 C 1.6 km/h
1767 08-08-2021 03:10:00 14.2 C 11.72 g/m*3 14.2 C 1.6 km/h
1768 08-08-2021 03:15:00 14.2 C 11.72 g/m*3 14.2 C 3.2 km/h
1769 08-08-2021 03:20:00 14.1 C 11.65 g/m*3 14.1 C 6.4 km/h
1770 08-08-2021 03:25:00 14.1 C 11.65 g/m*3 14.1 C 3.2 km/h
1771 08-08-2021 03:30:00 14.1 C 11.65 g/m*3 14.1 C 1.6 km/h
1772 08-08-2021 03:35:00 14.1 C 11.65 g/m*3 14.1 C 4.8 km/h
1773 08-08-2021 03:40:00 14.1 C 11.65 g/m*3 14.1 C 3.2 km/h
1774 08-08-2021 03:45:00 14.1 C 11.65 g/m*3 14.1 C 8.1 km/h
1775 08-08-2021 03:50:00 14.1 C 11.65 g/m*3 14.1 C 8.1 km/h
Sensor: Nr:Datum:Temp:Abs-Feuchte:Windchill:Wind:
Aussen-T/F 1776 08-08-2021 03:55:00 14.1 C 11.65 g/m*3 14.1 C 6.4 km/h
1777 08-08-2021 04:00:00 14 C 11.58 g/m*3 14 C 9.7 km/h
1778 08-08-2021 04:05:00 14 C 11.58 g/m*3 14 C 3.2 km/h
1779 08-08-2021 04:10:00 13.9 C 11.51 g/m*3 13.9 C 4.8 km/h
1780 08-08-2021 04:15:00 13.9 C 11.51 g/m*3 13.9 C 8.1 km/h
1781 08-08-2021 04:20:00 13.9 C 11.51 g/m*3 13.9 C 4.8 km/h
1782 08-08-2021 04:25:00 13.9 C 11.51 g/m*3 13.9 C 6.4 km/h
1783 08-08-2021 04:30:00 13.9 C 11.51 g/m*3 13.9 C 4.8 km/h
1784 08-08-2021 04:35:00 13.9 C 11.51 g/m*3 13.9 C 3.2 km/h
1785 08-08-2021 04:40:00 13.8 C 11.44 g/m*3 13.8 C 1.6 km/h
1786 08-08-2021 04:45:00 13.8 C 11.44 g/m*3 13.8 C 4.8 km/h
1787 08-08-2021 04:50:00 13.8 C 11.44 g/m*3 13.8 C 1.6 km/h
1788 08-08-2021 04:55:00 13.8 C 11.56 g/m*3 13.8 C 1.6 km/h
1789 08-08-2021 05:00:00 13.8 C 11.56 g/m*3 13.8 C 1.6 km/h
1790 08-08-2021 05:05:00 13.9 C 11.63 g/m*3 13.9 C 3.2 km/h
1791 08-08-2021 05:10:00 13.9 C 11.63 g/m*3 13.9 C 1.6 km/h
1792 08-08-2021 05:15:00 13.9 C 11.63 g/m*3 13.9 C 0 km/h
1793 08-08-2021 05:20:00 14 C 11.7 g/m*3 14 C 1.6 km/h
1794 08-08-2021 05:25:00 14.1 C 11.77 g/m*3 14.1 C 1.6 km/h
1795 08-08-2021 05:30:00 14.1 C 11.77 g/m*3 14.1 C 0 km/h
1796 08-08-2021 05:35:00 14.1 C 11.77 g/m*3 14.1 C 3.2 km/h
1797 08-08-2021 05:40:00 14.2 C 11.84 g/m*3 14.2 C 3.2 km/h
1798 08-08-2021 05:45:00 14.2 C 11.84 g/m*3 14.2 C 0 km/h
1799 08-08-2021 05:50:00 14.2 C 11.84 g/m*3 14.2 C 0 km/h
1800 08-08-2021 05:55:00 14.2 C 11.84 g/m*3 14.2 C 3.2 km/h
Sensor: Nr:Datum:Temp:Abs-Feuchte:Windchill:Wind:
Aussen-T/F 1801 08-08-2021 06:00:00 14.2 C 11.84 g/m*3 14.2 C 3.2 km/h
1802 08-08-2021 06:05:00 14.2 C 11.84 g/m*3 14.2 C 3.2 km/h
1803 08-08-2021 06:10:00 14.2 C 11.84 g/m*3 14.2 C 3.2 km/h
1804 08-08-2021 06:15:00 14.1 C 11.77 g/m*3 14.1 C 4.8 km/h
1805 08-08-2021 06:20:00 14.1 C 11.77 g/m*3 14.1 C 4.8 km/h
1806 08-08-2021 06:25:00 14.1 C 11.77 g/m*3 14.1 C 6.4 km/h
1807 08-08-2021 06:30:00 14.1 C 11.77 g/m*3 14.1 C 4.8 km/h
1808 08-08-2021 06:35:00 14.1 C 11.77 g/m*3 14.1 C 1.6 km/h
1809 08-08-2021 06:40:00 14.1 C 11.77 g/m*3 14.1 C 4.8 km/h
1810 08-08-2021 06:45:00 14.2 C 11.84 g/m*3 14.2 C 1.6 km/h
1811 08-08-2021 06:50:00 14.2 C 11.84 g/m*3 14.2 C 3.2 km/h
1812 08-08-2021 06:55:00 14.2 C 11.84 g/m*3 14.2 C 8.1 km/h
1813 08-08-2021 07:00:00 14.3 C 11.92 g/m*3 14.3 C 4.8 km/h
1814 08-08-2021 07:05:00 14.3 C 11.92 g/m*3 14.3 C 6.4 km/h
1815 08-08-2021 07:10:00 14.3 C 11.92 g/m*3 14.3 C 1.6 km/h
1816 08-08-2021 07:15:00 14.3 C 11.92 g/m*3 14.3 C 1.6 km/h
1817 08-08-2021 07:20:00 14.4 C 11.99 g/m*3 14.4 C 0 km/h
1818 08-08-2021 07:25:00 14.4 C 11.99 g/m*3 14.4 C 1.6 km/h
1819 08-08-2021 07:30:00 14.5 C 12.06 g/m*3 14.5 C 1.6 km/h
1820 08-08-2021 07:35:00 14.6 C 12.14 g/m*3 14.6 C 3.2 km/h
1821 08-08-2021 07:40:00 14.6 C 12.14 g/m*3 14.6 C 3.2 km/h
1822 08-08-2021 07:45:00 14.6 C 12.14 g/m*3 14.6 C 1.6 km/h
1823 08-08-2021 07:50:00 14.6 C 12.14 g/m*3 14.6 C 8.1 km/h
1824 08-08-2021 07:55:00 14.6 C 12.14 g/m*3 14.6 C 4.8 km/h
1825 08-08-2021 08:00:00 14.5 C 12.06 g/m*3 14.5 C 14.5 km/h
Sensor: Nr:Datum:Temp:Abs-Feuchte:Windchill:Wind:
Aussen-T/F 1826 08-08-2021 08:05:00 14.4 C 11.99 g/m*3 14.4 C 4.8 km/h
1827 08-08-2021 08:10:00 14.5 C 12.06 g/m*3 14.5 C 0 km/h
1828 08-08-2021 08:15:00 14.6 C 12.14 g/m*3 14.6 C 1.6 km/h
1829 08-08-2021 08:20:00 14.4 C 11.99 g/m*3 14.4 C 6.4 km/h
1830 08-08-2021 08:25:00 14.4 C 11.99 g/m*3 14.4 C 6.4 km/h
1831 08-08-2021 08:30:00 14.5 C 11.94 g/m*3 14.5 C 12.9 km/h
1832 08-08-2021 08:35:00 14.5 C 11.94 g/m*3 14.5 C 9.7 km/h
1833 08-08-2021 08:40:00 14.5 C 11.94 g/m*3 14.5 C 11.3 km/h
1834 08-08-2021 08:45:00 14.6 C 11.89 g/m*3 14.6 C 11.3 km/h
1835 08-08-2021 08:50:00 14.8 C 12.16 g/m*3 14.8 C 12.9 km/h
1836 08-08-2021 08:55:00 14.8 C 11.91 g/m*3 14.8 C 14.5 km/h
1837 08-08-2021 09:00:00 14.9 C 11.85 g/m*3 14.9 C 9.7 km/h
1838 08-08-2021 09:05:00 15.1 C 12 g/m*3 15.1 C 9.7 km/h
1839 08-08-2021 09:10:00 15.2 C 12.07 g/m*3 15.2 C 3.2 km/h
1840 08-08-2021 09:15:00 15.3 C 12.01 g/m*3 15.3 C 8.1 km/h
1841 08-08-2021 09:20:00 15.3 C 11.88 g/m*3 15.3 C 14.5 km/h
1842 08-08-2021 09:25:00 15.4 C 11.82 g/m*3 15.4 C 12.9 km/h
1843 08-08-2021 09:30:00 15.6 C 11.97 g/m*3 15.6 C 8.1 km/h
1844 08-08-2021 09:35:00 15.7 C 11.91 g/m*3 15.7 C 12.9 km/h
1845 08-08-2021 09:40:00 15.8 C 11.85 g/m*3 15.8 C 14.5 km/h
1846 08-08-2021 09:45:00 15.8 C 11.58 g/m*3 15.8 C 16.1 km/h
1847 08-08-2021 09:50:00 15.9 C 11.92 g/m*3 15.9 C 8.1 km/h
1848 08-08-2021 09:55:00 16.1 C 11.93 g/m*3 16.1 C 9.7 km/h
1849 08-08-2021 10:00:00 16.1 C 11.79 g/m*3 16.1 C 12.9 km/h
1850 08-08-2021 10:05:00 16.2 C 11.72 g/m*3 16.2 C 14.5 km/h
Sensor: Nr:Datum:Temp:Abs-Feuchte:Windchill:Wind:
Aussen-T/F 1851 08-08-2021 10:10:00 16.3 C 11.93 g/m*3 16.3 C 8.1 km/h
1852 08-08-2021 10:15:00 16.3 C 11.79 g/m*3 16.3 C 12.9 km/h
1853 08-08-2021 10:20:00 16.4 C 12 g/m*3 16.4 C 20.9 km/h
1854 08-08-2021 10:25:00 16.3 C 11.79 g/m*3 16.3 C 14.5 km/h
1855 08-08-2021 10:30:00 16.4 C 11.86 g/m*3 16.4 C 16.1 km/h
1856 08-08-2021 10:35:00 16.4 C 11.86 g/m*3 16.4 C 14.5 km/h
1857 08-08-2021 10:40:00 16.6 C 11.87 g/m*3 16.6 C 11.3 km/h
1858 08-08-2021 10:45:00 16.7 C 11.94 g/m*3 16.7 C 11.3 km/h
1859 08-08-2021 10:50:00 16.9 C 12.23 g/m*3 16.9 C 12.9 km/h
1860 08-08-2021 10:55:00 16.9 C 11.79 g/m*3 16.9 C 17.7 km/h
1861 08-08-2021 11:00:00 17.1 C 12.08 g/m*3 17.1 C 14.5 km/h
1862 08-08-2021 11:05:00 17.1 C 11.94 g/m*3 17.1 C 14.5 km/h
1863 08-08-2021 11:10:00 17.3 C 12.23 g/m*3 17.3 C 9.7 km/h
1864 08-08-2021 11:15:00 17.4 C 11.86 g/m*3 17.4 C 9.7 km/h
1865 08-08-2021 11:20:00 17.7 C 12.07 g/m*3 17.7 C 17.7 km/h
1866 08-08-2021 11:25:00 17.8 C 11.84 g/m*3 17.8 C 12.9 km/h
1867 08-08-2021 11:30:00 17.9 C 12.06 g/m*3 17.9 C 9.7 km/h
1868 08-08-2021 11:35:00 17.8 C 11.69 g/m*3 17.8 C 17.7 km/h
1869 08-08-2021 11:40:00 17.8 C 12.14 g/m*3 17.8 C 6.4 km/h
1870 08-08-2021 11:45:00 17.8 C 11.84 g/m*3 17.8 C 8.1 km/h
1871 08-08-2021 11:50:00 17.9 C 11.76 g/m*3 17.9 C 14.5 km/h
1872 08-08-2021 11:55:00 18 C 11.52 g/m*3 18 C 12.9 km/h
1873 08-08-2021 12:00:00 17.8 C 11.38 g/m*3 17.8 C 12.9 km/h
1874 08-08-2021 12:05:00 17.9 C 11.45 g/m*3 17.9 C 14.5 km/h
1875 08-08-2021 12:10:00 17.9 C 11.6 g/m*3 17.9 C 16.1 km/h
Sensor: Nr:Datum:Temp:Abs-Feuchte:Windchill:Wind:
Aussen-T/F 1876 08-08-2021 12:15:00 18.1 C 11.74 g/m*3 18.1 C 11.3 km/h
1877 08-08-2021 12:20:00 18.1 C 11.74 g/m*3 18.1 C 9.7 km/h
1878 08-08-2021 12:25:00 18.1 C 11.59 g/m*3 18.1 C 12.9 km/h
1879 08-08-2021 12:30:00 18 C 11.37 g/m*3 18 C 17.7 km/h
1880 08-08-2021 12:35:00 17.9 C 11.3 g/m*3 17.9 C 12.9 km/h
1881 08-08-2021 12:40:00 17.9 C 11.3 g/m*3 17.9 C 11.3 km/h
1882 08-08-2021 12:45:00 18.1 C 11.59 g/m*3 18.1 C 11.3 km/h
1883 08-08-2021 12:50:00 18.2 C 11.66 g/m*3 18.2 C 8.1 km/h
1884 08-08-2021 12:55:00 18.1 C 11.59 g/m*3 18.1 C 12.9 km/h
1885 08-08-2021 13:00:00 17.9 C 11.45 g/m*3 17.9 C 11.3 km/h
1886 08-08-2021 13:05:00 17.9 C 11.45 g/m*3 17.9 C 11.3 km/h
1887 08-08-2021 13:10:00 18 C 11.67 g/m*3 18 C 8.1 km/h
1888 08-08-2021 13:15:00 17.9 C 11.45 g/m*3 17.9 C 9.7 km/h
1889 08-08-2021 13:20:00 17.9 C 11.6 g/m*3 17.9 C 9.7 km/h
1890 08-08-2021 13:25:00 17.8 C 11.69 g/m*3 17.8 C 8.1 km/h
1891 08-08-2021 13:30:00 17.6 C 12 g/m*3 17.6 C 8.1 km/h
1892 08-08-2021 13:35:00 17.3 C 12.08 g/m*3 17.3 C 8.1 km/h
1893 08-08-2021 13:40:00 17 C 12.01 g/m*3 17 C 11.3 km/h
1894 08-08-2021 13:45:00 16.7 C 12.08 g/m*3 16.7 C 3.2 km/h
1895 08-08-2021 13:50:00 16.6 C 12.29 g/m*3 16.6 C 1.6 km/h
1896 08-08-2021 15:20:00 17.1 C 12.52 g/m*3 17.1 C 6.4 km/h
1897 08-08-2021 15:25:00 17.1 C 12.52 g/m*3 17.1 C 6.4 km/h
1898 08-08-2021 15:30:00 17.1 C 12.66 g/m*3 17.1 C 6.4 km/h
1899 08-08-2021 15:35:00 17.2 C 12.59 g/m*3 17.2 C 8.1 km/h
1900 08-08-2021 15:40:00 17.3 C 12.37 g/m*3 17.3 C 6.4 km/h
Sensor: Nr:Datum:Temp:Abs-Feuchte:Windchill:Wind:
Aussen-T/F 1901 08-08-2021 15:45:00 17.4 C 12.45 g/m*3 17.4 C 6.4 km/h
1902 08-08-2021 15:50:00 17.6 C 12.45 g/m*3 17.6 C 8.1 km/h
1903 08-08-2021 15:55:00 17.8 C 12.6 g/m*3 17.8 C 9.7 km/h
1904 08-08-2021 16:00:00 18.2 C 12.43 g/m*3 18.2 C 11.3 km/h
1905 08-08-2021 16:05:00 18.3 C 12.35 g/m*3 18.3 C 11.3 km/h
1906 08-08-2021 16:10:00 18.1 C 12.36 g/m*3 18.1 C 12.9 km/h
1907 08-08-2021 16:15:00 17.9 C 12.21 g/m*3 17.9 C 11.3 km/h
1908 08-08-2021 16:20:00 17.8 C 12.45 g/m*3 17.8 C 8.1 km/h
1909 08-08-2021 16:25:00 17.6 C 12.15 g/m*3 17.6 C 17.7 km/h
1910 08-08-2021 16:30:00 17.3 C 11.93 g/m*3 17.3 C 14.5 km/h
1911 08-08-2021 16:35:00 17.3 C 12.08 g/m*3 17.3 C 9.7 km/h
1912 08-08-2021 16:40:00 17.3 C 12.23 g/m*3 17.3 C 8.1 km/h
1913 08-08-2021 16:45:00 17.6 C 12.45 g/m*3 17.6 C 8.1 km/h
1914 08-08-2021 16:50:00 18.1 C 12.52 g/m*3 18.1 C 8.1 km/h
1915 08-08-2021 16:55:00 19 C 13.04 g/m*3 19 C 8.1 km/h
1916 08-08-2021 17:00:00 19.6 C 12.66 g/m*3 19.6 C 19.3 km/h
1917 08-08-2021 17:05:00 19.8 C 12.64 g/m*3 19.8 C 19.3 km/h
1918 08-08-2021 17:10:00 19.6 C 12.32 g/m*3 19.6 C 11.3 km/h
1919 08-08-2021 17:15:00 19.8 C 12.81 g/m*3 19.8 C 14.5 km/h
1920 08-08-2021 17:20:00 20.3 C 12.84 g/m*3 20.3 C 9.7 km/h
1921 08-08-2021 17:25:00 20.6 C 12.53 g/m*3 20.6 C 17.7 km/h
1922 08-08-2021 17:30:00 20.5 C 12.28 g/m*3 20.5 C 16.1 km/h
1923 08-08-2021 17:35:00 20.8 C 13.04 g/m*3 20.8 C 6.4 km/h
1924 08-08-2021 17:40:00 21.1 C 12.53 g/m*3 21.1 C 17.7 km/h
1925 08-08-2021 17:45:00 20.7 C 12.42 g/m*3 20.7 C 8.1 km/h
Sensor: Nr:Datum:Temp:Abs-Feuchte:Windchill:Wind:
Aussen-T/F 1926 08-08-2021 17:50:00 20.2 C 12.06 g/m*3 20.2 C 8.1 km/h
1927 08-08-2021 17:55:00 20.4 C 12.56 g/m*3 20.4 C 8.1 km/h
1928 08-08-2021 18:00:00 20.6 C 12.17 g/m*3 20.6 C 12.9 km/h
1929 08-08-2021 18:05:00 20.8 C 12.49 g/m*3 20.8 C 16.1 km/h
1930 08-08-2021 18:10:00 21.1 C 12.53 g/m*3 21.1 C 11.3 km/h
1931 08-08-2021 18:15:00 21.2 C 12.42 g/m*3 21.2 C 9.7 km/h
1932 08-08-2021 18:20:00 21.1 C 11.98 g/m*3 21.1 C 12.9 km/h
1933 08-08-2021 18:25:00 20.8 C 12.13 g/m*3 20.8 C 14.5 km/h
1934 08-08-2021 18:30:00 20.8 C 12.49 g/m*3 20.8 C 8.1 km/h
1935 08-08-2021 18:35:00 20.7 C 12.78 g/m*3 20.7 C 12.9 km/h
1936 08-08-2021 18:40:00 20.4 C 12.21 g/m*3 20.4 C 9.7 km/h
1937 08-08-2021 18:45:00 20.6 C 11.99 g/m*3 20.6 C 19.3 km/h
1938 08-08-2021 18:50:00 20.7 C 12.42 g/m*3 20.7 C 11.3 km/h
1939 08-08-2021 18:55:00 20.7 C 12.42 g/m*3 20.7 C 17.7 km/h
1940 08-08-2021 19:00:00 20.7 C 12.78 g/m*3 20.7 C 8.1 km/h
1941 08-08-2021 19:05:00 20.6 C 12.17 g/m*3 20.6 C 17.7 km/h
1942 08-08-2021 19:10:00 20.3 C 12.14 g/m*3 20.3 C 12.9 km/h
1943 08-08-2021 19:15:00 20.1 C 11.99 g/m*3 20.1 C 12.9 km/h
1944 08-08-2021 19:20:00 20 C 12.1 g/m*3 20 C 8.1 km/h
1945 08-08-2021 19:25:00 20.1 C 12.34 g/m*3 20.1 C 8.1 km/h
1946 08-08-2021 19:30:00 20 C 12.1 g/m*3 20 C 6.4 km/h
1947 08-08-2021 19:35:00 19.9 C 11.85 g/m*3 19.9 C 9.7 km/h
1948 08-08-2021 19:40:00 19.8 C 11.96 g/m*3 19.8 C 11.3 km/h
1949 08-08-2021 19:45:00 19.7 C 12.23 g/m*3 19.7 C 8.1 km/h
1950 08-08-2021 19:50:00 19.7 C 11.89 g/m*3 19.7 C 11.3 km/h
Sensor: Nr:Datum:Temp:Abs-Feuchte:Windchill:Wind:
Aussen-T/F 1951 08-08-2021 19:55:00 19.6 C 11.99 g/m*3 19.6 C 6.4 km/h
1952 08-08-2021 20:00:00 19.4 C 12.01 g/m*3 19.4 C 11.3 km/h
1953 08-08-2021 20:05:00 19.4 C 12.68 g/m*3 19.4 C 3.2 km/h
1954 08-08-2021 20:10:00 19.3 C 12.44 g/m*3 19.3 C 0 km/h
1955 08-08-2021 20:15:00 19.2 C 12.53 g/m*3 19.2 C 4.8 km/h
1956 08-08-2021 20:20:00 19.1 C 12.62 g/m*3 19.1 C 3.2 km/h
1957 08-08-2021 20:25:00 18.9 C 12.64 g/m*3 18.9 C 3.2 km/h
1958 08-08-2021 20:30:00 18.7 C 12.49 g/m*3 18.7 C 1.6 km/h
1959 08-08-2021 20:35:00 18.3 C 12.35 g/m*3 18.3 C 4.8 km/h
1960 08-08-2021 20:40:00 17.9 C 12.06 g/m*3 17.9 C 4.8 km/h
1961 08-08-2021 20:45:00 17.5 C 11.93 g/m*3 17.5 C 4.8 km/h
1962 08-08-2021 20:50:00 17.1 C 11.79 g/m*3 17.1 C 3.2 km/h
1963 08-08-2021 20:55:00 16.6 C 11.58 g/m*3 16.6 C 6.4 km/h
1964 08-08-2021 21:00:00 16.2 C 11.58 g/m*3 16.2 C 6.4 km/h
1965 08-08-2021 21:05:00 15.9 C 11.51 g/m*3 15.9 C 4.8 km/h
1966 08-08-2021 21:10:00 15.7 C 11.51 g/m*3 15.7 C 6.4 km/h
1967 08-08-2021 21:15:00 15.4 C 11.3 g/m*3 15.4 C 4.8 km/h
1968 08-08-2021 21:20:00 15.2 C 11.29 g/m*3 15.2 C 4.8 km/h
1969 08-08-2021 21:25:00 15 C 11.16 g/m*3 15 C 4.8 km/h
1970 08-08-2021 21:30:00 14.8 C 11.15 g/m*3 14.8 C 4.8 km/h
1971 08-08-2021 21:35:00 14.7 C 11.08 g/m*3 14.7 C 4.8 km/h
1972 08-08-2021 21:40:00 14.6 C 11.14 g/m*3 14.6 C 4.8 km/h
1973 08-08-2021 21:45:00 14.5 C 11.07 g/m*3 14.5 C 6.4 km/h
1974 08-08-2021 21:50:00 14.4 C 11.13 g/m*3 14.4 C 6.4 km/h
1975 08-08-2021 21:55:00 14.3 C 11.06 g/m*3 14.3 C 6.4 km/h
Sensor: Nr:Datum:Temp:Abs-Feuchte:Windchill:Wind:
Aussen-T/F 1976 08-08-2021 22:00:00 14.3 C 11.06 g/m*3 14.3 C 4.8 km/h
1977 08-08-2021 22:05:00 14.2 C 10.99 g/m*3 14.2 C 6.4 km/h
1978 08-08-2021 22:10:00 14.1 C 11.04 g/m*3 14.1 C 8.1 km/h
1979 08-08-2021 22:15:00 14.1 C 11.04 g/m*3 14.1 C 4.8 km/h
1980 08-08-2021 22:20:00 14 C 10.98 g/m*3 14 C 6.4 km/h
1981 08-08-2021 22:25:00 13.9 C 10.91 g/m*3 13.9 C 4.8 km/h
1982 08-08-2021 22:30:00 13.9 C 10.91 g/m*3 13.9 C 4.8 km/h
1983 08-08-2021 22:35:00 13.8 C 10.84 g/m*3 13.8 C 4.8 km/h
1984 08-08-2021 22:40:00 13.7 C 10.78 g/m*3 13.7 C 3.2 km/h
1985 08-08-2021 22:45:00 13.6 C 10.71 g/m*3 13.6 C 1.6 km/h
1986 08-08-2021 22:50:00 13.5 C 10.64 g/m*3 13.5 C 3.2 km/h
1987 08-08-2021 22:55:00 13.4 C 10.58 g/m*3 13.4 C 4.8 km/h
1988 08-08-2021 23:00:00 13.3 C 10.51 g/m*3 13.3 C 3.2 km/h
1989 08-08-2021 23:05:00 13.2 C 10.45 g/m*3 13.2 C 3.2 km/h
1990 08-08-2021 23:10:00 13.2 C 10.56 g/m*3 13.2 C 1.6 km/h
1991 08-08-2021 23:15:00 13.2 C 10.56 g/m*3 13.2 C 1.6 km/h
1992 08-08-2021 23:20:00 13.1 C 10.5 g/m*3 13.1 C 1.6 km/h
1993 08-08-2021 23:25:00 13.1 C 10.5 g/m*3 13.1 C 3.2 km/h
1994 08-08-2021 23:30:00 13.1 C 10.5 g/m*3 13.1 C 3.2 km/h
1995 08-08-2021 23:35:00 13 C 10.43 g/m*3 13 C 3.2 km/h
1996 08-08-2021 23:40:00 12.9 C 10.48 g/m*3 12.9 C 1.6 km/h
1997 08-08-2021 23:45:00 12.9 C 10.48 g/m*3 12.9 C 1.6 km/h
1998 08-08-2021 23:50:00 12.9 C 10.48 g/m*3 12.9 C 1.6 km/h
1999 08-08-2021 23:55:00 12.9 C 10.48 g/m*3 12.9 C 3.2 km/h
2000 09-08-2021 00:00:00 12.8 C 10.42 g/m*3 12.8 C 3.2 km/h
Sensor: Nr:Datum:Temp:Abs-Feuchte:Windchill:Wind:
Aussen-T/F 2001 09-08-2021 00:05:00 12.8 C 10.42 g/m*3 12.8 C 1.6 km/h
2002 09-08-2021 00:10:00 12.8 C 10.42 g/m*3 12.8 C 1.6 km/h
2003 09-08-2021 00:15:00 12.8 C 10.42 g/m*3 12.8 C 3.2 km/h
2004 09-08-2021 00:20:00 12.8 C 10.42 g/m*3 12.8 C 3.2 km/h
2005 09-08-2021 00:25:00 12.8 C 10.42 g/m*3 12.8 C 3.2 km/h
2006 09-08-2021 00:30:00 12.9 C 10.59 g/m*3 12.9 C 3.2 km/h
2007 09-08-2021 00:35:00 12.9 C 10.59 g/m*3 12.9 C 3.2 km/h
2008 09-08-2021 00:40:00 12.9 C 10.48 g/m*3 12.9 C 4.8 km/h
2009 09-08-2021 00:45:00 12.8 C 10.42 g/m*3 12.8 C 4.8 km/h
2010 09-08-2021 00:50:00 12.8 C 10.42 g/m*3 12.8 C 3.2 km/h
2011 09-08-2021 00:55:00 12.8 C 10.42 g/m*3 12.8 C 1.6 km/h
2012 09-08-2021 01:00:00 12.7 C 10.35 g/m*3 12.7 C 1.6 km/h
2013 09-08-2021 01:05:00 12.7 C 10.35 g/m*3 12.7 C 1.6 km/h
2014 09-08-2021 01:10:00 12.7 C 10.35 g/m*3 12.7 C 1.6 km/h
2015 09-08-2021 01:15:00 12.7 C 10.35 g/m*3 12.7 C 3.2 km/h
2016 09-08-2021 01:20:00 12.7 C 10.46 g/m*3 12.7 C 1.6 km/h
2017 09-08-2021 01:25:00 12.7 C 10.46 g/m*3 12.7 C 3.2 km/h
2018 09-08-2021 01:30:00 12.7 C 10.46 g/m*3 12.7 C 1.6 km/h
2019 09-08-2021 01:35:00 12.6 C 10.4 g/m*3 12.6 C 0 km/h
2020 09-08-2021 01:40:00 12.6 C 10.4 g/m*3 12.6 C 1.6 km/h
2021 09-08-2021 01:45:00 12.6 C 10.4 g/m*3 12.6 C 0 km/h
2022 09-08-2021 01:50:00 12.6 C 10.4 g/m*3 12.6 C 1.6 km/h
2023 09-08-2021 01:55:00 12.6 C 10.4 g/m*3 12.6 C 0 km/h
2024 09-08-2021 02:00:00 12.6 C 10.4 g/m*3 12.6 C 1.6 km/h
2025 09-08-2021 02:05:00 12.6 C 10.4 g/m*3 12.6 C 1.6 km/h
Sensor: Nr:Datum:Temp:Abs-Feuchte:Windchill:Wind:
Aussen-T/F 2026 09-08-2021 02:10:00 12.6 C 10.4 g/m*3 12.6 C 1.6 km/h
2027 09-08-2021 02:15:00 12.6 C 10.4 g/m*3 12.6 C 3.2 km/h
2028 09-08-2021 02:20:00 12.6 C 10.29 g/m*3 12.6 C 3.2 km/h
2029 09-08-2021 02:25:00 12.5 C 10.22 g/m*3 12.5 C 1.6 km/h
2030 09-08-2021 02:30:00 12.5 C 10.22 g/m*3 12.5 C 1.6 km/h
2031 09-08-2021 02:35:00 12.4 C 10.16 g/m*3 12.4 C 1.6 km/h
2032 09-08-2021 02:40:00 12.4 C 10.16 g/m*3 12.4 C 3.2 km/h
2033 09-08-2021 02:45:00 12.4 C 10.16 g/m*3 12.4 C 1.6 km/h
2034 09-08-2021 02:50:00 12.4 C 10.16 g/m*3 12.4 C 1.6 km/h
2035 09-08-2021 02:55:00 12.4 C 10.16 g/m*3 12.4 C 3.2 km/h
2036 09-08-2021 03:00:00 12.3 C 10.1 g/m*3 12.3 C 1.6 km/h
2037 09-08-2021 03:05:00 12.3 C 10.1 g/m*3 12.3 C 3.2 km/h
2038 09-08-2021 03:10:00 12.3 C 10.1 g/m*3 12.3 C 1.6 km/h
2039 09-08-2021 03:15:00 12.3 C 10.1 g/m*3 12.3 C 3.2 km/h
2040 09-08-2021 03:20:00 12.3 C 10.1 g/m*3 12.3 C 1.6 km/h
2041 09-08-2021 03:25:00 12.3 C 10.1 g/m*3 12.3 C 0 km/h
2042 09-08-2021 03:30:00 12.4 C 10.16 g/m*3 12.4 C 0 km/h
2043 09-08-2021 03:35:00 12.4 C 10.16 g/m*3 12.4 C 0 km/h
2044 09-08-2021 03:40:00 12.4 C 10.16 g/m*3 12.4 C 0 km/h
2045 09-08-2021 03:45:00 12.4 C 10.16 g/m*3 12.4 C 0 km/h
2046 09-08-2021 03:50:00 12.4 C 10.16 g/m*3 12.4 C 0 km/h
2047 09-08-2021 03:55:00 12.4 C 10.16 g/m*3 12.4 C 0 km/h
2048 09-08-2021 04:00:00 12.4 C 10.16 g/m*3 12.4 C 0 km/h
2049 09-08-2021 04:05:00 12.4 C 10.16 g/m*3 12.4 C 0 km/h
2050 09-08-2021 04:10:00 12.3 C 10.1 g/m*3 12.3 C 0 km/h
Sensor: Nr:Datum:Temp:Abs-Feuchte:Windchill:Wind:
Aussen-T/F 2051 09-08-2021 04:15:00 12.3 C 10.1 g/m*3 12.3 C 0 km/h
2052 09-08-2021 04:20:00 12.3 C 10.21 g/m*3 12.3 C 0 km/h
2053 09-08-2021 04:25:00 12.3 C 10.21 g/m*3 12.3 C 0 km/h
2054 09-08-2021 04:30:00 12.3 C 10.21 g/m*3 12.3 C 0 km/h
2055 09-08-2021 04:35:00 12.3 C 10.21 g/m*3 12.3 C 0 km/h
2056 09-08-2021 04:40:00 12.3 C 10.21 g/m*3 12.3 C 0 km/h
2057 09-08-2021 04:45:00 12.3 C 10.21 g/m*3 12.3 C 1.6 km/h
2058 09-08-2021 04:50:00 12.3 C 10.21 g/m*3 12.3 C 0 km/h
2059 09-08-2021 04:55:00 12.3 C 10.21 g/m*3 12.3 C 0 km/h
2060 09-08-2021 05:00:00 12.3 C 10.21 g/m*3 12.3 C 0 km/h
2061 09-08-2021 05:05:00 12.3 C 10.21 g/m*3 12.3 C 0 km/h
2062 09-08-2021 05:10:00 12.3 C 10.21 g/m*3 12.3 C 0 km/h
2063 09-08-2021 05:15:00 12.3 C 10.21 g/m*3 12.3 C 0 km/h
2064 09-08-2021 05:20:00 12.3 C 10.21 g/m*3 12.3 C 0 km/h
2065 09-08-2021 05:25:00 12.3 C 10.21 g/m*3 12.3 C 0 km/h
2066 09-08-2021 05:30:00 12.3 C 10.21 g/m*3 12.3 C 0 km/h
2067 09-08-2021 05:35:00 12.3 C 10.21 g/m*3 12.3 C 0 km/h
2068 09-08-2021 05:40:00 12.3 C 10.21 g/m*3 12.3 C 0 km/h
2069 09-08-2021 05:45:00 12.3 C 10.21 g/m*3 12.3 C 0 km/h
2070 09-08-2021 05:50:00 12.2 C 10.14 g/m*3 12.2 C 0 km/h
2071 09-08-2021 05:55:00 12.2 C 10.14 g/m*3 12.2 C 0 km/h
2072 09-08-2021 06:00:00 12.2 C 10.14 g/m*3 12.2 C 0 km/h
2073 09-08-2021 06:05:00 12.2 C 10.25 g/m*3 12.2 C 0 km/h
2074 09-08-2021 06:10:00 12.2 C 10.25 g/m*3 12.2 C 0 km/h
2075 09-08-2021 06:15:00 12.2 C 10.25 g/m*3 12.2 C 0 km/h
Sensor: Nr:Datum:Temp:Abs-Feuchte:Windchill:Wind:
Aussen-T/F 2076 09-08-2021 06:20:00 12.2 C 10.25 g/m*3 12.2 C 0 km/h
2077 09-08-2021 06:25:00 12.2 C 10.25 g/m*3 12.2 C 0 km/h
2078 09-08-2021 06:30:00 12.2 C 10.25 g/m*3 12.2 C 0 km/h
2079 09-08-2021 06:35:00 12.2 C 10.25 g/m*3 12.2 C 0 km/h
2080 09-08-2021 06:40:00 12.3 C 10.32 g/m*3 12.3 C 0 km/h
2081 09-08-2021 06:45:00 12.3 C 10.32 g/m*3 12.3 C 0 km/h
2082 09-08-2021 06:50:00 12.3 C 10.32 g/m*3 12.3 C 3.2 km/h
2083 09-08-2021 06:55:00 12.3 C 10.32 g/m*3 12.3 C 0 km/h
2084 09-08-2021 07:00:00 12.4 C 10.38 g/m*3 12.4 C 0 km/h
2085 09-08-2021 07:05:00 12.4 C 10.38 g/m*3 12.4 C 0 km/h
2086 09-08-2021 07:10:00 12.5 C 10.44 g/m*3 12.5 C 0 km/h
2087 09-08-2021 07:15:00 12.6 C 10.51 g/m*3 12.6 C 0 km/h
2088 09-08-2021 07:20:00 12.7 C 10.58 g/m*3 12.7 C 0 km/h
2089 09-08-2021 07:25:00 12.8 C 10.64 g/m*3 12.8 C 1.6 km/h
2090 09-08-2021 07:30:00 12.9 C 10.71 g/m*3 12.9 C 0 km/h
2091 09-08-2021 07:35:00 13 C 10.77 g/m*3 13 C 0 km/h
2092 09-08-2021 07:40:00 13.1 C 10.84 g/m*3 13.1 C 0 km/h
2093 09-08-2021 07:45:00 13.2 C 10.91 g/m*3 13.2 C 0 km/h
2094 09-08-2021 07:50:00 13.2 C 10.91 g/m*3 13.2 C 0 km/h
2095 09-08-2021 07:55:00 13.3 C 10.98 g/m*3 13.3 C 0 km/h
2096 09-08-2021 08:00:00 13.4 C 11.04 g/m*3 13.4 C 0 km/h
2097 09-08-2021 08:05:00 13.6 C 11.18 g/m*3 13.6 C 0 km/h
2098 09-08-2021 08:10:00 13.7 C 11.25 g/m*3 13.7 C 0 km/h
2099 09-08-2021 08:15:00 13.8 C 11.32 g/m*3 13.8 C 0 km/h
2100 09-08-2021 08:20:00 13.9 C 11.39 g/m*3 13.9 C 1.6 km/h
Sensor: Nr:Datum:Temp:Abs-Feuchte:Windchill:Wind:
Aussen-T/F 2101 09-08-2021 08:25:00 14.1 C 11.53 g/m*3 14.1 C 0 km/h
2102 09-08-2021 08:30:00 14.1 C 11.53 g/m*3 14.1 C 0 km/h
2103 09-08-2021 08:35:00 14.2 C 11.6 g/m*3 14.2 C 0 km/h
2104 09-08-2021 08:40:00 14.4 C 11.62 g/m*3 14.4 C 0 km/h
2105 09-08-2021 08:45:00 14.6 C 11.76 g/m*3 14.6 C 0 km/h
2106 09-08-2021 08:50:00 14.7 C 11.83 g/m*3 14.7 C 0 km/h
2107 09-08-2021 08:55:00 14.9 C 11.85 g/m*3 14.9 C 1.6 km/h
2108 09-08-2021 09:00:00 15.1 C 12 g/m*3 15.1 C 6.4 km/h
2109 09-08-2021 09:05:00 15.3 C 12.01 g/m*3 15.3 C 6.4 km/h
2110 09-08-2021 09:10:00 15.3 C 11.88 g/m*3 15.3 C 3.2 km/h
2111 09-08-2021 09:15:00 15.4 C 11.96 g/m*3 15.4 C 3.2 km/h
2112 09-08-2021 09:20:00 15.5 C 11.9 g/m*3 15.5 C 1.6 km/h
2113 09-08-2021 09:25:00 15.5 C 12.03 g/m*3 15.5 C 6.4 km/h
2114 09-08-2021 09:30:00 15.6 C 11.97 g/m*3 15.6 C 3.2 km/h
2115 09-08-2021 09:35:00 15.7 C 12.04 g/m*3 15.7 C 3.2 km/h
2116 09-08-2021 09:40:00 15.7 C 12.04 g/m*3 15.7 C 4.8 km/h
2117 09-08-2021 09:45:00 15.9 C 12.19 g/m*3 15.9 C 1.6 km/h
2118 09-08-2021 09:50:00 16.1 C 12.34 g/m*3 16.1 C 1.6 km/h
2119 09-08-2021 09:55:00 16.2 C 12.41 g/m*3 16.2 C 6.4 km/h
2120 09-08-2021 10:00:00 16.3 C 12.35 g/m*3 16.3 C 4.8 km/h
2121 09-08-2021 10:05:00 16.6 C 12.01 g/m*3 16.6 C 9.7 km/h
2122 09-08-2021 10:10:00 17.2 C 12.15 g/m*3 17.2 C 12.9 km/h
2123 09-08-2021 10:15:00 17.6 C 12 g/m*3 17.6 C 9.7 km/h
2124 09-08-2021 10:20:00 18 C 12.13 g/m*3 18 C 11.3 km/h
2125 09-08-2021 10:25:00 18.3 C 12.2 g/m*3 18.3 C 14.5 km/h
Sensor: Nr:Datum:Temp:Abs-Feuchte:Windchill:Wind:
Aussen-T/F 2126 09-08-2021 10:30:00 18.7 C 12.17 g/m*3 18.7 C 12.9 km/h
2127 09-08-2021 10:35:00 19.7 C 12.57 g/m*3 19.7 C 14.5 km/h
2128 09-08-2021 10:40:00 20 C 12.79 g/m*3 20 C 11.3 km/h
2129 09-08-2021 16:40:00 22.8 C 11.58 g/m*3 22.8 C 20.9 km/h
2130 09-08-2021 16:45:00 23 C 12.13 g/m*3 23 C 12.9 km/h
2131 09-08-2021 16:50:00 23.3 C 11.5 g/m*3 23.3 C 12.9 km/h
2132 09-08-2021 16:55:00 23.1 C 12.2 g/m*3 23.1 C 12.9 km/h
2133 09-08-2021 17:00:00 22.8 C 11.99 g/m*3 22.8 C 11.3 km/h
2134 09-08-2021 17:05:00 22.8 C 12.4 g/m*3 22.8 C 9.7 km/h
2135 09-08-2021 17:10:00 22.4 C 12.51 g/m*3 22.4 C 8.1 km/h
2136 09-08-2021 17:15:00 22 C 11.84 g/m*3 22 C 11.3 km/h
2137 09-08-2021 17:20:00 21.5 C 11.5 g/m*3 21.5 C 16.1 km/h
2138 09-08-2021 17:25:00 21.3 C 12.3 g/m*3 21.3 C 6.4 km/h
2139 09-08-2021 17:30:00 21.7 C 12.02 g/m*3 21.7 C 8.1 km/h
2140 09-08-2021 17:35:00 22.4 C 11.92 g/m*3 22.4 C 9.7 km/h
2141 09-08-2021 17:40:00 22.6 C 12.05 g/m*3 22.6 C 9.7 km/h
2142 09-08-2021 17:45:00 22.3 C 11.85 g/m*3 22.3 C 4.8 km/h
2143 09-08-2021 17:50:00 22 C 12.03 g/m*3 22 C 6.4 km/h
2144 09-08-2021 17:55:00 21.8 C 12.47 g/m*3 21.8 C 9.7 km/h
2145 09-08-2021 18:00:00 21.7 C 12.21 g/m*3 21.7 C 4.8 km/h
2146 09-08-2021 18:05:00 21.7 C 12.4 g/m*3 21.7 C 8.1 km/h
2147 09-08-2021 18:10:00 21.9 C 12.74 g/m*3 21.9 C 8.1 km/h
2148 09-08-2021 18:15:00 22.3 C 12.05 g/m*3 22.3 C 11.3 km/h
2149 09-08-2021 18:20:00 22.6 C 12.25 g/m*3 22.6 C 8.1 km/h
2150 09-08-2021 18:25:00 23 C 12.54 g/m*3 23 C 6.4 km/h
Sensor: Nr:Datum:Temp:Abs-Feuchte:Windchill:Wind:
Aussen-T/F 2151 09-08-2021 18:30:00 23 C 12.33 g/m*3 23 C 9.7 km/h
2152 09-08-2021 18:35:00 23 C 12.13 g/m*3 23 C 9.7 km/h
2153 09-08-2021 18:40:00 23.2 C 12.27 g/m*3 23.2 C 11.3 km/h
2154 09-08-2021 18:45:00 23.5 C 13.11 g/m*3 23.5 C 8.1 km/h
2155 09-08-2021 18:50:00 23.5 C 12.05 g/m*3 23.5 C 6.4 km/h
2156 09-08-2021 18:55:00 23.4 C 12.62 g/m*3 23.4 C 8.1 km/h
2157 09-08-2021 19:00:00 23.3 C 12.96 g/m*3 23.3 C 4.8 km/h
2158 09-08-2021 19:05:00 23.2 C 12.89 g/m*3 23.2 C 8.1 km/h
2159 09-08-2021 19:10:00 22.9 C 12.47 g/m*3 22.9 C 3.2 km/h
2160 09-08-2021 19:15:00 22.8 C 13.41 g/m*3 22.8 C 0 km/h
2161 09-08-2021 19:20:00 22.6 C 12.66 g/m*3 22.6 C 8.1 km/h
2162 09-08-2021 19:25:00 22.5 C 13.18 g/m*3 22.5 C 6.4 km/h
2163 09-08-2021 19:30:00 22.4 C 13.11 g/m*3 22.4 C 4.8 km/h
2164 09-08-2021 19:35:00 22.4 C 13.11 g/m*3 22.4 C 4.8 km/h
2165 09-08-2021 19:40:00 22.3 C 12.44 g/m*3 22.3 C 0 km/h
2166 09-08-2021 19:45:00 22.1 C 11.91 g/m*3 22.1 C 9.7 km/h
2167 09-08-2021 19:50:00 21.8 C 12.47 g/m*3 21.8 C 6.4 km/h
2168 09-08-2021 19:55:00 21.7 C 12.78 g/m*3 21.7 C 6.4 km/h
2169 09-08-2021 20:00:00 21.6 C 13.47 g/m*3 21.6 C 4.8 km/h
2170 09-08-2021 20:05:00 21.4 C 13.5 g/m*3 21.4 C 4.8 km/h
2171 09-08-2021 20:10:00 21.2 C 13.34 g/m*3 21.2 C 0 km/h
2172 09-08-2021 20:15:00 20.9 C 13.3 g/m*3 20.9 C 0 km/h
2173 09-08-2021 20:20:00 20.6 C 13.07 g/m*3 20.6 C 0 km/h
2174 09-08-2021 20:25:00 20.2 C 12.94 g/m*3 20.2 C 3.2 km/h
2175 09-08-2021 20:30:00 19.8 C 12.98 g/m*3 19.8 C 4.8 km/h
Sensor: Nr:Datum:Temp:Abs-Feuchte:Windchill:Wind:
Aussen-T/F 2176 09-08-2021 20:35:00 19.3 C 12.61 g/m*3 19.3 C 4.8 km/h
2177 09-08-2021 20:40:00 18.9 C 12.47 g/m*3 18.9 C 6.4 km/h
2178 09-08-2021 20:45:00 18.5 C 12.34 g/m*3 18.5 C 6.4 km/h
2179 09-08-2021 20:50:00 18.2 C 12.43 g/m*3 18.2 C 6.4 km/h
2180 09-08-2021 20:55:00 17.8 C 12.14 g/m*3 17.8 C 6.4 km/h
2181 09-08-2021 21:00:00 17.6 C 12.15 g/m*3 17.6 C 6.4 km/h
2182 09-08-2021 21:05:00 17.3 C 12.08 g/m*3 17.3 C 4.8 km/h
2183 09-08-2021 21:10:00 17.1 C 12.08 g/m*3 17.1 C 4.8 km/h
2184 09-08-2021 21:15:00 16.9 C 11.94 g/m*3 16.9 C 6.4 km/h
2185 09-08-2021 21:20:00 16.8 C 12.01 g/m*3 16.8 C 4.8 km/h
2186 09-08-2021 21:25:00 16.6 C 12.01 g/m*3 16.6 C 3.2 km/h
2187 09-08-2021 21:30:00 16.5 C 12.08 g/m*3 16.5 C 0 km/h
2188 09-08-2021 21:35:00 16.3 C 11.93 g/m*3 16.3 C 3.2 km/h
2189 09-08-2021 21:40:00 16.2 C 11.86 g/m*3 16.2 C 4.8 km/h
2190 09-08-2021 21:45:00 16.1 C 11.79 g/m*3 16.1 C 3.2 km/h
2191 09-08-2021 21:50:00 15.9 C 11.78 g/m*3 15.9 C 1.6 km/h
2192 09-08-2021 21:55:00 15.8 C 11.71 g/m*3 15.8 C 1.6 km/h
2193 09-08-2021 22:00:00 15.7 C 11.64 g/m*3 15.7 C 0 km/h
2194 09-08-2021 22:05:00 15.6 C 11.7 g/m*3 15.6 C 0 km/h
2195 09-08-2021 22:10:00 15.4 C 11.56 g/m*3 15.4 C 0 km/h
2196 09-08-2021 22:15:00 15.3 C 11.49 g/m*3 15.3 C 0 km/h
2197 09-08-2021 22:20:00 15.2 C 11.55 g/m*3 15.2 C 3.2 km/h
2198 09-08-2021 22:25:00 15.1 C 11.48 g/m*3 15.1 C 3.2 km/h
2199 09-08-2021 22:30:00 15.1 C 11.48 g/m*3 15.1 C 0 km/h
2200 09-08-2021 22:35:00 15 C 11.54 g/m*3 15 C 0 km/h
Sensor: Nr:Datum:Temp:Abs-Feuchte:Windchill:Wind:
Aussen-T/F 2201 09-08-2021 22:40:00 15 C 11.54 g/m*3 15 C 0 km/h
2202 09-08-2021 22:45:00 14.9 C 11.47 g/m*3 14.9 C 0 km/h
2203 09-08-2021 22:50:00 14.8 C 11.27 g/m*3 14.8 C 0 km/h
2204 09-08-2021 22:55:00 14.7 C 11.33 g/m*3 14.7 C 1.6 km/h
2205 09-08-2021 23:00:00 14.6 C 11.26 g/m*3 14.6 C 1.6 km/h
2206 09-08-2021 23:05:00 14.4 C 11.13 g/m*3 14.4 C 3.2 km/h
2207 09-08-2021 23:10:00 14.3 C 11.06 g/m*3 14.3 C 0 km/h
2208 09-08-2021 23:15:00 14.3 C 11.06 g/m*3 14.3 C 0 km/h
2209 09-08-2021 23:20:00 14.2 C 11.11 g/m*3 14.2 C 0 km/h
2210 09-08-2021 23:25:00 14.1 C 11.04 g/m*3 14.1 C 0 km/h
2211 09-08-2021 23:30:00 14 C 10.98 g/m*3 14 C 0 km/h
2212 09-08-2021 23:35:00 13.9 C 10.91 g/m*3 13.9 C 0 km/h
2213 09-08-2021 23:40:00 13.8 C 10.84 g/m*3 13.8 C 0 km/h
2214 09-08-2021 23:45:00 13.8 C 10.84 g/m*3 13.8 C 0 km/h
2215 09-08-2021 23:50:00 13.7 C 10.89 g/m*3 13.7 C 0 km/h
2216 09-08-2021 23:55:00 13.7 C 10.78 g/m*3 13.7 C 0 km/h
2217 10-08-2021 00:00:00 13.6 C 10.71 g/m*3 13.6 C 0 km/h
2218 10-08-2021 00:05:00 13.5 C 10.76 g/m*3 13.5 C 0 km/h
2219 10-08-2021 00:10:00 13.5 C 10.76 g/m*3 13.5 C 0 km/h
2220 10-08-2021 00:15:00 13.4 C 10.69 g/m*3 13.4 C 0 km/h
2221 10-08-2021 00:20:00 13.3 C 10.63 g/m*3 13.3 C 0 km/h
2222 10-08-2021 00:25:00 13.3 C 10.63 g/m*3 13.3 C 0 km/h
2223 10-08-2021 00:30:00 13.2 C 10.56 g/m*3 13.2 C 0 km/h
2224 10-08-2021 00:35:00 13.1 C 10.5 g/m*3 13.1 C 0 km/h
2225 10-08-2021 00:40:00 13 C 10.43 g/m*3 13 C 0 km/h
Sensor: Nr:Datum:Temp:Abs-Feuchte:Windchill:Wind:
Aussen-T/F 2226 10-08-2021 00:45:00 12.9 C 10.37 g/m*3 12.9 C 0 km/h
2227 10-08-2021 00:50:00 12.8 C 10.3 g/m*3 12.8 C 0 km/h
2228 10-08-2021 00:55:00 12.8 C 10.3 g/m*3 12.8 C 0 km/h
2229 10-08-2021 01:00:00 12.7 C 10.24 g/m*3 12.7 C 0 km/h
2230 10-08-2021 01:05:00 12.6 C 10.18 g/m*3 12.6 C 0 km/h
2231 10-08-2021 01:10:00 12.6 C 10.29 g/m*3 12.6 C 0 km/h
2232 10-08-2021 01:15:00 12.6 C 10.29 g/m*3 12.6 C 0 km/h
2233 10-08-2021 01:20:00 12.5 C 10.22 g/m*3 12.5 C 0 km/h
2234 10-08-2021 01:25:00 12.4 C 10.16 g/m*3 12.4 C 0 km/h
2235 10-08-2021 01:30:00 12.4 C 10.16 g/m*3 12.4 C 0 km/h
2236 10-08-2021 01:35:00 12.3 C 10.1 g/m*3 12.3 C 0 km/h
2237 10-08-2021 01:40:00 12.3 C 10.1 g/m*3 12.3 C 0 km/h
2238 10-08-2021 01:45:00 12.3 C 10.1 g/m*3 12.3 C 0 km/h
2239 10-08-2021 01:50:00 12.2 C 10.04 g/m*3 12.2 C 0 km/h
2240 10-08-2021 01:55:00 12.2 C 10.04 g/m*3 12.2 C 0 km/h
2241 10-08-2021 02:00:00 12.2 C 10.04 g/m*3 12.2 C 0 km/h
2242 10-08-2021 02:05:00 12.1 C 10.08 g/m*3 12.1 C 0 km/h
2243 10-08-2021 02:10:00 12.1 C 10.08 g/m*3 12.1 C 0 km/h
2244 10-08-2021 02:15:00 12.1 C 10.08 g/m*3 12.1 C 0 km/h
2245 10-08-2021 02:20:00 12.2 C 10.14 g/m*3 12.2 C 0 km/h
2246 10-08-2021 02:25:00 12.1 C 10.08 g/m*3 12.1 C 0 km/h
2247 10-08-2021 02:30:00 12.1 C 10.08 g/m*3 12.1 C 0 km/h
2248 10-08-2021 02:35:00 12.1 C 10.08 g/m*3 12.1 C 0 km/h
2249 10-08-2021 02:40:00 12 C 10.02 g/m*3 12 C 0 km/h
2250 10-08-2021 02:45:00 12 C 10.02 g/m*3 12 C 0 km/h
Sensor: Nr:Datum:Temp:Abs-Feuchte:Windchill:Wind:
Aussen-T/F 2251 10-08-2021 02:50:00 12 C 10.02 g/m*3 12 C 0 km/h
2252 10-08-2021 02:55:00 12 C 10.02 g/m*3 12 C 0 km/h
2253 10-08-2021 03:00:00 12.1 C 10.08 g/m*3 12.1 C 0 km/h
2254 10-08-2021 03:05:00 12.1 C 10.19 g/m*3 12.1 C 0 km/h
2255 10-08-2021 03:10:00 12.1 C 10.19 g/m*3 12.1 C 0 km/h
2256 10-08-2021 03:15:00 12.1 C 10.19 g/m*3 12.1 C 0 km/h
2257 10-08-2021 03:20:00 12.1 C 10.19 g/m*3 12.1 C 0 km/h
2258 10-08-2021 03:25:00 12.2 C 10.25 g/m*3 12.2 C 0 km/h
2259 10-08-2021 03:30:00 12.2 C 10.25 g/m*3 12.2 C 0 km/h
2260 10-08-2021 03:35:00 12.2 C 10.25 g/m*3 12.2 C 0 km/h
2261 10-08-2021 03:40:00 12.2 C 10.25 g/m*3 12.2 C 0 km/h
2262 10-08-2021 03:45:00 12.2 C 10.25 g/m*3 12.2 C 0 km/h
2263 10-08-2021 03:50:00 12.2 C 10.25 g/m*3 12.2 C 0 km/h
2264 10-08-2021 03:55:00 12.3 C 10.32 g/m*3 12.3 C 0 km/h
2265 10-08-2021 04:00:00 12.3 C 10.32 g/m*3 12.3 C 0 km/h
2266 10-08-2021 04:05:00 12.3 C 10.32 g/m*3 12.3 C 0 km/h
2267 10-08-2021 04:10:00 12.3 C 10.32 g/m*3 12.3 C 0 km/h
2268 10-08-2021 04:15:00 12.3 C 10.32 g/m*3 12.3 C 0 km/h
2269 10-08-2021 04:20:00 12.3 C 10.32 g/m*3 12.3 C 0 km/h
2270 10-08-2021 04:25:00 12.3 C 10.32 g/m*3 12.3 C 0 km/h
2271 10-08-2021 04:30:00 12.3 C 10.32 g/m*3 12.3 C 0 km/h
2272 10-08-2021 04:35:00 12.3 C 10.32 g/m*3 12.3 C 0 km/h
2273 10-08-2021 04:40:00 12.4 C 10.38 g/m*3 12.4 C 0 km/h
2274 10-08-2021 04:45:00 12.4 C 10.38 g/m*3 12.4 C 0 km/h
2275 10-08-2021 04:50:00 12.5 C 10.44 g/m*3 12.5 C 0 km/h
Sensor: Nr:Datum:Temp:Abs-Feuchte:Windchill:Wind:
Aussen-T/F 2276 10-08-2021 04:55:00 12.6 C 10.51 g/m*3 12.6 C 0 km/h
2277 10-08-2021 05:00:00 12.6 C 10.62 g/m*3 12.6 C 0 km/h
2278 10-08-2021 05:05:00 12.6 C 10.62 g/m*3 12.6 C 0 km/h
2279 10-08-2021 05:10:00 12.6 C 10.62 g/m*3 12.6 C 0 km/h
2280 10-08-2021 05:15:00 12.6 C 10.62 g/m*3 12.6 C 0 km/h
2281 10-08-2021 05:20:00 12.6 C 10.62 g/m*3 12.6 C 0 km/h
2282 10-08-2021 05:25:00 12.6 C 10.62 g/m*3 12.6 C 0 km/h
2283 10-08-2021 05:30:00 12.7 C 10.69 g/m*3 12.7 C 0 km/h
2284 10-08-2021 05:35:00 12.7 C 10.69 g/m*3 12.7 C 0 km/h
2285 10-08-2021 05:40:00 12.7 C 10.69 g/m*3 12.7 C 0 km/h
2286 10-08-2021 05:45:00 12.7 C 10.69 g/m*3 12.7 C 0 km/h
2287 10-08-2021 05:50:00 12.7 C 10.69 g/m*3 12.7 C 0 km/h
2288 10-08-2021 05:55:00 12.7 C 10.69 g/m*3 12.7 C 0 km/h
2289 10-08-2021 06:00:00 12.7 C 10.69 g/m*3 12.7 C 0 km/h
2290 10-08-2021 06:05:00 12.8 C 10.75 g/m*3 12.8 C 0 km/h
2291 10-08-2021 06:10:00 12.8 C 10.75 g/m*3 12.8 C 0 km/h
2292 10-08-2021 06:15:00 12.8 C 10.75 g/m*3 12.8 C 0 km/h
2293 10-08-2021 06:20:00 12.8 C 10.75 g/m*3 12.8 C 0 km/h
2294 10-08-2021 06:25:00 12.8 C 10.75 g/m*3 12.8 C 0 km/h
2295 10-08-2021 06:30:00 12.8 C 10.75 g/m*3 12.8 C 0 km/h
2296 10-08-2021 06:35:00 12.9 C 10.82 g/m*3 12.9 C 0 km/h
2297 10-08-2021 06:40:00 12.9 C 10.82 g/m*3 12.9 C 0 km/h
2298 10-08-2021 06:45:00 12.9 C 10.82 g/m*3 12.9 C 0 km/h
2299 10-08-2021 06:50:00 12.9 C 10.82 g/m*3 12.9 C 0 km/h
2300 10-08-2021 06:55:00 12.9 C 10.82 g/m*3 12.9 C 0 km/h
Sensor: Nr:Datum:Temp:Abs-Feuchte:Windchill:Wind:
Aussen-T/F 2301 10-08-2021 07:00:00 13 C 10.89 g/m*3 13 C 0 km/h
2302 10-08-2021 07:05:00 13.1 C 10.95 g/m*3 13.1 C 4.8 km/h
2303 10-08-2021 07:10:00 13.1 C 10.95 g/m*3 13.1 C 4.8 km/h
2304 10-08-2021 07:15:00 13.2 C 11.02 g/m*3 13.2 C 0 km/h
2305 10-08-2021 07:20:00 13.2 C 11.02 g/m*3 13.2 C 0 km/h
2306 10-08-2021 07:25:00 13.2 C 11.02 g/m*3 13.2 C 0 km/h
2307 10-08-2021 07:30:00 13.3 C 11.09 g/m*3 13.3 C 0 km/h
2308 10-08-2021 07:35:00 13.4 C 11.16 g/m*3 13.4 C 0 km/h
2309 10-08-2021 07:40:00 13.4 C 11.16 g/m*3 13.4 C 0 km/h
2310 10-08-2021 07:45:00 13.5 C 11.23 g/m*3 13.5 C 0 km/h
2311 10-08-2021 07:50:00 13.6 C 11.3 g/m*3 13.6 C 0 km/h
2312 10-08-2021 07:55:00 13.7 C 11.37 g/m*3 13.7 C 0 km/h
2313 10-08-2021 08:00:00 13.7 C 11.37 g/m*3 13.7 C 0 km/h
2314 10-08-2021 08:05:00 13.8 C 11.44 g/m*3 13.8 C 0 km/h
2315 10-08-2021 08:10:00 13.8 C 11.44 g/m*3 13.8 C 0 km/h
2316 10-08-2021 08:15:00 13.9 C 11.51 g/m*3 13.9 C 0 km/h
2317 10-08-2021 08:20:00 14 C 11.58 g/m*3 14 C 0 km/h
2318 10-08-2021 08:25:00 14.1 C 11.65 g/m*3 14.1 C 0 km/h
2319 10-08-2021 08:30:00 14.1 C 11.65 g/m*3 14.1 C 0 km/h
2320 10-08-2021 08:35:00 14.3 C 11.79 g/m*3 14.3 C 0 km/h
2321 10-08-2021 08:40:00 14.4 C 11.87 g/m*3 14.4 C 1.6 km/h
2322 10-08-2021 08:45:00 14.5 C 11.94 g/m*3 14.5 C 0 km/h
2323 10-08-2021 08:50:00 14.6 C 12.01 g/m*3 14.6 C 0 km/h
2324 10-08-2021 08:55:00 14.6 C 12.01 g/m*3 14.6 C 0 km/h
2325 10-08-2021 09:00:00 14.7 C 12.09 g/m*3 14.7 C 0 km/h
Sensor: Nr:Datum:Temp:Abs-Feuchte:Windchill:Wind:
Aussen-T/F 2326 10-08-2021 09:05:00 14.8 C 12.16 g/m*3 14.8 C 1.6 km/h
2327 10-08-2021 09:10:00 14.8 C 12.16 g/m*3 14.8 C 0 km/h
2328 10-08-2021 09:15:00 14.9 C 12.24 g/m*3 14.9 C 0 km/h
2329 10-08-2021 09:20:00 15.1 C 12.39 g/m*3 15.1 C 0 km/h
2330 10-08-2021 09:25:00 15.3 C 12.54 g/m*3 15.3 C 0 km/h
2331 10-08-2021 09:30:00 15.3 C 12.54 g/m*3 15.3 C 4.8 km/h
2332 10-08-2021 09:35:00 15.3 C 12.54 g/m*3 15.3 C 3.2 km/h
2333 10-08-2021 09:40:00 15.3 C 12.54 g/m*3 15.3 C 0 km/h
2334 10-08-2021 09:45:00 15.4 C 12.61 g/m*3 15.4 C 0 km/h
2335 10-08-2021 09:50:00 15.6 C 12.77 g/m*3 15.6 C 0 km/h
2336 10-08-2021 09:55:00 15.8 C 12.92 g/m*3 15.8 C 1.6 km/h
2337 10-08-2021 10:00:00 16 C 13.08 g/m*3 16 C 1.6 km/h
2338 10-08-2021 10:05:00 16.2 C 13.24 g/m*3 16.2 C 3.2 km/h
2339 10-08-2021 10:10:00 16.4 C 13.26 g/m*3 16.4 C 8.1 km/h
2340 10-08-2021 10:15:00 16.6 C 13.28 g/m*3 16.6 C 8.1 km/h
2341 10-08-2021 10:20:00 16.9 C 13.23 g/m*3 16.9 C 9.7 km/h
2342 10-08-2021 10:25:00 17.3 C 13.41 g/m*3 17.3 C 4.8 km/h
2343 10-08-2021 10:30:00 17.6 C 13.65 g/m*3 17.6 C 3.2 km/h
2344 10-08-2021 10:35:00 17.7 C 13.43 g/m*3 17.7 C 9.7 km/h
2345 10-08-2021 10:40:00 17.9 C 13.44 g/m*3 17.9 C 6.4 km/h
2346 10-08-2021 10:45:00 18.1 C 13.44 g/m*3 18.1 C 8.1 km/h
2347 10-08-2021 10:50:00 18.3 C 13.29 g/m*3 18.3 C 8.1 km/h
2348 10-08-2021 10:55:00 18.6 C 13.37 g/m*3 18.6 C 8.1 km/h
2349 10-08-2021 11:00:00 18.9 C 13.28 g/m*3 18.9 C 11.3 km/h
2350 10-08-2021 11:05:00 19.1 C 13.44 g/m*3 19.1 C 11.3 km/h
Sensor: Nr:Datum:Temp:Abs-Feuchte:Windchill:Wind:
Aussen-T/F 2351 10-08-2021 11:10:00 19.3 C 13.44 g/m*3 19.3 C 12.9 km/h
2352 10-08-2021 11:15:00 19.6 C 13.34 g/m*3 19.6 C 12.9 km/h
2353 10-08-2021 11:20:00 19.8 C 13.84 g/m*3 19.8 C 4.8 km/h
2354 10-08-2021 11:25:00 19.9 C 13.57 g/m*3 19.9 C 8.1 km/h
2355 10-08-2021 11:30:00 20.1 C 14.08 g/m*3 20.1 C 3.2 km/h
2356 10-08-2021 11:35:00 20.3 C 13.89 g/m*3 20.3 C 6.4 km/h
2357 10-08-2021 11:40:00 20.5 C 13.7 g/m*3 20.5 C 11.3 km/h
2358 10-08-2021 11:45:00 20.6 C 14.14 g/m*3 20.6 C 11.3 km/h
2359 10-08-2021 11:50:00 20.6 C 13.78 g/m*3 20.6 C 12.9 km/h
2360 10-08-2021 11:55:00 20.4 C 13.62 g/m*3 20.4 C 8.1 km/h
2361 10-08-2021 12:00:00 20.3 C 14.07 g/m*3 20.3 C 4.8 km/h
2362 10-08-2021 12:05:00 20.3 C 14.07 g/m*3 20.3 C 1.6 km/h
2363 10-08-2021 12:10:00 20.3 C 14.42 g/m*3 20.3 C 3.2 km/h
2364 10-08-2021 12:15:00 20.5 C 14.77 g/m*3 20.5 C 0 km/h
2365 10-08-2021 12:20:00 20.5 C 14.95 g/m*3 20.5 C 0 km/h
2366 10-08-2021 12:25:00 20.6 C 15.03 g/m*3 20.6 C 0 km/h
2367 10-08-2021 12:30:00 20.5 C 14.59 g/m*3 20.5 C 1.6 km/h
2368 10-08-2021 12:35:00 20.5 C 14.59 g/m*3 20.5 C 3.2 km/h
2369 10-08-2021 12:40:00 20.7 C 14.4 g/m*3 20.7 C 3.2 km/h
2370 10-08-2021 12:45:00 20.9 C 14.02 g/m*3 20.9 C 6.4 km/h
2371 10-08-2021 12:50:00 21.2 C 14.08 g/m*3 21.2 C 16.1 km/h
2372 10-08-2021 12:55:00 21.5 C 13.95 g/m*3 21.5 C 19.3 km/h
2373 10-08-2021 13:00:00 21.6 C 14.03 g/m*3 21.6 C 9.7 km/h
2374 10-08-2021 13:05:00 21.5 C 13.77 g/m*3 21.5 C 9.7 km/h
2375 10-08-2021 13:10:00 21.4 C 13.87 g/m*3 21.4 C 8.1 km/h
Sensor: Nr:Datum:Temp:Abs-Feuchte:Windchill:Wind:
Aussen-T/F 2376 10-08-2021 13:15:00 21.5 C 13.58 g/m*3 21.5 C 14.5 km/h
2377 10-08-2021 13:20:00 21.6 C 13.66 g/m*3 21.6 C 12.9 km/h
2378 10-08-2021 13:25:00 21.8 C 14.01 g/m*3 21.8 C 8.1 km/h
2379 10-08-2021 13:30:00 21.9 C 13.7 g/m*3 21.9 C 17.7 km/h
2380 10-08-2021 13:35:00 21.8 C 13.62 g/m*3 21.8 C 14.5 km/h
2381 10-08-2021 13:40:00 21.7 C 13.73 g/m*3 21.7 C 14.5 km/h
2382 10-08-2021 13:45:00 21.7 C 13.73 g/m*3 21.7 C 9.7 km/h
2383 10-08-2021 13:55:00 21.9 C 13.7 g/m*3 21.9 C 16.1 km/h
2384 10-08-2021 14:00:00 22.1 C 14.05 g/m*3 22.1 C 11.3 km/h
2385 10-08-2021 14:05:00 22.3 C 13.82 g/m*3 22.3 C 9.7 km/h
2386 10-08-2021 14:10:00 22.5 C 13.78 g/m*3 22.5 C 11.3 km/h
2387 10-08-2021 14:15:00 22.6 C 13.46 g/m*3 22.6 C 8.1 km/h
2388 10-08-2021 14:20:00 22.8 C 13.82 g/m*3 22.8 C 16.1 km/h
2389 10-08-2021 14:25:00 22.8 C 13.41 g/m*3 22.8 C 16.1 km/h
2390 10-08-2021 14:30:00 22.9 C 13.69 g/m*3 22.9 C 12.9 km/h
2391 10-08-2021 14:35:00 23.2 C 13.72 g/m*3 23.2 C 14.5 km/h
2392 10-08-2021 14:40:00 23.3 C 14.43 g/m*3 23.3 C 11.3 km/h
2393 10-08-2021 14:45:00 23.2 C 13.51 g/m*3 23.2 C 12.9 km/h
2394 10-08-2021 14:50:00 23.2 C 13.51 g/m*3 23.2 C 12.9 km/h
2395 10-08-2021 14:55:00 23.2 C 13.93 g/m*3 23.2 C 11.3 km/h
2396 10-08-2021 15:00:00 23.3 C 13.8 g/m*3 23.3 C 12.9 km/h
2397 10-08-2021 15:05:00 23.6 C 14.04 g/m*3 23.6 C 9.7 km/h
2398 10-08-2021 15:10:00 23.8 C 14.2 g/m*3 23.8 C 11.3 km/h
2399 10-08-2021 15:15:00 24.1 C 13.57 g/m*3 24.1 C 14.5 km/h
2400 10-08-2021 15:20:00 24 C 13.71 g/m*3 24 C 9.7 km/h
Sensor: Nr:Datum:Temp:Abs-Feuchte:Windchill:Wind:
Aussen-T/F 2401 10-08-2021 15:25:00 23.9 C 14.28 g/m*3 23.9 C 8.1 km/h
2402 10-08-2021 15:30:00 23.7 C 13.9 g/m*3 23.7 C 11.3 km/h
2403 10-08-2021 15:35:00 23.5 C 14.17 g/m*3 23.5 C 6.4 km/h
2404 10-08-2021 15:40:00 23.3 C 13.59 g/m*3 23.3 C 11.3 km/h
2405 10-08-2021 15:45:00 23.3 C 14.01 g/m*3 23.3 C 11.3 km/h
2406 10-08-2021 15:50:00 23.3 C 13.59 g/m*3 23.3 C 9.7 km/h
2407 10-08-2021 15:55:00 23.2 C 13.51 g/m*3 23.2 C 9.7 km/h
2408 10-08-2021 16:00:00 23 C 13.77 g/m*3 23 C 14.5 km/h
2409 10-08-2021 16:05:00 22.9 C 13.9 g/m*3 22.9 C 11.3 km/h
2410 10-08-2021 16:10:00 22.7 C 13.94 g/m*3 22.7 C 8.1 km/h
2411 10-08-2021 16:15:00 22.6 C 14.26 g/m*3 22.6 C 6.4 km/h
2412 10-08-2021 16:20:00 22.4 C 13.9 g/m*3 22.4 C 9.7 km/h
2413 10-08-2021 16:25:00 22.4 C 13.9 g/m*3 22.4 C 9.7 km/h
2414 10-08-2021 16:30:00 22.5 C 13.98 g/m*3 22.5 C 11.3 km/h
2415 10-08-2021 16:35:00 22.6 C 13.86 g/m*3 22.6 C 16.1 km/h
2416 10-08-2021 16:40:00 22.6 C 13.86 g/m*3 22.6 C 12.9 km/h
2417 10-08-2021 16:45:00 22.5 C 13.98 g/m*3 22.5 C 11.3 km/h
2418 10-08-2021 16:50:00 22.4 C 13.9 g/m*3 22.4 C 12.9 km/h
2419 10-08-2021 16:55:00 22.3 C 14.22 g/m*3 22.3 C 4.8 km/h
2420 10-08-2021 17:00:00 22.2 C 13.55 g/m*3 22.2 C 11.3 km/h
2421 10-08-2021 17:05:00 22.2 C 14.33 g/m*3 22.2 C 9.7 km/h
2422 10-08-2021 17:10:00 22.2 C 13.94 g/m*3 22.2 C 12.9 km/h
2423 10-08-2021 17:15:00 22.1 C 13.86 g/m*3 22.1 C 14.5 km/h
2424 10-08-2021 17:20:00 22 C 13.78 g/m*3 22 C 8.1 km/h
2425 10-08-2021 17:25:00 22 C 14.17 g/m*3 22 C 11.3 km/h
Sensor: Nr:Datum:Temp:Abs-Feuchte:Windchill:Wind:
Aussen-T/F 2426 10-08-2021 17:30:00 21.8 C 13.62 g/m*3 21.8 C 11.3 km/h
2427 10-08-2021 17:35:00 21.8 C 14.39 g/m*3 21.8 C 4.8 km/h
2428 10-08-2021 17:40:00 21.8 C 14.39 g/m*3 21.8 C 3.2 km/h
2429 10-08-2021 17:45:00 21.7 C 13.93 g/m*3 21.7 C 8.1 km/h
2430 10-08-2021 17:50:00 21.6 C 14.03 g/m*3 21.6 C 8.1 km/h
2431 10-08-2021 17:55:00 21.5 C 13.95 g/m*3 21.5 C 9.7 km/h
2432 10-08-2021 18:00:00 21.7 C 14.12 g/m*3 21.7 C 12.9 km/h
2433 10-08-2021 18:05:00 22.2 C 14.14 g/m*3 22.2 C 9.7 km/h
2434 10-08-2021 18:10:00 22.2 C 14.14 g/m*3 22.2 C 16.1 km/h
2435 10-08-2021 18:15:00 21.9 C 13.89 g/m*3 21.9 C 20.9 km/h
2436 10-08-2021 18:20:00 21.7 C 14.31 g/m*3 21.7 C 20.9 km/h
2437 10-08-2021 18:25:00 21.8 C 14.58 g/m*3 21.8 C 11.3 km/h
2438 10-08-2021 18:30:00 22.6 C 14.87 g/m*3 22.6 C 14.5 km/h
2439 10-08-2021 18:35:00 23.2 C 14.55 g/m*3 23.2 C 19.3 km/h
2440 10-08-2021 18:40:00 23.3 C 14.43 g/m*3 23.3 C 16.1 km/h
2441 10-08-2021 18:45:00 23.1 C 14.06 g/m*3 23.1 C 17.7 km/h
2442 10-08-2021 18:50:00 22.8 C 14.02 g/m*3 22.8 C 17.7 km/h
2443 10-08-2021 18:55:00 22.7 C 13.94 g/m*3 22.7 C 16.1 km/h
2444 10-08-2021 19:00:00 22.7 C 14.34 g/m*3 22.7 C 16.1 km/h
2445 10-08-2021 19:05:00 22.8 C 14.22 g/m*3 22.8 C 12.9 km/h
2446 10-08-2021 19:10:00 22.8 C 14.43 g/m*3 22.8 C 12.9 km/h
2447 10-08-2021 19:15:00 22.9 C 14.92 g/m*3 22.9 C 11.3 km/h
2448 10-08-2021 19:20:00 23 C 14.59 g/m*3 23 C 12.9 km/h
2449 10-08-2021 19:25:00 23 C 14.39 g/m*3 23 C 11.3 km/h
2450 10-08-2021 19:30:00 23 C 14.59 g/m*3 23 C 8.1 km/h
Sensor: Nr:Datum:Temp:Abs-Feuchte:Windchill:Wind:
Aussen-T/F 2451 10-08-2021 19:35:00 22.8 C 14.22 g/m*3 22.8 C 11.3 km/h
2452 10-08-2021 19:40:00 22.6 C 14.06 g/m*3 22.6 C 9.7 km/h
2453 10-08-2021 19:45:00 22.2 C 13.74 g/m*3 22.2 C 11.3 km/h
2454 10-08-2021 19:50:00 22.1 C 13.86 g/m*3 22.1 C 8.1 km/h
2455 10-08-2021 19:55:00 21.9 C 14.09 g/m*3 21.9 C 8.1 km/h
2456 10-08-2021 20:00:00 21.9 C 13.7 g/m*3 21.9 C 11.3 km/h
2457 10-08-2021 20:05:00 21.9 C 13.7 g/m*3 21.9 C 8.1 km/h
2458 10-08-2021 20:10:00 21.9 C 13.7 g/m*3 21.9 C 14.5 km/h
2459 10-08-2021 20:15:00 21.8 C 13.81 g/m*3 21.8 C 6.4 km/h
2460 10-08-2021 20:20:00 21.8 C 13.81 g/m*3 21.8 C 6.4 km/h
2461 10-08-2021 20:25:00 21.7 C 13.73 g/m*3 21.7 C 8.1 km/h
2462 10-08-2021 20:30:00 21.6 C 14.03 g/m*3 21.6 C 8.1 km/h
2463 10-08-2021 20:35:00 21.4 C 14.06 g/m*3 21.4 C 1.6 km/h
2464 10-08-2021 20:40:00 21.3 C 14.17 g/m*3 21.3 C 0 km/h
2465 10-08-2021 20:45:00 21.2 C 14.27 g/m*3 21.2 C 0 km/h
2466 10-08-2021 20:50:00 20.9 C 14.02 g/m*3 20.9 C 0 km/h
2467 10-08-2021 20:55:00 20.8 C 14.12 g/m*3 20.8 C 0 km/h
2468 10-08-2021 21:00:00 20.6 C 14.14 g/m*3 20.6 C 0 km/h
2469 10-08-2021 21:05:00 20.3 C 13.89 g/m*3 20.3 C 4.8 km/h
2470 10-08-2021 21:10:00 19.9 C 13.74 g/m*3 19.9 C 4.8 km/h
2471 10-08-2021 21:15:00 19.6 C 13.67 g/m*3 19.6 C 6.4 km/h
2472 10-08-2021 21:20:00 19.2 C 13.52 g/m*3 19.2 C 4.8 km/h
2473 10-08-2021 21:25:00 18.9 C 13.45 g/m*3 18.9 C 3.2 km/h
2474 10-08-2021 21:30:00 18.7 C 13.45 g/m*3 18.7 C 1.6 km/h
2475 10-08-2021 21:35:00 18.6 C 13.53 g/m*3 18.6 C 0 km/h
Sensor: Nr:Datum:Temp:Abs-Feuchte:Windchill:Wind:
Aussen-T/F 2476 10-08-2021 21:40:00 18.4 C 13.37 g/m*3 18.4 C 0 km/h
2477 10-08-2021 21:45:00 18.2 C 13.37 g/m*3 18.2 C 0 km/h
2478 10-08-2021 21:50:00 18.1 C 13.29 g/m*3 18.1 C 0 km/h
2479 10-08-2021 21:55:00 17.9 C 13.28 g/m*3 17.9 C 0 km/h
2480 10-08-2021 22:00:00 17.9 C 13.44 g/m*3 17.9 C 1.6 km/h
2481 10-08-2021 22:05:00 17.9 C 13.44 g/m*3 17.9 C 1.6 km/h
2482 10-08-2021 22:10:00 17.9 C 13.44 g/m*3 17.9 C 1.6 km/h
2483 10-08-2021 22:15:00 17.9 C 13.59 g/m*3 17.9 C 4.8 km/h
2484 10-08-2021 22:20:00 17.9 C 13.59 g/m*3 17.9 C 3.2 km/h
2485 10-08-2021 22:25:00 17.9 C 13.59 g/m*3 17.9 C 1.6 km/h
2486 10-08-2021 22:30:00 17.9 C 13.59 g/m*3 17.9 C 4.8 km/h
2487 10-08-2021 22:35:00 17.9 C 13.59 g/m*3 17.9 C 1.6 km/h
2488 10-08-2021 22:40:00 17.9 C 13.59 g/m*3 17.9 C 1.6 km/h
2489 10-08-2021 22:45:00 17.9 C 13.59 g/m*3 17.9 C 0 km/h
2490 10-08-2021 22:50:00 17.9 C 13.59 g/m*3 17.9 C 0 km/h
2491 10-08-2021 22:55:00 17.9 C 13.59 g/m*3 17.9 C 0 km/h
2492 10-08-2021 23:00:00 18 C 13.67 g/m*3 18 C 0 km/h
2493 10-08-2021 23:05:00 17.9 C 13.59 g/m*3 17.9 C 0 km/h
2494 10-08-2021 23:10:00 18 C 13.67 g/m*3 18 C 0 km/h
2495 10-08-2021 23:15:00 17.9 C 13.59 g/m*3 17.9 C 0 km/h
2496 10-08-2021 23:20:00 17.9 C 13.59 g/m*3 17.9 C 0 km/h
2497 10-08-2021 23:25:00 17.9 C 13.59 g/m*3 17.9 C 0 km/h
2498 10-08-2021 23:30:00 17.9 C 13.59 g/m*3 17.9 C 0 km/h
2499 10-08-2021 23:35:00 17.8 C 13.51 g/m*3 17.8 C 0 km/h
2500 10-08-2021 23:40:00 17.8 C 13.51 g/m*3 17.8 C 0 km/h
Sensor: Nr:Datum:Temp:Abs-Feuchte:Windchill:Wind:
Aussen-T/F 2501 10-08-2021 23:45:00 17.7 C 13.43 g/m*3 17.7 C 0 km/h
2502 10-08-2021 23:50:00 17.6 C 13.35 g/m*3 17.6 C 0 km/h
2503 10-08-2021 23:55:00 17.5 C 13.27 g/m*3 17.5 C 0 km/h
2504 11-08-2021 00:00:00 17.4 C 13.19 g/m*3 17.4 C 1.6 km/h
2505 11-08-2021 00:05:00 17.4 C 13.19 g/m*3 17.4 C 1.6 km/h
2506 11-08-2021 00:10:00 17.3 C 13.11 g/m*3 17.3 C 1.6 km/h
2507 11-08-2021 00:15:00 17.2 C 13.03 g/m*3 17.2 C 3.2 km/h
2508 11-08-2021 00:20:00 17.1 C 13.1 g/m*3 17.1 C 3.2 km/h
2509 11-08-2021 00:25:00 17.1 C 13.1 g/m*3 17.1 C 1.6 km/h
2510 11-08-2021 00:30:00 17 C 13.02 g/m*3 17 C 0 km/h
2511 11-08-2021 00:35:00 16.9 C 12.94 g/m*3 16.9 C 1.6 km/h
2512 11-08-2021 00:40:00 16.8 C 12.87 g/m*3 16.8 C 1.6 km/h
2513 11-08-2021 00:45:00 16.7 C 12.79 g/m*3 16.7 C 1.6 km/h
2514 11-08-2021 00:50:00 16.6 C 12.71 g/m*3 16.6 C 3.2 km/h
2515 11-08-2021 00:55:00 16.5 C 12.78 g/m*3 16.5 C 3.2 km/h
2516 11-08-2021 01:00:00 16.4 C 12.7 g/m*3 16.4 C 0 km/h
2517 11-08-2021 01:05:00 16.3 C 12.62 g/m*3 16.3 C 0 km/h
2518 11-08-2021 01:10:00 16.2 C 12.55 g/m*3 16.2 C 0 km/h
2519 11-08-2021 01:15:00 16.1 C 12.47 g/m*3 16.1 C 1.6 km/h
2520 11-08-2021 01:20:00 15.9 C 12.32 g/m*3 15.9 C 0 km/h
2521 11-08-2021 01:25:00 15.8 C 12.25 g/m*3 15.8 C 0 km/h
2522 11-08-2021 01:30:00 15.7 C 12.31 g/m*3 15.7 C 0 km/h
2523 11-08-2021 01:35:00 15.7 C 12.31 g/m*3 15.7 C 1.6 km/h
2524 11-08-2021 01:40:00 15.6 C 12.23 g/m*3 15.6 C 0 km/h
2525 11-08-2021 01:45:00 15.5 C 12.16 g/m*3 15.5 C 0 km/h
Sensor: Nr:Datum:Temp:Abs-Feuchte:Windchill:Wind:
Aussen-T/F 2526 11-08-2021 01:50:00 15.4 C 12.09 g/m*3 15.4 C 0 km/h
2527 11-08-2021 01:55:00 15.3 C 12.01 g/m*3 15.3 C 0 km/h
2528 11-08-2021 02:00:00 15.3 C 12.14 g/m*3 15.3 C 0 km/h
2529 11-08-2021 02:05:00 15.2 C 12.07 g/m*3 15.2 C 1.6 km/h
2530 11-08-2021 02:10:00 15.2 C 12.07 g/m*3 15.2 C 0 km/h
2531 11-08-2021 02:15:00 15.2 C 12.07 g/m*3 15.2 C 1.6 km/h
2532 11-08-2021 02:20:00 15.1 C 12 g/m*3 15.1 C 3.2 km/h
2533 11-08-2021 02:25:00 15.1 C 12 g/m*3 15.1 C 0 km/h
2534 11-08-2021 02:30:00 15.1 C 12.13 g/m*3 15.1 C 0 km/h
2535 11-08-2021 02:35:00 15.1 C 12.13 g/m*3 15.1 C 1.6 km/h
2536 11-08-2021 02:40:00 15 C 11.93 g/m*3 15 C 0 km/h
2537 11-08-2021 02:45:00 14.9 C 11.85 g/m*3 14.9 C 0 km/h
2538 11-08-2021 02:50:00 14.8 C 11.78 g/m*3 14.8 C 0 km/h
2539 11-08-2021 02:55:00 14.7 C 11.71 g/m*3 14.7 C 0 km/h
2540 11-08-2021 03:00:00 14.7 C 11.83 g/m*3 14.7 C 0 km/h
2541 11-08-2021 03:05:00 14.6 C 11.76 g/m*3 14.6 C 0 km/h
2542 11-08-2021 03:10:00 14.6 C 11.76 g/m*3 14.6 C 0 km/h
2543 11-08-2021 03:15:00 14.4 C 11.62 g/m*3 14.4 C 0 km/h
2544 11-08-2021 03:20:00 14.4 C 11.62 g/m*3 14.4 C 0 km/h
2545 11-08-2021 03:25:00 14.3 C 11.55 g/m*3 14.3 C 0 km/h
2546 11-08-2021 03:30:00 14.2 C 11.48 g/m*3 14.2 C 0 km/h
2547 11-08-2021 03:35:00 14.2 C 11.48 g/m*3 14.2 C 0 km/h
2548 11-08-2021 03:40:00 14.1 C 11.41 g/m*3 14.1 C 0 km/h
2549 11-08-2021 03:45:00 14 C 11.34 g/m*3 14 C 0 km/h
2550 11-08-2021 03:50:00 14 C 11.34 g/m*3 14 C 0 km/h
Sensor: Nr:Datum:Temp:Abs-Feuchte:Windchill:Wind:
Aussen-T/F 2551 11-08-2021 03:55:00 13.9 C 11.27 g/m*3 13.9 C 0 km/h
2552 11-08-2021 04:00:00 13.8 C 11.2 g/m*3 13.8 C 0 km/h
2553 11-08-2021 04:05:00 13.8 C 11.2 g/m*3 13.8 C 0 km/h
2554 11-08-2021 04:10:00 13.7 C 11.13 g/m*3 13.7 C 0 km/h
2555 11-08-2021 04:15:00 13.6 C 11.06 g/m*3 13.6 C 0 km/h
2556 11-08-2021 04:20:00 13.5 C 10.99 g/m*3 13.5 C 0 km/h
2557 11-08-2021 04:25:00 13.4 C 10.93 g/m*3 13.4 C 0 km/h
2558 11-08-2021 04:30:00 13.3 C 10.86 g/m*3 13.3 C 0 km/h
2559 11-08-2021 04:35:00 13.3 C 10.86 g/m*3 13.3 C 0 km/h
2560 11-08-2021 04:40:00 13.2 C 10.79 g/m*3 13.2 C 0 km/h
2561 11-08-2021 04:45:00 13.2 C 10.91 g/m*3 13.2 C 0 km/h
2562 11-08-2021 04:50:00 13.2 C 10.91 g/m*3 13.2 C 0 km/h
2563 11-08-2021 04:55:00 13.2 C 10.91 g/m*3 13.2 C 0 km/h
2564 11-08-2021 05:00:00 13.1 C 10.84 g/m*3 13.1 C 0 km/h
2565 11-08-2021 05:05:00 13.1 C 10.84 g/m*3 13.1 C 1.6 km/h
2566 11-08-2021 05:10:00 13.1 C 10.84 g/m*3 13.1 C 0 km/h
2567 11-08-2021 05:15:00 13.1 C 10.84 g/m*3 13.1 C 0 km/h
2568 11-08-2021 05:20:00 13.2 C 10.91 g/m*3 13.2 C 1.6 km/h
2569 11-08-2021 05:25:00 13.3 C 11.09 g/m*3 13.3 C 4.8 km/h
2570 11-08-2021 05:30:00 13.5 C 11.23 g/m*3 13.5 C 3.2 km/h
2571 11-08-2021 05:35:00 13.7 C 11.37 g/m*3 13.7 C 4.8 km/h
2572 11-08-2021 05:40:00 13.7 C 11.37 g/m*3 13.7 C 0 km/h
2573 11-08-2021 05:45:00 13.8 C 11.44 g/m*3 13.8 C 0 km/h
2574 11-08-2021 05:50:00 13.8 C 11.44 g/m*3 13.8 C 0 km/h
2575 11-08-2021 05:55:00 13.8 C 11.44 g/m*3 13.8 C 0 km/h
Sensor: Nr:Datum:Temp:Abs-Feuchte:Windchill:Wind:
Aussen-T/F 2576 11-08-2021 06:00:00 13.8 C 11.44 g/m*3 13.8 C 0 km/h
2577 11-08-2021 06:05:00 13.9 C 11.51 g/m*3 13.9 C 0 km/h
2578 11-08-2021 06:10:00 13.9 C 11.51 g/m*3 13.9 C 0 km/h
2579 11-08-2021 06:15:00 13.9 C 11.51 g/m*3 13.9 C 0 km/h
2580 11-08-2021 06:20:00 13.9 C 11.51 g/m*3 13.9 C 0 km/h
2581 11-08-2021 06:25:00 13.9 C 11.51 g/m*3 13.9 C 0 km/h
2582 11-08-2021 06:30:00 13.9 C 11.51 g/m*3 13.9 C 1.6 km/h
2583 11-08-2021 06:35:00 13.9 C 11.51 g/m*3 13.9 C 1.6 km/h
2584 11-08-2021 06:40:00 13.8 C 11.44 g/m*3 13.8 C 3.2 km/h
2585 11-08-2021 06:45:00 13.8 C 11.44 g/m*3 13.8 C 3.2 km/h
2586 11-08-2021 06:50:00 13.8 C 11.44 g/m*3 13.8 C 0 km/h
2587 11-08-2021 06:55:00 13.8 C 11.44 g/m*3 13.8 C 1.6 km/h
2588 11-08-2021 07:00:00 13.8 C 11.44 g/m*3 13.8 C 0 km/h
2589 11-08-2021 07:05:00 13.8 C 11.44 g/m*3 13.8 C 0 km/h
2590 11-08-2021 07:10:00 13.8 C 11.44 g/m*3 13.8 C 0 km/h
2591 11-08-2021 07:15:00 13.8 C 11.44 g/m*3 13.8 C 0 km/h
2592 11-08-2021 07:20:00 13.8 C 11.44 g/m*3 13.8 C 0 km/h
2593 11-08-2021 07:25:00 13.8 C 11.44 g/m*3 13.8 C 0 km/h
2594 11-08-2021 07:30:00 13.8 C 11.44 g/m*3 13.8 C 0 km/h
2595 11-08-2021 07:35:00 13.9 C 11.51 g/m*3 13.9 C 0 km/h
2596 11-08-2021 07:40:00 14 C 11.58 g/m*3 14 C 0 km/h
2597 11-08-2021 07:45:00 13.9 C 11.51 g/m*3 13.9 C 0 km/h
2598 11-08-2021 07:50:00 13.9 C 11.51 g/m*3 13.9 C 0 km/h
2599 11-08-2021 07:55:00 13.9 C 11.51 g/m*3 13.9 C 0 km/h
2600 11-08-2021 08:00:00 14 C 11.58 g/m*3 14 C 0 km/h
Sensor: Nr:Datum:Temp:Abs-Feuchte:Windchill:Wind:
Aussen-T/F 2601 11-08-2021 08:05:00 14 C 11.58 g/m*3 14 C 0 km/h
2602 11-08-2021 08:10:00 14.1 C 11.65 g/m*3 14.1 C 1.6 km/h
2603 11-08-2021 08:15:00 14.1 C 11.77 g/m*3 14.1 C 0 km/h
2604 11-08-2021 08:20:00 14.1 C 11.77 g/m*3 14.1 C 1.6 km/h
2605 11-08-2021 08:25:00 14.2 C 11.84 g/m*3 14.2 C 1.6 km/h
2606 11-08-2021 08:30:00 14.3 C 11.92 g/m*3 14.3 C 3.2 km/h
2607 11-08-2021 08:35:00 14.3 C 11.92 g/m*3 14.3 C 3.2 km/h
2608 11-08-2021 08:40:00 14.3 C 11.92 g/m*3 14.3 C 0 km/h
2609 11-08-2021 08:45:00 14.3 C 11.92 g/m*3 14.3 C 1.6 km/h
2610 11-08-2021 08:50:00 14.4 C 11.99 g/m*3 14.4 C 3.2 km/h
2611 11-08-2021 08:55:00 14.4 C 11.99 g/m*3 14.4 C 1.6 km/h
2612 11-08-2021 09:00:00 14.4 C 11.99 g/m*3 14.4 C 0 km/h
2613 11-08-2021 09:05:00 14.5 C 12.06 g/m*3 14.5 C 0 km/h
2614 11-08-2021 09:10:00 14.5 C 12.06 g/m*3 14.5 C 0 km/h
2615 11-08-2021 09:15:00 14.6 C 12.14 g/m*3 14.6 C 0 km/h
2616 11-08-2021 09:20:00 14.7 C 12.21 g/m*3 14.7 C 0 km/h
2617 11-08-2021 09:25:00 14.8 C 12.29 g/m*3 14.8 C 0 km/h
2618 11-08-2021 09:30:00 14.8 C 12.29 g/m*3 14.8 C 0 km/h
2619 11-08-2021 09:35:00 14.8 C 12.29 g/m*3 14.8 C 0 km/h
2620 11-08-2021 09:40:00 14.9 C 12.36 g/m*3 14.9 C 0 km/h
2621 11-08-2021 09:45:00 15 C 12.44 g/m*3 15 C 0 km/h
2622 11-08-2021 09:55:00 15.2 C 12.59 g/m*3 15.2 C 0 km/h
2623 11-08-2021 10:00:00 15.4 C 12.74 g/m*3 15.4 C 0 km/h
2624 11-08-2021 10:05:00 15.5 C 12.82 g/m*3 15.5 C 0 km/h
2625 11-08-2021 10:10:00 15.7 C 12.98 g/m*3 15.7 C 0 km/h
Sensor: Nr:Datum:Temp:Abs-Feuchte:Windchill:Wind:
Aussen-T/F 2626 11-08-2021 10:15:00 15.8 C 13.06 g/m*3 15.8 C 0 km/h
2627 11-08-2021 10:20:00 16 C 13.22 g/m*3 16 C 0 km/h
2628 11-08-2021 10:25:00 16.2 C 13.38 g/m*3 16.2 C 0 km/h
2629 11-08-2021 10:30:00 16.4 C 13.54 g/m*3 16.4 C 0 km/h
2630 11-08-2021 10:35:00 16.6 C 13.7 g/m*3 16.6 C 0 km/h
2631 11-08-2021 10:40:00 16.8 C 13.87 g/m*3 16.8 C 0 km/h
2632 11-08-2021 10:45:00 16.9 C 13.95 g/m*3 16.9 C 0 km/h
2633 11-08-2021 10:50:00 17.2 C 14.2 g/m*3 17.2 C 0 km/h
2634 11-08-2021 10:55:00 17.4 C 14.38 g/m*3 17.4 C 0 km/h
2635 11-08-2021 11:00:00 17.6 C 14.55 g/m*3 17.6 C 0 km/h
2636 11-08-2021 11:05:00 17.8 C 14.57 g/m*3 17.8 C 0 km/h
2637 11-08-2021 11:10:00 18.1 C 14.83 g/m*3 18.1 C 0 km/h
2638 11-08-2021 11:15:00 18.3 C 14.85 g/m*3 18.3 C 0 km/h
2639 11-08-2021 11:20:00 18.4 C 14.78 g/m*3 18.4 C 0 km/h
2640 11-08-2021 11:25:00 18.7 C 14.89 g/m*3 18.7 C 0 km/h
2641 11-08-2021 11:30:00 18.8 C 14.82 g/m*3 18.8 C 0 km/h
2642 11-08-2021 11:35:00 19.1 C 14.92 g/m*3 19.1 C 0 km/h
2643 11-08-2021 11:40:00 19.3 C 14.93 g/m*3 19.3 C 0 km/h
2644 11-08-2021 11:45:00 19.5 C 14.94 g/m*3 19.5 C 0 km/h
2645 11-08-2021 11:50:00 19.8 C 15.37 g/m*3 19.8 C 0 km/h
2646 11-08-2021 11:55:00 19.9 C 15.29 g/m*3 19.9 C 0 km/h
2647 11-08-2021 12:00:00 20.1 C 15.3 g/m*3 20.1 C 0 km/h
2648 11-08-2021 12:05:00 20.2 C 15.04 g/m*3 20.2 C 0 km/h
2649 11-08-2021 12:10:00 20.5 C 14.95 g/m*3 20.5 C 0 km/h
2650 11-08-2021 12:15:00 20.7 C 14.76 g/m*3 20.7 C 0 km/h
Sensor: Nr:Datum:Temp:Abs-Feuchte:Windchill:Wind:
Aussen-T/F 2651 11-08-2021 12:20:00 20.9 C 14.93 g/m*3 20.9 C 0 km/h
2652 11-08-2021 12:25:00 21.2 C 14.64 g/m*3 21.2 C 0 km/h
2653 11-08-2021 12:30:00 21.5 C 14.33 g/m*3 21.5 C 0 km/h
2654 11-08-2021 12:35:00 21.9 C 14.09 g/m*3 21.9 C 0 km/h
2655 11-08-2021 12:40:00 22.3 C 14.41 g/m*3 22.3 C 1.6 km/h
2656 11-08-2021 12:45:00 22.5 C 14.38 g/m*3 22.5 C 0 km/h
2657 11-08-2021 12:50:00 22.7 C 15.76 g/m*3 22.7 C 0 km/h
2658 11-08-2021 12:55:00 22.7 C 15.15 g/m*3 22.7 C 0 km/h
2659 11-08-2021 13:00:00 22.8 C 16.26 g/m*3 22.8 C 0 km/h
2660 11-08-2021 13:05:00 22.8 C 16.26 g/m*3 22.8 C 0 km/h
2661 11-08-2021 13:10:00 22.7 C 16.37 g/m*3 22.7 C 0 km/h
2662 11-08-2021 13:15:00 22.6 C 15.47 g/m*3 22.6 C 0 km/h
2663 11-08-2021 13:20:00 22.7 C 14.75 g/m*3 22.7 C 9.7 km/h
2664 11-08-2021 13:25:00 22.7 C 14.34 g/m*3 22.7 C 8.1 km/h
2665 11-08-2021 13:30:00 22.8 C 14.22 g/m*3 22.8 C 0 km/h
2666 11-08-2021 13:35:00 22.8 C 14.22 g/m*3 22.8 C 0 km/h
2667 11-08-2021 13:40:00 22.9 C 14.51 g/m*3 22.9 C 0 km/h
2668 11-08-2021 13:45:00 23.1 C 15.3 g/m*3 23.1 C 0 km/h
2669 11-08-2021 13:50:00 23.1 C 14.88 g/m*3 23.1 C 0 km/h
2670 11-08-2021 14:00:00 23.2 C 15.59 g/m*3 23.2 C 1.6 km/h
2671 11-08-2021 14:05:00 23.1 C 15.09 g/m*3 23.1 C 0 km/h
2672 11-08-2021 14:10:00 23.2 C 14.14 g/m*3 23.2 C 0 km/h
2673 11-08-2021 14:15:00 23.3 C 14.43 g/m*3 23.3 C 0 km/h
2674 11-08-2021 14:20:00 23.3 C 14.43 g/m*3 23.3 C 0 km/h
2675 11-08-2021 14:25:00 23.4 C 14.09 g/m*3 23.4 C 0 km/h
Sensor: Nr:Datum:Temp:Abs-Feuchte:Windchill:Wind:
Aussen-T/F 2676 11-08-2021 14:30:00 23.6 C 15.53 g/m*3 23.6 C 1.6 km/h
2677 11-08-2021 14:35:00 23.7 C 16.04 g/m*3 23.7 C 0 km/h
2678 11-08-2021 14:40:00 23.6 C 15.74 g/m*3 23.6 C 0 km/h
2679 11-08-2021 14:45:00 23.6 C 16.38 g/m*3 23.6 C 0 km/h
2680 11-08-2021 14:50:00 23.6 C 16.59 g/m*3 23.6 C 0 km/h
2681 11-08-2021 14:55:00 23.7 C 17.11 g/m*3 23.7 C 0 km/h
2682 11-08-2021 15:00:00 23.7 C 16.9 g/m*3 23.7 C 0 km/h
2683 11-08-2021 15:05:00 23.7 C 17.11 g/m*3 23.7 C 0 km/h
2684 11-08-2021 15:10:00 23.7 C 17.33 g/m*3 23.7 C 0 km/h
2685 11-08-2021 15:15:00 23.7 C 17.11 g/m*3 23.7 C 0 km/h
2686 11-08-2021 15:20:00 23.7 C 16.9 g/m*3 23.7 C 0 km/h
2687 11-08-2021 15:25:00 23.7 C 17.33 g/m*3 23.7 C 0 km/h
2688 11-08-2021 15:30:00 23.8 C 15.06 g/m*3 23.8 C 0 km/h
2689 11-08-2021 15:35:00 24.1 C 14.88 g/m*3 24.1 C 0 km/h
2690 11-08-2021 15:40:00 24.4 C 15.13 g/m*3 24.4 C 0 km/h
2691 11-08-2021 15:45:00 24.9 C 14.42 g/m*3 24.9 C 6.4 km/h
2692 11-08-2021 15:50:00 25.1 C 15.28 g/m*3 25.1 C 1.6 km/h
2693 11-08-2021 15:55:00 25.3 C 14.75 g/m*3 25.3 C 3.2 km/h
2694 11-08-2021 16:00:00 25.7 C 14.13 g/m*3 25.7 C 1.6 km/h
2695 11-08-2021 16:05:00 26 C 13.63 g/m*3 26 C 1.6 km/h
2696 11-08-2021 16:10:00 26.2 C 14.03 g/m*3 26.2 C 0 km/h
2697 11-08-2021 16:15:00 26.5 C 14.52 g/m*3 26.5 C 4.8 km/h
2698 11-08-2021 16:20:00 26.7 C 14.43 g/m*3 26.7 C 1.6 km/h
2699 11-08-2021 16:25:00 26.5 C 14.77 g/m*3 26.5 C 1.6 km/h
2700 11-08-2021 16:30:00 26.3 C 15.1 g/m*3 26.3 C 3.2 km/h
Sensor: Nr:Datum:Temp:Abs-Feuchte:Windchill:Wind:
Aussen-T/F 2701 11-08-2021 16:35:00 26.1 C 14.93 g/m*3 26.1 C 1.6 km/h
2702 11-08-2021 16:40:00 26.1 C 14.69 g/m*3 26.1 C 1.6 km/h
2703 11-08-2021 16:45:00 26.3 C 14.61 g/m*3 26.3 C 1.6 km/h
2704 11-08-2021 16:50:00 26.6 C 15.61 g/m*3 26.6 C 4.8 km/h
2705 11-08-2021 16:55:00 26.8 C 14.51 g/m*3 26.8 C 0 km/h
2706 11-08-2021 17:00:00 27.1 C 14.49 g/m*3 27.1 C 4.8 km/h
2707 11-08-2021 17:05:00 27.2 C 14.31 g/m*3 27.2 C 0 km/h
2708 11-08-2021 17:10:00 27.3 C 13.87 g/m*3 27.3 C 1.6 km/h
2709 11-08-2021 17:15:00 27.5 C 16.4 g/m*3 27.5 C 0 km/h
2710 11-08-2021 17:20:00 27.4 C 17.37 g/m*3 27.4 C 0 km/h
2711 11-08-2021 17:25:00 27.1 C 17.6 g/m*3 27.1 C 0 km/h
2712 11-08-2021 17:30:00 26.9 C 17.66 g/m*3 26.9 C 0 km/h
2713 11-08-2021 17:35:00 27.2 C 15.87 g/m*3 27.2 C 1.6 km/h
2714 11-08-2021 17:40:00 27.3 C 17.27 g/m*3 27.3 C 0 km/h
2715 11-08-2021 17:45:00 27.3 C 14.91 g/m*3 27.3 C 0 km/h
2716 11-08-2021 17:50:00 27.5 C 14.82 g/m*3 27.5 C 1.6 km/h
2717 11-08-2021 17:55:00 27.4 C 16.31 g/m*3 27.4 C 0 km/h
2718 11-08-2021 18:00:00 27.6 C 14.9 g/m*3 27.6 C 0 km/h
2719 11-08-2021 18:05:00 27.6 C 14.9 g/m*3 27.6 C 0 km/h
2720 11-08-2021 18:10:00 27.7 C 17.65 g/m*3 27.7 C 0 km/h
2721 11-08-2021 18:15:00 27.6 C 18.09 g/m*3 27.6 C 0 km/h
2722 11-08-2021 18:20:00 27.2 C 17.43 g/m*3 27.2 C 0 km/h
2723 11-08-2021 18:25:00 26.7 C 17.21 g/m*3 26.7 C 0 km/h
2724 11-08-2021 18:30:00 26.1 C 17.14 g/m*3 26.1 C 0 km/h
2725 11-08-2021 18:35:00 25.6 C 16.9 g/m*3 25.6 C 0 km/h
Sensor: Nr:Datum:Temp:Abs-Feuchte:Windchill:Wind:
Aussen-T/F 2726 11-08-2021 18:40:00 25.1 C 16.67 g/m*3 25.1 C 0 km/h
2727 11-08-2021 18:45:00 24.7 C 16.75 g/m*3 24.7 C 0 km/h
2728 11-08-2021 18:50:00 24.5 C 16.79 g/m*3 24.5 C 0 km/h
2729 11-08-2021 18:55:00 24.3 C 16.82 g/m*3 24.3 C 0 km/h
2730 11-08-2021 19:00:00 24.2 C 16.72 g/m*3 24.2 C 0 km/h
2731 11-08-2021 19:05:00 23.9 C 16.23 g/m*3 23.9 C 0 km/h
2732 11-08-2021 19:10:00 23.5 C 16.07 g/m*3 23.5 C 0 km/h
2733 11-08-2021 19:15:00 23.1 C 15.92 g/m*3 23.1 C 0 km/h
2734 11-08-2021 19:20:00 22.7 C 15.76 g/m*3 22.7 C 0 km/h
2735 11-08-2021 19:25:00 22.4 C 15.69 g/m*3 22.4 C 4.8 km/h
2736 11-08-2021 19:30:00 22.1 C 15.42 g/m*3 22.1 C 1.6 km/h
2737 11-08-2021 19:35:00 21.9 C 15.24 g/m*3 21.9 C 1.6 km/h
2738 11-08-2021 19:40:00 21.8 C 15.54 g/m*3 21.8 C 0 km/h
2739 11-08-2021 19:45:00 21.7 C 15.45 g/m*3 21.7 C 0 km/h
2740 11-08-2021 19:50:00 21.6 C 15.55 g/m*3 21.6 C 6.4 km/h
2741 11-08-2021 19:55:00 21.7 C 15.83 g/m*3 21.7 C 4.8 km/h
2742 11-08-2021 20:00:00 21.8 C 15.92 g/m*3 21.8 C 4.8 km/h
2743 11-08-2021 20:05:00 21.8 C 15.73 g/m*3 21.8 C 3.2 km/h
2744 11-08-2021 20:10:00 21.9 C 15.82 g/m*3 21.9 C 1.6 km/h
2745 11-08-2021 20:15:00 22 C 15.72 g/m*3 22 C 1.6 km/h
2746 11-08-2021 20:20:00 22 C 15.72 g/m*3 22 C 1.6 km/h
2747 11-08-2021 20:25:00 21.9 C 15.63 g/m*3 21.9 C 0 km/h
2748 11-08-2021 20:30:00 21.8 C 15.54 g/m*3 21.8 C 1.6 km/h
2749 11-08-2021 20:35:00 21.6 C 15.17 g/m*3 21.6 C 1.6 km/h
2750 11-08-2021 20:40:00 21.3 C 15.1 g/m*3 21.3 C 1.6 km/h
Sensor: Nr:Datum:Temp:Abs-Feuchte:Windchill:Wind:
Aussen-T/F 2751 11-08-2021 20:45:00 21.1 C 14.92 g/m*3 21.1 C 4.8 km/h
2752 11-08-2021 20:50:00 20.8 C 14.85 g/m*3 20.8 C 4.8 km/h
2753 11-08-2021 20:55:00 20.5 C 14.59 g/m*3 20.5 C 3.2 km/h
2754 11-08-2021 21:00:00 20.3 C 14.6 g/m*3 20.3 C 4.8 km/h
2755 11-08-2021 21:05:00 20.1 C 14.43 g/m*3 20.1 C 4.8 km/h
2756 11-08-2021 21:10:00 19.8 C 14.35 g/m*3 19.8 C 6.4 km/h
2757 11-08-2021 21:15:00 19.6 C 14.18 g/m*3 19.6 C 8.1 km/h
2758 11-08-2021 21:20:00 19.4 C 14.18 g/m*3 19.4 C 4.8 km/h
2759 11-08-2021 21:25:00 19.3 C 14.1 g/m*3 19.3 C 0 km/h
2760 11-08-2021 21:30:00 19.2 C 14.18 g/m*3 19.2 C 0 km/h
2761 11-08-2021 21:35:00 19.1 C 14.1 g/m*3 19.1 C 0 km/h
2762 11-08-2021 21:40:00 18.9 C 14.09 g/m*3 18.9 C 0 km/h
2763 11-08-2021 21:45:00 18.7 C 13.93 g/m*3 18.7 C 0 km/h
2764 11-08-2021 21:50:00 18.6 C 13.85 g/m*3 18.6 C 0 km/h
2765 11-08-2021 21:55:00 18.4 C 13.84 g/m*3 18.4 C 0 km/h
2766 11-08-2021 22:00:00 18.3 C 13.76 g/m*3 18.3 C 0 km/h
2767 11-08-2021 22:05:00 18.2 C 13.68 g/m*3 18.2 C 0 km/h
2768 11-08-2021 22:10:00 18 C 13.52 g/m*3 18 C 0 km/h
2769 11-08-2021 22:15:00 17.9 C 13.44 g/m*3 17.9 C 0 km/h
2770 11-08-2021 22:20:00 17.8 C 13.51 g/m*3 17.8 C 0 km/h
2771 11-08-2021 22:25:00 17.7 C 13.43 g/m*3 17.7 C 0 km/h
2772 11-08-2021 22:30:00 17.6 C 13.35 g/m*3 17.6 C 0 km/h
2773 11-08-2021 22:35:00 17.4 C 13.19 g/m*3 17.4 C 0 km/h
2774 11-08-2021 22:40:00 17.4 C 13.34 g/m*3 17.4 C 0 km/h
2775 11-08-2021 22:45:00 17.3 C 13.26 g/m*3 17.3 C 0 km/h
Sensor: Nr:Datum:Temp:Abs-Feuchte:Windchill:Wind:
Aussen-T/F 2776 11-08-2021 22:50:00 17.2 C 13.18 g/m*3 17.2 C 0 km/h
2777 11-08-2021 22:55:00 17.1 C 13.1 g/m*3 17.1 C 0 km/h
2778 11-08-2021 23:00:00 17.1 C 13.25 g/m*3 17.1 C 0 km/h
2779 11-08-2021 23:05:00 16.9 C 12.94 g/m*3 16.9 C 0 km/h
2780 11-08-2021 23:10:00 16.8 C 13.01 g/m*3 16.8 C 0 km/h
2781 11-08-2021 23:15:00 16.8 C 13.01 g/m*3 16.8 C 0 km/h
2782 11-08-2021 23:20:00 16.7 C 12.93 g/m*3 16.7 C 0 km/h
2783 11-08-2021 23:25:00 16.6 C 12.86 g/m*3 16.6 C 0 km/h
2784 11-08-2021 23:30:00 16.6 C 12.86 g/m*3 16.6 C 0 km/h
2785 11-08-2021 23:35:00 16.4 C 12.7 g/m*3 16.4 C 0 km/h
2786 11-08-2021 23:40:00 16.4 C 12.84 g/m*3 16.4 C 0 km/h
2787 11-08-2021 23:45:00 16.3 C 12.76 g/m*3 16.3 C 0 km/h
2788 11-08-2021 23:50:00 16.2 C 12.69 g/m*3 16.2 C 0 km/h
2789 11-08-2021 23:55:00 16.2 C 12.69 g/m*3 16.2 C 1.6 km/h
2790 12-08-2021 00:00:00 16.2 C 12.82 g/m*3 16.2 C 0 km/h
2791 12-08-2021 00:05:00 16.1 C 12.61 g/m*3 16.1 C 0 km/h
2792 12-08-2021 00:10:00 16 C 12.67 g/m*3 16 C 0 km/h
2793 12-08-2021 00:15:00 15.9 C 12.59 g/m*3 15.9 C 0 km/h
2794 12-08-2021 00:20:00 15.9 C 12.59 g/m*3 15.9 C 0 km/h
2795 12-08-2021 00:25:00 15.9 C 12.59 g/m*3 15.9 C 0 km/h
2796 12-08-2021 00:30:00 15.8 C 12.52 g/m*3 15.8 C 0 km/h
2797 12-08-2021 00:35:00 15.8 C 12.52 g/m*3 15.8 C 0 km/h
2798 12-08-2021 00:40:00 15.8 C 12.52 g/m*3 15.8 C 0 km/h
2799 12-08-2021 00:45:00 15.7 C 12.44 g/m*3 15.7 C 0 km/h
2800 12-08-2021 00:50:00 15.7 C 12.44 g/m*3 15.7 C 0 km/h
Sensor: Nr:Datum:Temp:Abs-Feuchte:Windchill:Wind:
Aussen-T/F 2801 12-08-2021 00:55:00 15.6 C 12.37 g/m*3 15.6 C 0 km/h
2802 12-08-2021 01:00:00 15.6 C 12.5 g/m*3 15.6 C 0 km/h
2803 12-08-2021 01:05:00 15.6 C 12.5 g/m*3 15.6 C 0 km/h
2804 12-08-2021 01:10:00 15.5 C 12.43 g/m*3 15.5 C 0 km/h
2805 12-08-2021 01:15:00 15.4 C 12.35 g/m*3 15.4 C 0 km/h
2806 12-08-2021 01:20:00 15.4 C 12.35 g/m*3 15.4 C 0 km/h
2807 12-08-2021 01:25:00 15.4 C 12.35 g/m*3 15.4 C 0 km/h
2808 12-08-2021 01:30:00 15.3 C 12.28 g/m*3 15.3 C 0 km/h
2809 12-08-2021 01:35:00 15.3 C 12.28 g/m*3 15.3 C 0 km/h
2810 12-08-2021 01:40:00 15.3 C 12.28 g/m*3 15.3 C 0 km/h
2811 12-08-2021 01:45:00 15.2 C 12.2 g/m*3 15.2 C 0 km/h
2812 12-08-2021 01:50:00 15.2 C 12.2 g/m*3 15.2 C 0 km/h
2813 12-08-2021 01:55:00 15.1 C 12.13 g/m*3 15.1 C 0 km/h
2814 12-08-2021 02:00:00 15.1 C 12.13 g/m*3 15.1 C 0 km/h
2815 12-08-2021 02:05:00 15 C 12.05 g/m*3 15 C 0 km/h
2816 12-08-2021 02:10:00 15 C 12.05 g/m*3 15 C 0 km/h
2817 12-08-2021 02:15:00 14.9 C 12.11 g/m*3 14.9 C 0 km/h
2818 12-08-2021 02:20:00 14.9 C 12.11 g/m*3 14.9 C 0 km/h
2819 12-08-2021 02:25:00 14.9 C 12.11 g/m*3 14.9 C 0 km/h
2820 12-08-2021 02:30:00 14.9 C 11.98 g/m*3 14.9 C 0 km/h
2821 12-08-2021 02:35:00 14.8 C 11.91 g/m*3 14.8 C 0 km/h
2822 12-08-2021 02:40:00 14.8 C 12.03 g/m*3 14.8 C 0 km/h
2823 12-08-2021 02:45:00 14.8 C 12.03 g/m*3 14.8 C 0 km/h
2824 12-08-2021 02:50:00 14.7 C 11.96 g/m*3 14.7 C 0 km/h
2825 12-08-2021 02:55:00 14.7 C 11.96 g/m*3 14.7 C 0 km/h
Sensor: Nr:Datum:Temp:Abs-Feuchte:Windchill:Wind:
Aussen-T/F 2826 12-08-2021 03:00:00 14.6 C 11.89 g/m*3 14.6 C 0 km/h
2827 12-08-2021 03:05:00 14.6 C 11.89 g/m*3 14.6 C 0 km/h
2828 12-08-2021 03:10:00 14.5 C 11.82 g/m*3 14.5 C 0 km/h
2829 12-08-2021 03:15:00 14.5 C 11.82 g/m*3 14.5 C 0 km/h
2830 12-08-2021 03:20:00 14.6 C 11.89 g/m*3 14.6 C 0 km/h
2831 12-08-2021 03:25:00 14.6 C 11.89 g/m*3 14.6 C 0 km/h
2832 12-08-2021 03:30:00 14.7 C 11.96 g/m*3 14.7 C 0 km/h
2833 12-08-2021 03:35:00 14.6 C 11.89 g/m*3 14.6 C 0 km/h
2834 12-08-2021 03:40:00 14.6 C 11.89 g/m*3 14.6 C 0 km/h
2835 12-08-2021 03:45:00 14.4 C 11.74 g/m*3 14.4 C 0 km/h
2836 12-08-2021 03:50:00 14.4 C 11.74 g/m*3 14.4 C 0 km/h
2837 12-08-2021 03:55:00 14.3 C 11.67 g/m*3 14.3 C 0 km/h
2838 12-08-2021 04:00:00 14.3 C 11.67 g/m*3 14.3 C 0 km/h
2839 12-08-2021 04:05:00 14.2 C 11.6 g/m*3 14.2 C 0 km/h
2840 12-08-2021 04:10:00 14.2 C 11.6 g/m*3 14.2 C 0 km/h
2841 12-08-2021 04:15:00 14.2 C 11.6 g/m*3 14.2 C 0 km/h
2842 12-08-2021 04:20:00 14.1 C 11.53 g/m*3 14.1 C 0 km/h
2843 12-08-2021 04:25:00 14.1 C 11.53 g/m*3 14.1 C 0 km/h
2844 12-08-2021 04:30:00 14 C 11.46 g/m*3 14 C 0 km/h
2845 12-08-2021 04:35:00 13.9 C 11.39 g/m*3 13.9 C 0 km/h
2846 12-08-2021 04:40:00 13.9 C 11.39 g/m*3 13.9 C 0 km/h
2847 12-08-2021 04:45:00 13.9 C 11.39 g/m*3 13.9 C 0 km/h
2848 12-08-2021 04:50:00 13.8 C 11.32 g/m*3 13.8 C 0 km/h
2849 12-08-2021 04:55:00 13.8 C 11.32 g/m*3 13.8 C 0 km/h
2850 12-08-2021 05:00:00 13.8 C 11.32 g/m*3 13.8 C 0 km/h
Sensor: Nr:Datum:Temp:Abs-Feuchte:Windchill:Wind:
Aussen-T/F 2851 12-08-2021 05:05:00 13.7 C 11.25 g/m*3 13.7 C 0 km/h
2852 12-08-2021 05:10:00 13.7 C 11.25 g/m*3 13.7 C 0 km/h
2853 12-08-2021 05:15:00 13.7 C 11.37 g/m*3 13.7 C 0 km/h
2854 12-08-2021 05:20:00 13.7 C 11.37 g/m*3 13.7 C 0 km/h
2855 12-08-2021 05:25:00 13.7 C 11.37 g/m*3 13.7 C 0 km/h
2856 12-08-2021 05:30:00 13.6 C 11.3 g/m*3 13.6 C 0 km/h
2857 12-08-2021 05:35:00 13.6 C 11.18 g/m*3 13.6 C 0 km/h
2858 12-08-2021 05:40:00 13.6 C 11.18 g/m*3 13.6 C 0 km/h
2859 12-08-2021 05:45:00 13.6 C 11.18 g/m*3 13.6 C 0 km/h
2860 12-08-2021 05:50:00 13.6 C 11.18 g/m*3 13.6 C 0 km/h
2861 12-08-2021 05:55:00 13.6 C 11.3 g/m*3 13.6 C 0 km/h
2862 12-08-2021 06:00:00 13.5 C 11.23 g/m*3 13.5 C 0 km/h
2863 12-08-2021 06:05:00 13.5 C 11.23 g/m*3 13.5 C 0 km/h
2864 12-08-2021 06:10:00 13.4 C 11.16 g/m*3 13.4 C 0 km/h
2865 12-08-2021 06:15:00 13.4 C 11.16 g/m*3 13.4 C 0 km/h
2866 12-08-2021 06:20:00 13.4 C 11.16 g/m*3 13.4 C 0 km/h
2867 12-08-2021 06:25:00 13.5 C 11.23 g/m*3 13.5 C 0 km/h
2868 12-08-2021 06:30:00 13.6 C 11.3 g/m*3 13.6 C 0 km/h
2869 12-08-2021 06:35:00 13.7 C 11.37 g/m*3 13.7 C 0 km/h
2870 12-08-2021 06:40:00 13.7 C 11.37 g/m*3 13.7 C 0 km/h
2871 12-08-2021 06:45:00 13.8 C 11.44 g/m*3 13.8 C 0 km/h
2872 12-08-2021 06:50:00 13.9 C 11.51 g/m*3 13.9 C 0 km/h
2873 12-08-2021 06:55:00 14 C 11.58 g/m*3 14 C 0 km/h
2874 12-08-2021 07:00:00 14.1 C 11.77 g/m*3 14.1 C 0 km/h
2875 12-08-2021 07:05:00 14.2 C 11.72 g/m*3 14.2 C 0 km/h
Sensor: Nr:Datum:Temp:Abs-Feuchte:Windchill:Wind:
Aussen-T/F 2876 12-08-2021 07:10:00 14.2 C 11.72 g/m*3 14.2 C 0 km/h
2877 12-08-2021 07:15:00 14.2 C 11.72 g/m*3 14.2 C 0 km/h
2878 12-08-2021 07:20:00 14.2 C 11.72 g/m*3 14.2 C 0 km/h
2879 12-08-2021 07:25:00 14.3 C 11.79 g/m*3 14.3 C 0 km/h
2880 12-08-2021 07:30:00 14.3 C 11.79 g/m*3 14.3 C 0 km/h
2881 12-08-2021 07:35:00 14.4 C 11.87 g/m*3 14.4 C 0 km/h
2882 12-08-2021 07:40:00 14.6 C 12.14 g/m*3 14.6 C 0 km/h
2883 12-08-2021 07:45:00 14.6 C 12.14 g/m*3 14.6 C 0 km/h
2884 12-08-2021 07:50:00 14.7 C 12.21 g/m*3 14.7 C 0 km/h
2885 12-08-2021 07:55:00 14.7 C 12.09 g/m*3 14.7 C 0 km/h
2886 12-08-2021 08:00:00 14.8 C 12.16 g/m*3 14.8 C 0 km/h
2887 12-08-2021 08:05:00 14.9 C 12.36 g/m*3 14.9 C 0 km/h
2888 12-08-2021 08:10:00 15 C 12.44 g/m*3 15 C 0 km/h
2889 12-08-2021 08:15:00 15.1 C 12.51 g/m*3 15.1 C 0 km/h
2890 12-08-2021 08:20:00 15.1 C 12.51 g/m*3 15.1 C 0 km/h
2891 12-08-2021 08:25:00 15.2 C 12.59 g/m*3 15.2 C 1.6 km/h
2892 12-08-2021 08:30:00 15.2 C 12.46 g/m*3 15.2 C 1.6 km/h
2893 12-08-2021 08:35:00 15.2 C 12.46 g/m*3 15.2 C 0 km/h
2894 12-08-2021 08:40:00 15.3 C 12.54 g/m*3 15.3 C 1.6 km/h
2895 12-08-2021 08:45:00 15.3 C 12.54 g/m*3 15.3 C 0 km/h
2896 12-08-2021 08:50:00 15.4 C 12.61 g/m*3 15.4 C 3.2 km/h
2897 12-08-2021 08:55:00 15.5 C 12.69 g/m*3 15.5 C 0 km/h
2898 12-08-2021 09:00:00 15.6 C 12.77 g/m*3 15.6 C 0 km/h
2899 12-08-2021 09:05:00 15.7 C 12.84 g/m*3 15.7 C 0 km/h
2900 12-08-2021 09:10:00 15.7 C 12.84 g/m*3 15.7 C 0 km/h
Sensor: Nr:Datum:Temp:Abs-Feuchte:Windchill:Wind:
Aussen-T/F 2901 12-08-2021 09:15:00 15.8 C 12.92 g/m*3 15.8 C 0 km/h
2902 12-08-2021 09:20:00 15.9 C 13 g/m*3 15.9 C 0 km/h
2903 12-08-2021 09:25:00 16 C 13.08 g/m*3 16 C 3.2 km/h
2904 12-08-2021 09:30:00 16.2 C 13.24 g/m*3 16.2 C 0 km/h
2905 12-08-2021 09:35:00 16.3 C 13.32 g/m*3 16.3 C 0 km/h
2906 12-08-2021 09:40:00 16.4 C 13.4 g/m*3 16.4 C 0 km/h
2907 12-08-2021 09:45:00 16.6 C 13.56 g/m*3 16.6 C 0 km/h
2908 12-08-2021 09:50:00 16.7 C 13.64 g/m*3 16.7 C 0 km/h
2909 12-08-2021 09:55:00 16.8 C 13.73 g/m*3 16.8 C 0 km/h
2910 12-08-2021 10:00:00 17.1 C 13.97 g/m*3 17.1 C 0 km/h
2911 12-08-2021 10:05:00 17.2 C 14.06 g/m*3 17.2 C 0 km/h
2912 12-08-2021 10:10:00 17.4 C 14.08 g/m*3 17.4 C 0 km/h
2913 12-08-2021 10:15:00 17.6 C 14.25 g/m*3 17.6 C 0 km/h
2914 12-08-2021 10:20:00 17.8 C 14.27 g/m*3 17.8 C 0 km/h
2915 12-08-2021 10:25:00 18 C 14.59 g/m*3 18 C 0 km/h
2916 12-08-2021 10:30:00 18.3 C 14.7 g/m*3 18.3 C 0 km/h
2917 12-08-2021 10:35:00 18.5 C 14.87 g/m*3 18.5 C 0 km/h
2918 12-08-2021 10:40:00 18.7 C 15.05 g/m*3 18.7 C 0 km/h
2919 12-08-2021 10:45:00 18.9 C 14.9 g/m*3 18.9 C 0 km/h
2920 12-08-2021 10:50:00 19.1 C 15.08 g/m*3 19.1 C 0 km/h
2921 12-08-2021 10:55:00 19.3 C 14.93 g/m*3 19.3 C 0 km/h
2922 12-08-2021 11:00:00 19.4 C 15.18 g/m*3 19.4 C 0 km/h
2923 12-08-2021 11:05:00 19.7 C 15.11 g/m*3 19.7 C 0 km/h
2924 12-08-2021 11:10:00 20 C 15.21 g/m*3 20 C 1.6 km/h
2925 12-08-2021 11:15:00 20.2 C 15.39 g/m*3 20.2 C 0 km/h
Sensor: Nr:Datum:Temp:Abs-Feuchte:Windchill:Wind:
Aussen-T/F 2926 12-08-2021 11:20:00 20.4 C 15.57 g/m*3 20.4 C 0 km/h
2927 12-08-2021 11:25:00 20.7 C 16.02 g/m*3 20.7 C 0 km/h
2928 12-08-2021 11:30:00 20.8 C 15.75 g/m*3 20.8 C 0 km/h
2929 12-08-2021 11:35:00 20.9 C 15.66 g/m*3 20.9 C 0 km/h
2930 12-08-2021 11:40:00 21.2 C 15.57 g/m*3 21.2 C 0 km/h
2931 12-08-2021 11:45:00 21.4 C 15.94 g/m*3 21.4 C 1.6 km/h
2932 12-08-2021 11:50:00 21.8 C 16.12 g/m*3 21.8 C 0 km/h
2933 12-08-2021 11:55:00 22.1 C 16.01 g/m*3 22.1 C 0 km/h
2934 12-08-2021 12:00:00 22.3 C 15.99 g/m*3 22.3 C 0 km/h
2935 12-08-2021 12:05:00 22.6 C 15.87 g/m*3 22.6 C 0 km/h
2936 12-08-2021 12:10:00 22.8 C 15.85 g/m*3 22.8 C 3.2 km/h
2937 12-08-2021 12:15:00 23.1 C 15.92 g/m*3 23.1 C 1.6 km/h
2938 12-08-2021 12:20:00 23.3 C 16.94 g/m*3 23.3 C 0 km/h
2939 12-08-2021 12:25:00 23.5 C 16.71 g/m*3 23.5 C 0 km/h
2940 12-08-2021 12:30:00 23.6 C 16.8 g/m*3 23.6 C 0 km/h
2941 12-08-2021 12:35:00 23.7 C 16.26 g/m*3 23.7 C 0 km/h
2942 12-08-2021 12:40:00 23.7 C 16.26 g/m*3 23.7 C 0 km/h
2943 12-08-2021 12:45:00 23.8 C 16.13 g/m*3 23.8 C 0 km/h
2944 12-08-2021 12:50:00 23.9 C 16.23 g/m*3 23.9 C 0 km/h
2945 12-08-2021 12:55:00 24.1 C 16.41 g/m*3 24.1 C 0 km/h
2946 12-08-2021 13:00:00 24.2 C 17.16 g/m*3 24.2 C 1.6 km/h
2947 12-08-2021 13:05:00 24.2 C 15.84 g/m*3 24.2 C 3.2 km/h
2948 12-08-2021 13:10:00 24.3 C 15.93 g/m*3 24.3 C 0 km/h
2949 12-08-2021 13:15:00 24.5 C 17.01 g/m*3 24.5 C 0 km/h
2950 12-08-2021 13:20:00 24.6 C 17.56 g/m*3 24.6 C 0 km/h
Sensor: Nr:Datum:Temp:Abs-Feuchte:Windchill:Wind:
Aussen-T/F 2951 12-08-2021 13:25:00 24.6 C 16.43 g/m*3 24.6 C 1.6 km/h
2952 12-08-2021 13:30:00 24.5 C 15.44 g/m*3 24.5 C 4.8 km/h
2953 12-08-2021 13:35:00 24.6 C 15.53 g/m*3 24.6 C 4.8 km/h
2954 12-08-2021 13:40:00 24.6 C 15.75 g/m*3 24.6 C 4.8 km/h
2955 12-08-2021 13:45:00 24.7 C 15.39 g/m*3 24.7 C 6.4 km/h
2956 12-08-2021 13:50:00 24.7 C 15.62 g/m*3 24.7 C 3.2 km/h
2957 12-08-2021 13:55:00 24.8 C 15.25 g/m*3 24.8 C 1.6 km/h
2958 12-08-2021 14:00:00 24.9 C 16.71 g/m*3 24.9 C 0 km/h
2959 12-08-2021 14:05:00 24.9 C 16.25 g/m*3 24.9 C 0 km/h
2960 12-08-2021 14:10:00 25 C 15.65 g/m*3 25 C 3.2 km/h
2961 12-08-2021 14:15:00 25.2 C 16.53 g/m*3 25.2 C 0 km/h
2962 12-08-2021 14:20:00 25.2 C 15.83 g/m*3 25.2 C 0 km/h
2963 12-08-2021 14:25:00 25.3 C 17.09 g/m*3 25.3 C 0 km/h
2964 12-08-2021 14:30:00 25.3 C 15.92 g/m*3 25.3 C 0 km/h
2965 12-08-2021 14:35:00 25.3 C 15.92 g/m*3 25.3 C 4.8 km/h
2966 12-08-2021 14:40:00 25.3 C 15.69 g/m*3 25.3 C 3.2 km/h
2967 12-08-2021 14:45:00 25.4 C 16.24 g/m*3 25.4 C 3.2 km/h
2968 12-08-2021 14:50:00 25.5 C 16.57 g/m*3 25.5 C 0 km/h
2969 12-08-2021 14:55:00 25.5 C 15.86 g/m*3 25.5 C 4.8 km/h
2970 12-08-2021 15:00:00 25.7 C 16.04 g/m*3 25.7 C 3.2 km/h
2971 12-08-2021 15:05:00 25.8 C 16.37 g/m*3 25.8 C 3.2 km/h
2972 12-08-2021 15:10:00 25.8 C 16.37 g/m*3 25.8 C 4.8 km/h
2973 12-08-2021 15:15:00 25.9 C 16.22 g/m*3 25.9 C 6.4 km/h
2974 12-08-2021 15:20:00 26.1 C 17.38 g/m*3 26.1 C 3.2 km/h
2975 12-08-2021 15:25:00 26.1 C 16.16 g/m*3 26.1 C 8.1 km/h
Sensor: Nr:Datum:Temp:Abs-Feuchte:Windchill:Wind:
Aussen-T/F 2976 12-08-2021 15:30:00 26.3 C 17.82 g/m*3 26.3 C 9.7 km/h
2977 12-08-2021 15:35:00 26.4 C 17.92 g/m*3 26.4 C 3.2 km/h
2978 12-08-2021 15:40:00 26.5 C 16.27 g/m*3 26.5 C 6.4 km/h
2979 12-08-2021 15:45:00 26.7 C 16.45 g/m*3 26.7 C 8.1 km/h
2980 12-08-2021 15:50:00 26.9 C 16.38 g/m*3 26.9 C 1.6 km/h
2981 12-08-2021 15:55:00 27.1 C 16.56 g/m*3 27.1 C 8.1 km/h
2982 12-08-2021 16:00:00 27.3 C 16.75 g/m*3 27.3 C 6.4 km/h
2983 12-08-2021 16:05:00 27.4 C 16.05 g/m*3 27.4 C 6.4 km/h
2984 12-08-2021 16:10:00 27.7 C 16.32 g/m*3 27.7 C 8.1 km/h
2985 12-08-2021 16:15:00 27.8 C 16.14 g/m*3 27.8 C 9.7 km/h
2986 12-08-2021 16:20:00 28.1 C 16.41 g/m*3 28.1 C 8.1 km/h
2987 12-08-2021 16:25:00 28.4 C 15.57 g/m*3 28.4 C 6.4 km/h
2988 12-08-2021 16:30:00 28.6 C 15.18 g/m*3 28.6 C 6.4 km/h
2989 12-08-2021 16:35:00 28.9 C 16.85 g/m*3 28.9 C 4.8 km/h
2990 12-08-2021 16:40:00 29.1 C 15.6 g/m*3 29.1 C 1.6 km/h
2991 12-08-2021 16:45:00 29.5 C 19.18 g/m*3 29.5 C 1.6 km/h
2992 12-08-2021 16:50:00 29.8 C 18 g/m*3 29.8 C 0 km/h
2993 12-08-2021 16:55:00 29.8 C 16.8 g/m*3 29.8 C 0 km/h
2994 12-08-2021 17:00:00 30.1 C 19.51 g/m*3 30.1 C 0 km/h
2995 12-08-2021 17:05:00 30.3 C 19.42 g/m*3 30.3 C 0 km/h
2996 12-08-2021 17:10:00 30.2 C 17.78 g/m*3 30.2 C 0 km/h
2997 12-08-2021 17:15:00 30.1 C 17.68 g/m*3 30.1 C 0 km/h
2998 12-08-2021 17:20:00 30.1 C 18.29 g/m*3 30.1 C 0 km/h
2999 12-08-2021 17:25:00 29.9 C 17.8 g/m*3 29.9 C 0 km/h
3000 12-08-2021 17:30:00 29.7 C 18.2 g/m*3 29.7 C 1.6 km/h
Sensor: Nr:Datum:Temp:Abs-Feuchte:Windchill:Wind:
Aussen-T/F 3001 12-08-2021 17:35:00 29.7 C 18.5 g/m*3 29.7 C 3.2 km/h
3002 12-08-2021 17:40:00 29.8 C 16.5 g/m*3 29.8 C 3.2 km/h
3003 12-08-2021 17:45:00 29.8 C 16.8 g/m*3 29.8 C 8.1 km/h
3004 12-08-2021 17:50:00 29.9 C 15.38 g/m*3 29.9 C 1.6 km/h
3005 12-08-2021 17:55:00 29.9 C 15.68 g/m*3 29.9 C 0 km/h
3006 12-08-2021 18:00:00 29.9 C 15.38 g/m*3 29.9 C 0 km/h
3007 12-08-2021 18:05:00 29.9 C 17.19 g/m*3 29.9 C 0 km/h
3008 12-08-2021 18:10:00 30.2 C 19.31 g/m*3 30.2 C 0 km/h
3009 12-08-2021 18:15:00 30.3 C 19.42 g/m*3 30.3 C 0 km/h
3010 12-08-2021 18:20:00 30.4 C 18.59 g/m*3 30.4 C 1.6 km/h
3011 12-08-2021 18:25:00 30.6 C 19.42 g/m*3 30.6 C 1.6 km/h
3012 12-08-2021 18:30:00 30.4 C 19.52 g/m*3 30.4 C 1.6 km/h
3013 12-08-2021 18:35:00 30.4 C 19.83 g/m*3 30.4 C 0 km/h
3014 12-08-2021 18:40:00 30.2 C 19.31 g/m*3 30.2 C 0 km/h
3015 12-08-2021 18:45:00 29.8 C 18.9 g/m*3 29.8 C 0 km/h
3016 12-08-2021 18:50:00 29.4 C 19.08 g/m*3 29.4 C 0 km/h
3017 12-08-2021 18:55:00 28.9 C 18.85 g/m*3 28.9 C 0 km/h
3018 12-08-2021 19:00:00 28.4 C 18.62 g/m*3 28.4 C 3.2 km/h
3019 12-08-2021 19:05:00 27.9 C 18.12 g/m*3 27.9 C 3.2 km/h
3020 12-08-2021 19:10:00 27.6 C 18.36 g/m*3 27.6 C 3.2 km/h
3021 12-08-2021 19:15:00 27.3 C 18.05 g/m*3 27.3 C 3.2 km/h
3022 12-08-2021 19:20:00 27.1 C 17.86 g/m*3 27.1 C 4.8 km/h
3023 12-08-2021 19:25:00 26.8 C 17.82 g/m*3 26.8 C 4.8 km/h
3024 12-08-2021 19:30:00 26.6 C 17.62 g/m*3 26.6 C 4.8 km/h
3025 12-08-2021 19:35:00 26.2 C 17.48 g/m*3 26.2 C 4.8 km/h
Sensor: Nr:Datum:Temp:Abs-Feuchte:Windchill:Wind:
Aussen-T/F 3026 12-08-2021 19:40:00 25.8 C 17.33 g/m*3 25.8 C 3.2 km/h
3027 12-08-2021 19:45:00 25.5 C 17.28 g/m*3 25.5 C 6.4 km/h
3028 12-08-2021 19:50:00 25.1 C 16.9 g/m*3 25.1 C 6.4 km/h
3029 12-08-2021 19:55:00 24.8 C 16.84 g/m*3 24.8 C 6.4 km/h
3030 12-08-2021 20:00:00 24.4 C 16.47 g/m*3 24.4 C 8.1 km/h
3031 12-08-2021 20:05:00 24.1 C 16.63 g/m*3 24.1 C 6.4 km/h
3032 12-08-2021 20:10:00 23.8 C 16.35 g/m*3 23.8 C 8.1 km/h
3033 12-08-2021 20:15:00 23.7 C 16.26 g/m*3 23.7 C 8.1 km/h
3034 12-08-2021 20:20:00 23.4 C 15.98 g/m*3 23.4 C 8.1 km/h
3035 12-08-2021 20:25:00 23.3 C 16.1 g/m*3 23.3 C 8.1 km/h
3036 12-08-2021 20:30:00 23.1 C 15.92 g/m*3 23.1 C 8.1 km/h
3037 12-08-2021 20:35:00 22.9 C 16.14 g/m*3 22.9 C 4.8 km/h
3038 12-08-2021 20:40:00 22.7 C 15.96 g/m*3 22.7 C 6.4 km/h
3039 12-08-2021 20:45:00 22.4 C 15.89 g/m*3 22.4 C 3.2 km/h
3040 12-08-2021 20:50:00 22.2 C 15.9 g/m*3 22.2 C 3.2 km/h
3041 12-08-2021 20:55:00 22 C 15.72 g/m*3 22 C 6.4 km/h
3042 12-08-2021 21:00:00 21.8 C 15.73 g/m*3 21.8 C 4.8 km/h
3043 12-08-2021 21:05:00 21.7 C 15.83 g/m*3 21.7 C 3.2 km/h
3044 12-08-2021 21:10:00 21.6 C 15.93 g/m*3 21.6 C 3.2 km/h
3045 12-08-2021 21:15:00 21.4 C 15.75 g/m*3 21.4 C 3.2 km/h
3046 12-08-2021 21:20:00 21.3 C 15.66 g/m*3 21.3 C 1.6 km/h
3047 12-08-2021 21:25:00 21.2 C 15.75 g/m*3 21.2 C 1.6 km/h
3048 12-08-2021 21:30:00 21.1 C 15.66 g/m*3 21.1 C 3.2 km/h
3049 12-08-2021 21:35:00 20.9 C 15.48 g/m*3 20.9 C 3.2 km/h
3050 12-08-2021 21:40:00 20.8 C 15.57 g/m*3 20.8 C 0 km/h
Sensor: Nr:Datum:Temp:Abs-Feuchte:Windchill:Wind:
Aussen-T/F 3051 12-08-2021 21:45:00 20.8 C 15.57 g/m*3 20.8 C 0 km/h
3052 12-08-2021 21:50:00 20.7 C 15.48 g/m*3 20.7 C 0 km/h
3053 12-08-2021 21:55:00 20.7 C 15.66 g/m*3 20.7 C 1.6 km/h
3054 12-08-2021 22:00:00 20.6 C 15.57 g/m*3 20.6 C 1.6 km/h
3055 12-08-2021 22:05:00 20.5 C 15.48 g/m*3 20.5 C 0 km/h
3056 12-08-2021 22:10:00 20.4 C 15.39 g/m*3 20.4 C 0 km/h
3057 12-08-2021 22:15:00 20.3 C 15.3 g/m*3 20.3 C 0 km/h
3058 12-08-2021 22:20:00 20.2 C 15.21 g/m*3 20.2 C 0 km/h
3059 12-08-2021 22:25:00 20.1 C 15.3 g/m*3 20.1 C 0 km/h
3060 12-08-2021 22:30:00 20 C 15.21 g/m*3 20 C 0 km/h
3061 12-08-2021 22:35:00 19.8 C 15.03 g/m*3 19.8 C 0 km/h
3062 12-08-2021 22:40:00 19.7 C 14.94 g/m*3 19.7 C 0 km/h
3063 12-08-2021 22:45:00 19.6 C 14.86 g/m*3 19.6 C 0 km/h
3064 12-08-2021 22:50:00 19.4 C 14.68 g/m*3 19.4 C 0 km/h
3065 12-08-2021 22:55:00 19.3 C 14.6 g/m*3 19.3 C 0 km/h
3066 12-08-2021 23:00:00 19.2 C 14.68 g/m*3 19.2 C 0 km/h
3067 12-08-2021 23:05:00 19.1 C 14.59 g/m*3 19.1 C 0 km/h
3068 12-08-2021 23:10:00 19 C 14.5 g/m*3 19 C 0 km/h
3069 12-08-2021 23:15:00 18.9 C 14.58 g/m*3 18.9 C 0 km/h
3070 12-08-2021 23:20:00 18.8 C 14.33 g/m*3 18.8 C 0 km/h
3071 12-08-2021 23:25:00 18.7 C 14.41 g/m*3 18.7 C 0 km/h
3072 12-08-2021 23:30:00 18.7 C 14.41 g/m*3 18.7 C 0 km/h
3073 12-08-2021 23:35:00 18.6 C 14.32 g/m*3 18.6 C 1.6 km/h
3074 12-08-2021 23:40:00 18.6 C 14.32 g/m*3 18.6 C 0 km/h
3075 12-08-2021 23:45:00 18.4 C 14.16 g/m*3 18.4 C 0 km/h
Sensor: Nr:Datum:Temp:Abs-Feuchte:Windchill:Wind:
Aussen-T/F 3076 12-08-2021 23:50:00 18.3 C 14.23 g/m*3 18.3 C 0 km/h
3077 12-08-2021 23:55:00 18.3 C 14.23 g/m*3 18.3 C 0 km/h
3078 13-08-2021 00:00:00 18.2 C 14.14 g/m*3 18.2 C 0 km/h
3079 13-08-2021 00:05:00 18.1 C 14.06 g/m*3 18.1 C 0 km/h
3080 13-08-2021 00:10:00 18 C 13.98 g/m*3 18 C 0 km/h
3081 13-08-2021 00:15:00 17.9 C 13.89 g/m*3 17.9 C 0 km/h
3082 13-08-2021 00:20:00 17.9 C 14.05 g/m*3 17.9 C 0 km/h
3083 13-08-2021 00:25:00 17.8 C 13.81 g/m*3 17.8 C 0 km/h
3084 13-08-2021 00:30:00 17.7 C 13.88 g/m*3 17.7 C 0 km/h
3085 13-08-2021 00:35:00 17.7 C 13.88 g/m*3 17.7 C 0 km/h
3086 13-08-2021 00:40:00 17.7 C 13.88 g/m*3 17.7 C 0 km/h
3087 13-08-2021 00:45:00 17.6 C 13.8 g/m*3 17.6 C 0 km/h
3088 13-08-2021 00:50:00 17.6 C 13.8 g/m*3 17.6 C 0 km/h
3089 13-08-2021 00:55:00 17.4 C 13.63 g/m*3 17.4 C 0 km/h
3090 13-08-2021 01:00:00 17.4 C 13.78 g/m*3 17.4 C 0 km/h
3091 13-08-2021 01:05:00 17.3 C 13.7 g/m*3 17.3 C 0 km/h
3092 13-08-2021 01:10:00 17.3 C 13.7 g/m*3 17.3 C 0 km/h
3093 13-08-2021 01:15:00 17.2 C 13.62 g/m*3 17.2 C 0 km/h
3094 13-08-2021 01:20:00 17.2 C 13.62 g/m*3 17.2 C 0 km/h
3095 13-08-2021 01:25:00 17.1 C 13.54 g/m*3 17.1 C 0 km/h
3096 13-08-2021 01:30:00 17.1 C 13.54 g/m*3 17.1 C 0 km/h
3097 13-08-2021 01:35:00 17.1 C 13.68 g/m*3 17.1 C 0 km/h
3098 13-08-2021 01:40:00 17.1 C 13.68 g/m*3 17.1 C 0 km/h
3099 13-08-2021 01:45:00 17 C 13.6 g/m*3 17 C 1.6 km/h
3100 13-08-2021 01:50:00 17 C 13.6 g/m*3 17 C 3.2 km/h
Sensor: Nr:Datum:Temp:Abs-Feuchte:Windchill:Wind:
Aussen-T/F 3101 13-08-2021 01:55:00 17 C 13.6 g/m*3 17 C 0 km/h
3102 13-08-2021 02:00:00 16.9 C 13.52 g/m*3 16.9 C 0 km/h
3103 13-08-2021 02:05:00 17 C 13.6 g/m*3 17 C 1.6 km/h
3104 13-08-2021 02:10:00 17.1 C 13.68 g/m*3 17.1 C 0 km/h
3105 13-08-2021 02:15:00 17 C 13.6 g/m*3 17 C 0 km/h
3106 13-08-2021 02:20:00 16.9 C 13.52 g/m*3 16.9 C 0 km/h
3107 13-08-2021 02:25:00 16.8 C 13.44 g/m*3 16.8 C 0 km/h
3108 13-08-2021 02:30:00 16.8 C 13.44 g/m*3 16.8 C 0 km/h
3109 13-08-2021 02:35:00 16.7 C 13.36 g/m*3 16.7 C 0 km/h
3110 13-08-2021 02:40:00 16.8 C 13.44 g/m*3 16.8 C 0 km/h
3111 13-08-2021 02:45:00 16.7 C 13.36 g/m*3 16.7 C 0 km/h
3112 13-08-2021 02:50:00 16.7 C 13.36 g/m*3 16.7 C 0 km/h
3113 13-08-2021 02:55:00 16.6 C 13.28 g/m*3 16.6 C 0 km/h
3114 13-08-2021 03:00:00 16.6 C 13.28 g/m*3 16.6 C 0 km/h
3115 13-08-2021 03:05:00 16.5 C 13.2 g/m*3 16.5 C 0 km/h
3116 13-08-2021 03:10:00 16.4 C 13.12 g/m*3 16.4 C 0 km/h
3117 13-08-2021 03:15:00 16.4 C 13.12 g/m*3 16.4 C 0 km/h
3118 13-08-2021 03:20:00 16.3 C 13.04 g/m*3 16.3 C 0 km/h
3119 13-08-2021 03:25:00 16.3 C 13.04 g/m*3 16.3 C 0 km/h
3120 13-08-2021 03:30:00 16.2 C 12.96 g/m*3 16.2 C 0 km/h
3121 13-08-2021 03:35:00 16.2 C 12.96 g/m*3 16.2 C 0 km/h
3122 13-08-2021 03:40:00 16.2 C 12.96 g/m*3 16.2 C 0 km/h
3123 13-08-2021 03:45:00 16.2 C 13.1 g/m*3 16.2 C 0 km/h
3124 13-08-2021 03:50:00 16.1 C 13.02 g/m*3 16.1 C 0 km/h
3125 13-08-2021 03:55:00 16.1 C 13.02 g/m*3 16.1 C 0 km/h
Sensor: Nr:Datum:Temp:Abs-Feuchte:Windchill:Wind:
Aussen-T/F 3126 13-08-2021 04:00:00 16.1 C 13.02 g/m*3 16.1 C 0 km/h
3127 13-08-2021 04:05:00 16 C 12.94 g/m*3 16 C 0 km/h
3128 13-08-2021 04:10:00 16 C 12.94 g/m*3 16 C 0 km/h
3129 13-08-2021 04:15:00 16 C 12.94 g/m*3 16 C 0 km/h
3130 13-08-2021 04:20:00 16.1 C 13.02 g/m*3 16.1 C 0 km/h
3131 13-08-2021 04:25:00 16.1 C 13.02 g/m*3 16.1 C 0 km/h
3132 13-08-2021 04:30:00 16.1 C 13.02 g/m*3 16.1 C 0 km/h
3133 13-08-2021 04:35:00 16.1 C 13.02 g/m*3 16.1 C 0 km/h
3134 13-08-2021 04:40:00 16 C 12.94 g/m*3 16 C 0 km/h
3135 13-08-2021 04:45:00 15.9 C 12.87 g/m*3 15.9 C 0 km/h
3136 13-08-2021 04:50:00 15.9 C 12.87 g/m*3 15.9 C 0 km/h
3137 13-08-2021 04:55:00 15.8 C 12.79 g/m*3 15.8 C 0 km/h
3138 13-08-2021 05:00:00 15.8 C 12.79 g/m*3 15.8 C 0 km/h
3139 13-08-2021 05:05:00 15.8 C 12.79 g/m*3 15.8 C 0 km/h
3140 13-08-2021 05:10:00 15.8 C 12.79 g/m*3 15.8 C 0 km/h
3141 13-08-2021 05:15:00 15.7 C 12.71 g/m*3 15.7 C 0 km/h
3142 13-08-2021 05:20:00 15.7 C 12.71 g/m*3 15.7 C 0 km/h
3143 13-08-2021 05:25:00 15.6 C 12.63 g/m*3 15.6 C 0 km/h
3144 13-08-2021 05:30:00 15.6 C 12.63 g/m*3 15.6 C 0 km/h
3145 13-08-2021 05:35:00 15.6 C 12.63 g/m*3 15.6 C 0 km/h
3146 13-08-2021 05:40:00 15.6 C 12.63 g/m*3 15.6 C 0 km/h
3147 13-08-2021 05:45:00 15.6 C 12.63 g/m*3 15.6 C 0 km/h
3148 13-08-2021 05:50:00 15.6 C 12.77 g/m*3 15.6 C 0 km/h
3149 13-08-2021 05:55:00 15.7 C 12.84 g/m*3 15.7 C 0 km/h
3150 13-08-2021 06:00:00 15.7 C 12.84 g/m*3 15.7 C 0 km/h
Sensor: Nr:Datum:Temp:Abs-Feuchte:Windchill:Wind:
Aussen-T/F 3151 13-08-2021 06:05:00 15.7 C 12.84 g/m*3 15.7 C 0 km/h
3152 13-08-2021 06:10:00 15.7 C 12.84 g/m*3 15.7 C 0 km/h
3153 13-08-2021 06:15:00 15.7 C 12.84 g/m*3 15.7 C 0 km/h
3154 13-08-2021 06:20:00 15.7 C 12.84 g/m*3 15.7 C 0 km/h
3155 13-08-2021 06:25:00 15.6 C 12.77 g/m*3 15.6 C 0 km/h
3156 13-08-2021 06:30:00 15.6 C 12.77 g/m*3 15.6 C 0 km/h
3157 13-08-2021 06:35:00 15.6 C 12.77 g/m*3 15.6 C 0 km/h
3158 13-08-2021 06:40:00 15.6 C 12.77 g/m*3 15.6 C 0 km/h
3159 13-08-2021 06:45:00 15.6 C 12.77 g/m*3 15.6 C 0 km/h
3160 13-08-2021 06:50:00 15.6 C 12.77 g/m*3 15.6 C 0 km/h
3161 13-08-2021 06:55:00 15.7 C 12.84 g/m*3 15.7 C 0 km/h
3162 13-08-2021 07:00:00 15.7 C 12.84 g/m*3 15.7 C 0 km/h
3163 13-08-2021 07:05:00 15.7 C 12.84 g/m*3 15.7 C 0 km/h
3164 13-08-2021 07:10:00 15.8 C 12.92 g/m*3 15.8 C 0 km/h
3165 13-08-2021 07:15:00 15.8 C 12.92 g/m*3 15.8 C 0 km/h
3166 13-08-2021 07:20:00 15.8 C 12.92 g/m*3 15.8 C 0 km/h
3167 13-08-2021 07:25:00 15.9 C 13 g/m*3 15.9 C 0 km/h
3168 13-08-2021 07:30:00 15.9 C 13 g/m*3 15.9 C 0 km/h
3169 13-08-2021 07:35:00 15.9 C 13 g/m*3 15.9 C 1.6 km/h
3170 13-08-2021 07:40:00 16 C 13.08 g/m*3 16 C 0 km/h
3171 13-08-2021 07:45:00 16.1 C 13.16 g/m*3 16.1 C 0 km/h
3172 13-08-2021 07:50:00 16.1 C 13.16 g/m*3 16.1 C 0 km/h
3173 13-08-2021 07:55:00 16.2 C 13.24 g/m*3 16.2 C 0 km/h
3174 13-08-2021 08:00:00 16.3 C 13.46 g/m*3 16.3 C 0 km/h
3175 13-08-2021 08:05:00 16.4 C 13.54 g/m*3 16.4 C 0 km/h
Sensor: Nr:Datum:Temp:Abs-Feuchte:Windchill:Wind:
Aussen-T/F 3176 13-08-2021 08:10:00 16.4 C 13.4 g/m*3 16.4 C 0 km/h
3177 13-08-2021 08:15:00 16.6 C 13.56 g/m*3 16.6 C 0 km/h
3178 13-08-2021 08:20:00 16.7 C 13.79 g/m*3 16.7 C 0 km/h
3179 13-08-2021 08:25:00 16.8 C 13.87 g/m*3 16.8 C 0 km/h
3180 13-08-2021 08:30:00 16.9 C 13.95 g/m*3 16.9 C 0 km/h
3181 13-08-2021 08:35:00 17.1 C 14.12 g/m*3 17.1 C 0 km/h
3182 13-08-2021 08:40:00 17.2 C 14.2 g/m*3 17.2 C 0 km/h
3183 13-08-2021 08:45:00 17.3 C 14.29 g/m*3 17.3 C 0 km/h
3184 13-08-2021 08:50:00 17.5 C 14.46 g/m*3 17.5 C 1.6 km/h
3185 13-08-2021 08:55:00 17.6 C 14.55 g/m*3 17.6 C 0 km/h
3186 13-08-2021 09:00:00 17.7 C 14.64 g/m*3 17.7 C 0 km/h
3187 13-08-2021 09:05:00 17.8 C 14.72 g/m*3 17.8 C 0 km/h
3188 13-08-2021 09:10:00 17.8 C 14.72 g/m*3 17.8 C 0 km/h
3189 13-08-2021 09:15:00 17.9 C 14.81 g/m*3 17.9 C 0 km/h
3190 13-08-2021 09:20:00 17.9 C 14.66 g/m*3 17.9 C 1.6 km/h
3191 13-08-2021 09:25:00 18.1 C 14.83 g/m*3 18.1 C 1.6 km/h
3192 13-08-2021 09:30:00 18.2 C 14.92 g/m*3 18.2 C 0 km/h
3193 13-08-2021 09:35:00 18.3 C 15.01 g/m*3 18.3 C 0 km/h
3194 13-08-2021 09:40:00 18.4 C 15.1 g/m*3 18.4 C 0 km/h
3195 13-08-2021 09:45:00 18.4 C 15.1 g/m*3 18.4 C 0 km/h
3196 13-08-2021 09:50:00 18.6 C 15.28 g/m*3 18.6 C 0 km/h
3197 13-08-2021 09:55:00 18.7 C 15.37 g/m*3 18.7 C 0 km/h
3198 13-08-2021 10:00:00 18.8 C 15.46 g/m*3 18.8 C 0 km/h
3199 13-08-2021 10:05:00 18.9 C 15.55 g/m*3 18.9 C 0 km/h
3200 13-08-2021 10:10:00 19.1 C 15.74 g/m*3 19.1 C 0 km/h
Sensor: Nr:Datum:Temp:Abs-Feuchte:Windchill:Wind:
Aussen-T/F 3201 13-08-2021 10:15:00 19.2 C 15.83 g/m*3 19.2 C 0 km/h
3202 13-08-2021 10:20:00 19.4 C 16.02 g/m*3 19.4 C 0 km/h
3203 13-08-2021 10:25:00 19.6 C 16.04 g/m*3 19.6 C 0 km/h
3204 13-08-2021 10:30:00 19.7 C 16.13 g/m*3 19.7 C 0 km/h
3205 13-08-2021 10:35:00 19.9 C 16.32 g/m*3 19.9 C 0 km/h
3206 13-08-2021 10:40:00 20.1 C 16.51 g/m*3 20.1 C 0 km/h
3207 13-08-2021 10:45:00 20.3 C 16.71 g/m*3 20.3 C 0 km/h
3208 13-08-2021 10:50:00 20.6 C 17 g/m*3 20.6 C 0 km/h